[[{"header":{"parameterUnit":"m.s-1","parameterCategory":1,"la1":30.6,"la2":29.2853,"lo1":-89.7004,"lo2":-87.6739,"dy":0.0162,"dx":0.0183,"nx":112,"ny":82,"refTime":"2025-03-10T06:00:00:Z","depth":0,"parameterNumber":2,"parameterNumberName":"U-component_of_WINDS"},"data":[0.0,0.0,0.0,0.0,0.0,0.0,0.0,0.0,0.0,0.0,0.0,0.0,0.0,0.0,0.0,0.0,0.0,0.0,0.0,0.0,0.0,0.0,0.0,0.0,0.0,0.0,0.0,0.0,0.0,0.0,0.0,0.0,0.0,0.0,0.0,0.0,0.0,0.0,0.0,0.0,0.0,0.0,0.0,0.0,0.0,0.0,0.0,0.0,0.0,0.0,0.0,0.0,0.0,0.0,0.0,0.0,0.0,0.0,0.0,0.0,0.0,0.0,0.0,0.0,0.0,0.0,0.0,0.0,0.0,0.0,0.0,0.0,0.0,0.0,0.0,0.0,0.0,0.0,0.0,0.0,0.0,0.0,0.0,0.0,0.0,0.0,0.0,0.0,0.0,0.0,1.4038,1.5264,1.7964,1.9465,1.8897,1.8672,1.7281,1.4303,0.0,0.0,0.0,0.0,0.0,0.0,0.0,0.0,0.0,0.0,0.0,0.0,0.0,0.0,0.0,0.0,0.0,0.0,0.0,0.0,0.0,0.0,0.0,0.0,0.0,0.0,0.0,0.0,0.0,0.0,0.0,0.0,0.0,0.0,0.0,0.0,0.0,0.0,0.0,0.0,0.0,0.0,0.0,0.0,0.0,0.0,0.0,0.0,0.0,0.0,0.0,0.0,0.0,0.0,0.0,0.0,0.0,0.0,0.0,0.0,0.0,0.0,0.0,0.0,0.0,0.0,0.0,0.0,0.0,0.0,0.0,0.0,0.0,0.0,0.0,0.0,0.0,0.0,0.0,0.0,0.0,0.0,0.0,0.0,0.0,0.0,0.0,0.0,0.0,0.0,0.0,0.0,0.0,0.0,0.0,0.0,0.0,0.0,0.0,0.0,0.0,0.0,0.0,0.0,1.3895,1.7715,1.9071,1.9645,1.9555,1.8508,1.7191,1.5604,0.0,0.0,0.0,0.0,0.0,0.0,0.0,0.0,0.0,0.0,0.0,0.0,0.0,0.0,0.0,0.0,0.0,0.0,0.0,0.0,0.0,0.0,0.0,0.0,0.0,0.0,0.0,0.0,0.0,0.0,0.0,0.0,0.0,0.0,0.0,0.0,0.0,0.0,0.0,0.0,0.0,0.0,0.0,0.0,0.0,0.0,0.0,0.0,0.0,0.0,0.0,0.0,0.0,0.0,0.0,0.0,0.0,0.0,0.0,0.0,0.0,0.0,0.0,0.0,0.0,0.0,0.0,0.0,0.0,0.0,0.0,0.0,0.0,0.0,0.0,0.0,0.0,0.0,0.0,0.0,0.0,0.0,0.0,0.0,0.0,0.0,0.0,0.0,0.0,0.0,0.0,0.0,0.0,0.0,0.0,0.0,0.0,0.0,0.0,0.0,0.0,0.0,0.0,1.3455,1.5377,1.8857,1.951,1.969,1.969,1.8807,1.7535,1.5903,1.391,0.0,0.0,0.0,0.0,0.0,0.0,0.0,0.0,0.0,0.0,0.0,0.0,0.0,0.0,0.0,0.0,0.0,0.0,0.0,0.0,0.0,0.0,0.0,0.0,0.0,0.0,0.0,0.0,0.0,0.0,0.0,0.0,0.0,0.0,0.0,0.0,0.0,0.0,0.0,0.0,0.0,0.0,0.0,0.0,0.0,0.0,0.0,0.0,0.0,0.0,0.0,0.0,0.0,0.0,0.0,0.0,0.0,0.0,0.0,0.0,0.0,0.0,0.0,0.0,0.0,0.0,0.0,0.0,0.0,0.0,0.0,0.0,0.0,0.0,0.0,0.0,0.0,0.0,0.0,0.0,0.0,0.0,0.0,0.0,0.0,0.0,0.0,0.0,0.0,0.0,0.0,0.0,0.0,0.0,0.0,0.0,0.0,0.0,0.0,0.0,0.0,0.0,1.5783,1.7087,1.9439,1.969,1.969,1.969,1.8807,1.7535,1.5903,1.3625,0.0,0.0,0.0,0.0,0.0,0.0,0.0,0.0,0.0,0.0,0.0,0.0,0.0,0.0,0.0,0.0,0.0,0.0,0.0,0.0,0.0,0.0,0.0,0.0,0.0,0.0,0.0,0.0,0.0,0.0,0.0,0.0,0.0,0.0,0.0,0.0,0.0,0.0,0.0,0.0,0.0,0.0,0.0,0.0,0.0,0.0,0.0,0.0,0.0,0.0,0.0,0.0,0.0,0.0,0.0,0.0,0.0,0.0,0.0,0.0,0.0,0.0,0.0,0.0,0.0,0.0,0.0,0.0,0.0,0.0,0.0,0.0,0.0,0.0,0.0,0.0,0.0,0.0,0.0,0.0,0.0,0.0,0.0,0.0,0.0,0.0,0.0,0.0,0.0,0.0,0.0,0.0,0.0,0.0,0.0,0.0,0.0,0.0,0.0,0.0,0.0,0.0,1.634,1.8387,1.9564,1.969,1.969,1.969,1.7921,1.6532,1.5844,1.2732,0.0,0.0,0.0,0.0,0.0,0.0,0.0,0.0,0.0,0.0,0.0,0.0,0.0,0.0,0.0,0.0,0.0,0.0,0.0,0.0,0.0,0.0,0.0,0.0,0.0,0.0,0.0,0.0,0.0,0.0,0.0,0.0,0.0,0.0,0.0,0.0,0.0,0.0,0.0,0.0,0.0,0.0,0.0,0.0,0.0,0.0,0.0,0.0,0.0,0.0,0.0,0.0,0.0,0.0,0.0,0.0,0.0,0.0,0.0,0.0,0.0,0.0,0.0,0.0,0.0,0.0,0.0,0.0,0.0,0.0,0.0,0.0,0.0,0.0,0.0,0.0,0.0,0.0,0.0,0.0,0.0,0.0,0.0,0.0,0.0,0.0,0.0,0.0,0.0,0.0,0.0,0.0,0.0,0.0,0.0,0.0,0.0,0.0,0.0,0.0,0.0,0.0,1.6301,1.815,0.0,1.969,1.969,1.969,1.8627,1.7341,1.5888,0.0,0.0,0.0,0.0,0.0,0.0,0.0,0.0,0.0,0.0,0.0,0.0,0.0,0.0,0.0,0.0,0.0,0.0,0.0,0.0,0.0,0.0,0.0,0.0,0.0,0.0,0.0,0.0,0.0,0.0,0.0,0.0,0.0,0.0,0.0,0.0,0.0,0.0,0.0,0.0,0.0,0.0,0.0,0.0,0.0,0.0,0.0,0.0,0.0,0.0,0.0,0.0,0.0,0.0,0.0,0.0,0.0,0.0,0.0,0.0,0.0,0.0,0.0,0.0,0.0,0.0,0.0,0.0,0.0,0.0,0.0,0.0,0.0,0.0,0.0,0.0,0.0,0.0,0.0,0.0,0.0,0.0,0.0,0.0,0.0,0.0,0.0,0.0,0.0,0.0,0.0,0.0,0.0,0.0,0.0,0.0,0.0,0.0,0.0,0.0,0.0,0.0,1.4516,1.6702,1.8495,0.0,1.969,1.969,1.969,1.8702,1.7341,1.5604,0.0,0.0,0.0,0.0,0.0,0.0,0.0,0.0,0.0,0.0,0.0,0.0,0.0,0.0,0.0,0.0,0.0,0.0,0.0,0.0,0.0,0.0,0.0,0.0,0.0,0.0,0.0,0.0,0.0,0.0,0.0,0.0,0.0,0.0,0.0,0.0,0.0,0.0,0.0,0.0,0.0,0.0,0.0,0.0,0.0,0.0,0.0,0.0,0.0,0.0,0.0,0.0,0.0,0.0,0.0,0.0,0.0,0.0,0.0,0.0,0.0,0.0,0.0,0.0,0.0,0.0,0.0,0.0,0.0,0.0,0.0,0.0,0.0,0.0,0.0,0.0,0.0,0.0,0.0,0.0,0.0,0.0,0.0,0.0,0.0,0.0,0.0,0.0,0.0,0.0,0.0,0.0,0.0,0.0,0.0,0.0,0.0,0.0,0.0,0.0,0.0,0.0,1.4689,1.7661,1.969,1.969,1.969,1.969,1.969,1.7847,1.6159,0.0,0.0,0.0,0.0,0.0,0.0,0.0,0.0,0.0,0.0,0.0,0.0,0.0,0.0,0.0,0.0,0.0,0.0,0.0,0.0,0.0,0.0,0.0,0.0,0.0,0.0,0.0,0.0,0.0,0.0,0.0,0.0,0.0,0.0,0.0,0.0,0.0,0.0,0.0,0.0,0.0,0.0,0.0,0.0,0.0,0.0,0.0,0.0,0.0,0.0,0.0,0.0,0.0,0.0,0.0,0.0,0.0,0.0,0.0,0.0,0.0,0.0,0.0,0.0,0.0,0.0,0.0,0.0,0.0,0.0,0.0,0.0,0.0,0.0,0.0,0.0,0.0,0.0,0.0,0.0,0.0,0.0,0.0,0.0,0.0,0.0,0.0,0.0,0.0,0.0,0.0,0.0,0.0,0.0,0.0,0.0,0.0,0.0,0.0,0.0,0.0,0.0,0.0,1.5006,1.7796,1.969,1.969,1.969,1.969,1.969,1.8298,1.6846,1.5604,0.0,0.0,0.0,0.0,0.0,0.0,0.0,0.0,0.0,0.0,0.0,0.0,0.0,0.0,0.0,0.0,0.0,0.0,0.0,0.0,0.0,0.0,0.0,0.0,0.0,0.0,0.0,0.0,0.0,0.0,0.0,0.0,0.0,0.0,0.0,0.0,0.0,0.0,0.0,0.0,0.0,0.0,0.0,0.0,0.0,0.0,0.0,0.0,0.0,0.0,0.0,0.0,0.0,0.0,0.0,0.0,0.0,0.0,0.0,0.0,0.0,0.0,0.0,0.0,0.0,0.0,0.0,0.0,0.0,0.0,0.0,0.0,0.0,0.0,0.0,0.0,0.0,0.0,0.0,0.0,0.0,0.0,0.0,0.0,0.0,0.0,0.0,0.0,0.0,0.0,0.0,0.0,0.0,0.0,0.0,0.0,0.0,0.0,0.0,0.0,0.0,0.0,1.5154,1.7878,1.969,1.969,1.969,1.969,1.969,1.8717,1.7341,1.5529,0.0,0.0,0.0,0.0,0.0,0.0,0.0,0.0,0.0,0.0,0.0,0.0,0.0,0.0,0.0,0.0,0.0,0.0,0.0,0.0,0.0,0.0,0.0,0.0,0.0,0.0,0.0,0.0,0.0,0.0,0.0,0.0,0.0,0.0,0.0,0.0,0.0,0.0,0.0,0.0,0.0,0.0,0.0,0.0,0.0,0.0,0.0,0.0,0.0,0.0,0.0,0.0,0.0,0.0,0.0,0.0,0.0,0.0,0.0,0.0,0.0,0.0,0.0,0.0,0.0,0.0,0.0,0.0,0.0,0.0,0.0,0.0,0.0,0.0,0.0,0.0,0.0,0.0,0.0,0.0,0.0,0.0,0.0,0.0,0.0,0.0,0.0,0.0,0.0,0.0,0.0,0.0,0.0,0.0,0.0,0.0,0.0,0.0,0.0,0.0,0.0,0.0,1.5301,1.7907,1.969,1.969,1.969,1.969,1.969,1.9091,1.764,1.5126,0.0,0.0,0.0,0.0,0.0,0.0,0.0,0.0,0.0,0.0,0.0,0.0,0.0,0.0,0.0,0.0,0.0,0.0,0.0,0.0,0.0,0.0,0.0,0.0,0.0,0.0,0.0,0.0,0.0,0.0,0.0,0.0,0.0,0.0,0.0,0.0,0.0,0.0,0.0,0.0,0.0,0.0,0.0,0.0,0.0,0.0,0.0,0.0,0.0,0.0,0.0,0.0,0.0,0.0,0.0,0.0,0.0,0.0,0.0,0.0,1.2729,0.0,0.0,0.0,0.0,0.0,0.0,0.0,0.0,0.0,0.0,0.0,0.0,0.0,0.0,0.0,0.0,0.0,0.0,0.0,0.0,0.0,0.0,0.0,0.0,0.0,0.0,0.0,0.0,0.0,0.0,0.0,0.0,0.0,0.0,0.0,0.0,0.0,0.0,0.0,0.0,0.0,1.6173,1.8339,1.969,1.969,1.969,1.969,1.969,1.9091,1.8029,1.6398,1.4576,0.0,0.0,0.0,0.0,0.0,0.0,0.0,0.0,0.0,0.0,0.0,0.0,0.0,0.0,0.0,0.0,0.0,0.0,0.0,0.0,0.0,0.0,0.0,0.0,0.0,0.0,0.0,0.0,0.0,0.0,0.0,0.0,0.0,0.0,0.0,0.0,0.0,0.0,0.0,0.0,0.0,0.0,0.0,0.0,0.0,0.0,0.0,0.0,0.0,0.0,0.0,0.0,0.0,0.0,0.0,0.0,0.0,0.0,0.0,0.0,1.4503,0.0,0.0,0.0,0.0,0.0,0.0,0.0,0.0,0.0,0.0,0.0,0.0,0.0,0.0,0.0,0.0,0.0,0.0,0.0,0.0,0.0,0.0,0.0,0.0,0.0,0.0,0.0,0.0,0.0,0.0,0.0,0.0,0.0,0.0,0.0,0.0,0.0,0.0,0.0,0.0,1.6502,1.8463,1.969,1.969,1.969,1.969,1.969,1.9375,1.8612,1.7264,1.5665,0.0,0.0,0.0,0.0,0.0,0.0,0.0,0.0,0.0,0.0,0.0,0.0,0.0,0.0,0.0,0.0,0.0,0.0,0.0,0.0,0.0,0.0,0.0,0.0,0.0,0.0,0.0,0.0,0.0,0.0,0.0,0.0,0.0,0.0,0.0,0.0,0.0,0.0,0.0,0.0,0.0,0.0,0.0,0.0,0.0,0.0,0.0,0.0,0.0,0.0,0.0,0.0,0.0,1.6227,1.6999,1.816,1.7693,1.8155,1.9256,1.8206,1.7531,1.7092,0.0,0.0,0.0,0.0,0.0,0.0,0.0,0.0,0.0,0.0,0.0,0.0,0.0,0.0,0.0,0.0,0.0,0.0,0.0,0.0,0.0,0.0,0.0,0.0,0.0,1.9731,1.9309,0.0,0.0,0.0,0.0,0.0,0.0,0.0,0.0,0.0,0.0,0.0,0.0,1.6876,1.8612,1.969,1.969,1.969,1.969,1.969,1.969,1.9166,1.7936,1.6772,1.5575,0.0,0.0,0.0,0.0,0.0,0.0,0.0,0.0,0.0,0.0,0.0,0.0,0.0,0.0,0.0,0.0,0.0,0.0,0.0,0.0,0.0,0.0,0.0,0.0,0.0,0.0,0.0,0.0,0.0,0.0,0.0,0.0,0.8683,0.984,0.0,0.0,0.0,0.0,0.0,0.0,0.0,0.0,0.0,0.0,0.0,0.0,0.0,1.539,1.6217,1.7625,1.8369,1.843,1.9106,1.9512,1.9731,2.0331,2.0712,2.0933,2.1601,0.0,1.9069,1.9395,0.0,0.0,0.0,0.0,0.0,0.0,0.0,0.0,0.0,0.0,0.0,0.0,0.0,0.0,0.0,0.0,0.0,0.0,0.0,0.0,0.0,0.0,2.2192,2.3409,2.3748,2.3494,0.0,1.9202,1.6071,1.5074,0.0,0.0,0.0,0.0,0.0,0.0,0.0,0.0,1.8208,1.9166,1.969,1.969,1.969,1.969,1.969,1.969,1.9375,1.8627,1.7847,1.71,1.6353,1.4442,0.0,0.0,0.0,0.0,0.0,0.0,0.0,0.0,0.0,0.0,0.0,0.0,0.0,0.0,0.0,0.0,0.0,0.0,0.0,0.0,0.0,0.0,0.0,0.0,0.0,0.0,0.0,0.0,0.0,0.8254,0.9706,1.08,1.0736,1.0702,0.0,0.0,0.0,0.0,0.0,0.0,0.0,0.0,0.0,1.6185,1.7007,1.7811,1.8555,1.9638,2.0179,2.0196,2.0957,2.1285,2.1329,2.209,2.2429,2.2491,2.3536,2.3554,2.2717,2.1286,1.9774,1.8307,0.0,0.0,0.0,0.0,1.8285,1.8741,2.001,2.045,0.0,0.0,0.0,0.0,0.0,0.0,0.0,0.0,0.0,0.0,0.0,0.0,0.0,2.4275,2.4506,2.4421,2.4069,2.2417,2.0324,0.0,1.7494,1.6581,1.4599,0.0,0.0,0.0,0.0,1.8252,1.944,2.0337,2.0677,2.0303,2.0258,2.0109,1.972,1.969,1.9555,1.9271,1.8642,1.8149,1.7832,1.6278,1.4934,0.0,0.0,0.0,0.0,0.0,0.0,0.0,0.0,0.0,0.0,0.0,0.0,0.0,0.0,0.0,0.0,0.0,0.0,0.0,0.0,0.0,0.0,0.0,0.0,0.0,0.0,0.0,0.0,0.9551,1.0664,1.1638,1.1881,1.1977,0.0,0.0,0.0,0.0,0.0,0.0,1.5663,1.6177,1.7134,1.8623,1.9198,1.9841,2.0576,2.1177,2.1465,2.1481,2.2226,2.2581,2.2615,2.3342,2.3723,2.3886,2.4746,2.5331,2.5483,2.3213,2.1888,2.1195,2.0241,1.9843,1.9918,2.0602,2.0981,2.1397,2.3088,2.3663,2.3494,2.2406,0.0,2.1448,1.9756,0.0,0.0,0.0,0.0,2.1634,2.3714,2.4239,2.4475,2.5438,2.5658,2.5658,2.5658,2.5353,2.4211,0.0,2.0727,1.985,1.7396,0.0,0.0,0.0,0.0,2.033,2.0955,2.155,2.168,2.1182,2.1023,2.0692,2.0004,1.9944,1.9869,1.969,1.9226,1.8957,1.8957,1.7817,1.6682,1.556,0.0,0.0,0.0,0.0,0.0,0.0,0.0,0.0,0.0,0.0,0.0,0.0,0.0,0.0,0.0,0.0,0.0,0.0,0.0,0.0,0.0,0.0,0.0,0.0,0.0,0.0,0.0,0.0,0.0,1.264,1.3677,0.0,0.0,0.0,0.0,1.5784,1.5854,1.6791,1.9034,1.8876,1.9435,2.1,2.1068,2.1431,2.2192,2.2226,2.2243,2.226,2.2987,2.3342,2.3359,2.4103,2.465,2.5021,2.535,2.5704,2.6038,2.5829,2.5506,2.5047,2.4372,2.4049,2.3942,2.3414,2.3663,2.4303,2.4421,2.4455,2.4438,2.4371,2.3849,2.3257,2.3139,2.3122,0.0,0.0,2.3714,2.4611,2.6133,2.6522,2.6911,2.8399,2.8755,2.8755,2.8755,2.7604,2.6017,0.0,2.3424,2.3038,2.2429,0.0,2.1735,2.2285,2.2199,2.2292,2.2964,2.2645,2.2344,2.2313,2.1918,2.138,2.0722,2.0662,2.0378,1.9735,1.966,1.963,1.963,1.8972,1.8283,1.7563,1.5665,0.0,0.0,0.0,0.0,0.0,0.0,0.0,0.0,0.0,0.0,0.0,0.0,0.0,0.0,0.0,0.0,0.0,0.0,0.0,0.0,0.0,0.0,0.0,0.0,0.0,0.0,0.0,0.0,1.5245,1.5939,0.0,1.687,1.6957,1.7418,1.8463,1.8323,1.8965,2.0715,2.0533,2.0839,2.187,2.1904,2.2398,2.3392,2.3147,2.3386,2.4115,2.4117,2.4103,2.412,2.4864,2.5436,2.5825,2.6411,2.703,2.7572,2.7547,2.6999,2.6091,2.5392,2.51,2.505,2.4868,2.527,2.5964,2.6454,2.6962,2.73,2.6793,2.6116,2.5507,2.5507,2.5507,2.5625,2.6116,2.6437,2.686,2.7892,2.8163,2.8298,2.8856,2.9011,2.9011,2.9011,2.8552,2.7975,2.7295,2.5544,2.3904,2.3264,2.3365,2.3463,2.3197,2.3555,2.3962,2.4188,2.4216,2.3916,2.3134,2.2871,2.2224,2.0835,2.0722,2.0423,1.9735,1.969,1.969,1.969,1.9465,1.9031,1.8373,1.7251,1.55,0.0,0.0,0.0,0.0,0.0,0.0,0.0,0.0,0.0,0.0,0.0,0.0,0.0,0.0,0.0,0.0,0.0,0.0,0.0,0.0,0.0,0.0,0.0,0.0,0.0,0.0,1.4718,1.6758,1.778,1.8496,1.8937,1.9395,1.9991,2.0743,2.0596,2.0952,2.2076,2.1859,2.2044,2.2856,2.2751,2.3204,2.4371,2.3984,2.4134,2.4907,2.4883,2.4864,2.4898,2.5896,2.6565,2.6991,2.7892,2.8629,2.9232,2.9362,2.8937,2.8105,2.7066,2.6853,2.707,2.685,2.7046,2.7537,2.8044,2.8552,2.889,2.8383,2.7875,2.7469,2.7469,2.7469,2.7571,2.8078,2.8213,2.8383,2.9161,2.9364,2.9414,2.9668,2.9719,2.9719,2.9719,2.9533,2.9364,2.9364,2.7554,2.5878,2.5355,2.5456,2.5439,2.4966,2.5196,2.5427,2.5427,2.5451,2.5158,2.4376,2.4099,2.3429,2.1987,2.1508,2.0985,2.0339,1.9918,1.969,1.969,1.969,1.948,1.9046,1.7921,1.6398,1.4468,0.0,0.0,0.0,0.0,0.0,0.0,0.0,0.0,0.0,0.0,0.0,0.0,0.0,0.0,0.0,0.0,0.0,0.0,0.0,0.0,0.0,0.0,0.0,1.2824,1.4965,1.6682,1.7087,1.9161,2.0354,1.9853,2.0834,2.1821,2.258,2.2574,2.2733,2.3177,2.2915,2.312,2.3944,2.3625,2.3984,2.5125,2.4735,2.4557,2.4591,2.5287,2.5659,2.5727,2.7165,2.8049,2.8516,2.9726,3.0428,3.0856,3.1232,3.1403,3.1279,2.9687,2.9543,3.0123,2.935,2.9062,2.9096,2.9096,2.9096,2.9096,2.9096,2.9096,2.9096,2.9096,2.9096,2.9096,2.9096,2.9096,2.9211,2.9956,3.0142,3.0311,3.1021,3.119,3.119,3.119,3.0632,3.0142,3.0142,2.955,2.9025,2.9028,2.8349,2.7823,2.7823,2.7232,0.0,2.6725,2.633,2.603,2.6013,2.554,2.4932,2.4264,2.3069,2.2154,2.1553,2.0375,1.969,1.969,1.969,1.969,1.969,1.7742,1.6428,1.5829,0.0,0.0,0.0,0.0,0.0,0.0,0.0,0.0,0.0,0.0,0.0,0.0,0.0,0.0,0.0,0.0,0.0,0.0,0.0,0.0,0.0,0.0,1.5404,1.5458,1.6426,1.7939,2.0085,2.1126,2.1901,2.2539,2.3115,2.3527,2.3746,2.3304,2.3069,2.3189,2.3482,2.3619,2.3579,2.4265,2.5046,2.5895,2.5507,2.57,2.6526,2.6449,2.6691,2.7232,2.7979,2.8806,2.9744,3.0415,3.0921,3.1258,3.1359,3.1733,3.214,3.0875,3.0308,3.0207,3.0213,3.0392,3.0581,3.0581,3.0581,3.0581,3.0581,3.0581,3.0581,3.0581,3.0581,3.0581,3.0581,3.0581,3.0632,3.0835,3.0903,3.0954,3.114,3.119,3.119,3.119,3.1038,3.0903,3.0903,3.0717,3.0243,2.9161,2.8805,2.867,2.867,2.8484,0.0,2.7588,2.7398,2.6969,2.6099,2.5888,2.5359,2.4301,2.3069,2.2154,2.1553,2.0375,1.969,1.969,1.969,1.969,1.969,1.8208,1.71,0.0,0.0,0.0,0.0,0.0,0.0,0.0,0.0,0.0,0.0,0.0,0.0,0.0,0.0,0.0,0.0,0.0,0.0,0.0,0.0,0.0,0.0,1.5912,1.7526,1.8501,1.8846,1.9687,2.1581,2.2113,2.2711,2.3617,2.3876,2.4054,2.419,2.4145,2.4051,2.3914,2.4537,2.4927,2.503,2.5557,2.6237,2.7106,2.6584,2.6902,2.8062,2.7661,2.7959,2.8866,2.9455,3.0064,0.0,3.1523,3.1972,3.2165,3.2342,3.259,0.0,0.0,0.0,0.0,0.0,3.1035,3.1241,3.1546,3.1647,3.1698,3.2019,3.2121,3.2121,3.2121,3.2121,3.2121,3.2121,3.2121,3.2121,3.2121,3.2121,3.2121,3.2121,3.2121,3.2036,3.1715,3.1647,3.1562,3.1258,0.0,0.0,3.0057,2.9651,2.9448,2.9448,2.9194,2.8822,2.8366,2.8298,2.8022,2.7317,2.7284,2.6859,2.5793,2.4441,0.0,0.0,0.0,1.9989,1.969,1.969,0.0,0.0,0.0,0.0,0.0,0.0,0.0,0.0,1.6293,1.5802,0.0,0.0,0.0,0.0,0.0,0.0,0.0,0.0,0.0,0.0,0.0,0.0,0.0,0.0,0.0,0.0,1.7824,1.9429,2.1435,2.1558,2.1635,2.222,2.2551,2.3021,2.3692,2.3774,2.3912,2.4299,2.4959,2.5257,2.505,0.0,0.0,0.0,0.0,2.7424,2.8324,2.7719,2.8002,2.9107,2.8739,2.9225,3.0467,3.1093,3.1448,3.1684,3.2769,3.3273,3.3302,3.3634,3.3577,3.3129,3.2009,3.2042,3.2682,3.1857,3.1562,0.0,0.0,0.0,0.0,3.3186,3.3406,3.3406,3.3406,3.3406,3.3406,3.3406,3.3406,3.3406,3.3406,3.3406,3.3406,3.3406,3.3406,3.322,3.256,3.2408,3.2188,3.1461,3.1309,3.1292,3.1207,3.0666,3.0226,3.0226,2.9668,0.0,2.911,2.911,2.9076,2.8991,0.0,0.0,2.801,2.6385,2.482,2.3513,2.1778,2.0557,1.9929,1.9914,1.9914,1.9914,2.0513,2.0827,2.0827,2.141,2.1695,2.1605,1.7475,1.6817,0.0,0.0,0.0,0.0,0.0,0.0,0.0,0.0,0.0,0.0,0.0,0.0,0.0,0.0,0.0,1.8029,1.9994,2.1626,2.2303,2.2633,2.2953,2.335,2.3234,2.3369,2.4054,2.4094,2.4408,2.5107,2.5048,2.524,2.585,2.6627,0.0,2.6908,2.7655,2.8049,2.7992,2.8128,2.8495,2.9107,0.0,0.0,3.12,3.1342,3.1907,3.2889,3.3449,3.368,3.368,3.3762,3.3694,3.3488,3.3294,3.3702,3.4288,3.381,3.3615,3.3593,3.3284,3.3186,3.322,3.3355,3.3406,3.3406,3.3406,3.3406,0.0,3.3406,3.3406,3.3406,3.3406,3.3406,3.3406,3.3406,3.3406,3.3372,3.322,3.3186,3.2966,3.2205,3.211,3.1884,3.1292,3.1072,3.0987,3.0987,3.0869,3.0548,2.9973,2.9888,2.9651,2.9042,2.9011,2.8924,2.8772,2.7045,2.5628,2.4965,2.2771,2.144,2.1321,2.1306,2.1306,2.1306,2.144,2.1515,2.1515,2.1635,2.1695,2.168,2.0782,2.0632,0.0,0.0,0.0,0.0,0.0,0.0,0.0,0.0,0.0,0.0,0.0,1.4056,1.5019,0.0,1.8843,2.0185,2.1483,2.2542,2.3082,2.3315,2.3566,2.3917,2.3369,2.3277,2.4113,2.426,2.4617,2.5346,2.599,2.6526,2.6927,2.7711,2.8076,2.7904,2.8814,2.9214,2.9034,2.9447,3.0065,3.0848,3.0398,3.1044,3.2582,3.2373,3.2727,3.3522,3.3707,3.4027,3.4403,3.4329,3.463,3.5148,3.4924,3.4711,3.4491,3.4245,3.4202,3.4177,3.4023,3.3947,3.4015,3.4387,3.4506,3.4506,3.4506,3.4506,3.4506,3.4506,3.4506,3.4506,3.4506,3.4506,3.4506,3.4506,3.4506,3.4404,3.4032,3.3947,3.3728,3.2983,3.2848,3.273,3.2357,3.2307,3.2053,3.1309,3.119,3.1072,3.07,3.0649,3.0514,3.0125,3.0091,2.9939,2.9583,2.7768,2.6281,2.5433,2.3931,2.2813,2.2244,2.2488,2.2503,2.2203,2.2832,2.3161,2.3161,2.349,2.3655,2.3655,2.3655,2.3295,0.0,0.0,0.0,0.0,0.0,0.0,0.0,0.0,1.2423,1.2773,1.4726,1.6601,1.7406,1.9117,2.0827,2.2057,2.2625,2.3129,2.3705,2.3795,2.3896,2.417,2.3414,2.3307,2.4333,2.4526,2.4946,2.5803,2.7053,2.786,2.8026,2.865,2.9067,2.9214,2.9861,3.0283,3.043,3.0884,3.161,3.2588,3.1912,3.2385,3.3807,3.3571,3.3655,3.4045,3.4211,3.4651,3.5255,3.5307,3.5874,3.669,3.6558,3.5881,3.4926,3.4812,3.4774,3.4801,3.4746,3.4709,3.481,3.5419,3.5622,3.5622,3.5622,3.5622,3.5622,3.5622,3.5622,3.5622,3.5622,3.5622,3.5622,3.5622,3.5622,3.5453,3.4844,3.4709,3.4489,3.3761,3.3609,3.3575,3.3423,3.3406,3.3,3.1799,3.1495,3.141,3.141,3.1275,3.119,3.119,3.119,3.0903,3.0176,2.8569,2.7108,2.5911,2.5228,2.441,2.3308,2.3729,2.3759,2.3251,2.4283,2.4776,2.4776,2.536,2.5615,2.5615,2.5734,2.5151,1.3109,1.2198,1.182,1.3067,1.2728,1.2685,0.0,0.0,1.5,1.6622,1.7719,1.8698,1.9741,2.1221,2.2419,2.283,2.3527,2.4041,2.4133,2.4151,2.4151,2.4208,2.3837,2.4046,2.5161,2.5287,2.5908,2.742,2.7695,2.8117,2.881,2.8938,2.9347,3.0044,3.0155,3.054,3.1256,3.1656,3.2109,3.2588,3.2437,3.2875,3.3825,3.4105,3.4479,3.4899,3.5679,3.6064,3.6211,3.6911,3.6994,3.6811,3.7931,3.8034,3.7416,3.7037,3.6849,3.6735,3.5814,3.5504,3.5504,3.5588,3.5622,3.5622,3.5622,3.5622,3.5622,3.5622,3.5622,3.5622,3.5622,3.5622,3.5622,3.5622,3.5622,3.5605,3.5504,3.5504,3.5267,3.4523,3.437,3.4167,3.3508,3.3406,3.3355,3.3186,3.2594,3.2195,3.2195,3.1596,3.119,3.119,3.119,3.0903,3.0176,2.9465,2.8478,2.7173,2.6596,2.5981,2.5285,2.5345,2.5345,2.5285,2.5435,2.5495,2.5495,2.557,2.5615,2.5615,2.6213,2.6093,1.4707,1.4077,1.3854,0.0,1.4955,1.5658,1.6676,1.7383,1.802,1.8788,2.0007,2.111,2.1567,2.268,2.358,0.0,2.3988,2.419,2.419,2.419,2.419,2.419,2.4074,2.4346,2.5309,2.5661,2.637,2.7714,2.8227,2.865,2.8975,2.9457,2.9861,3.0191,3.1109,3.177,3.21,3.2711,3.3113,3.3311,3.3033,3.3478,3.4495,3.4413,3.4909,3.5807,3.6633,3.6982,3.7055,3.7544,3.7758,3.7895,3.814,3.83,3.8267,3.7487,3.736,3.7415,3.6079,3.581,3.6011,3.5694,3.5622,3.5622,3.5622,3.5622,3.5622,3.5622,3.5622,3.5622,3.5622,3.5622,3.5622,3.5622,3.5622,3.5622,3.5622,3.5622,3.552,3.5216,3.5148,3.5047,3.4742,3.4692,3.4692,3.4692,3.3694,3.2933,3.2933,3.2662,3.2476,3.2476,3.2476,3.2188,3.1427,3.0866,2.9933,2.8618,2.7994,2.7195,2.6231,2.6557,2.6572,2.6183,2.6557,2.6752,2.6752,2.6752,2.6752,2.6767,2.744,2.7604,1.5678,0.0,0.0,1.6051,1.7058,1.8039,1.852,1.9505,2.0402,2.0693,2.1802,2.2788,2.3006,2.369,2.419,2.419,2.419,2.419,2.419,2.419,2.419,2.419,2.419,2.4593,2.5621,2.6038,2.6763,2.804,2.8686,2.9085,2.9305,2.9879,3.0411,3.0852,3.199,3.2724,3.2944,3.3513,3.3807,3.3807,3.3712,3.416,3.5009,3.5169,3.5872,3.6982,3.7569,3.7826,3.7863,3.8063,3.835,3.8658,3.8267,3.835,3.8614,3.7989,3.7793,3.7702,3.6316,3.6191,3.6602,3.6106,3.6079,3.6248,3.6248,3.6248,3.6248,3.6248,3.6248,3.6197,3.5994,3.5943,3.5943,3.5943,3.5774,3.5673,3.5893,3.5774,3.5622,3.5622,3.5622,3.5622,3.5622,3.5622,3.5622,3.5622,3.4709,3.3931,3.3728,3.3541,3.3406,3.3406,3.3406,3.3186,3.2645,3.2211,3.1386,3.0044,2.9391,2.8477,2.7205,2.7425,2.735,2.6871,2.732,2.7625,2.7625,2.7769,2.7859,2.7874,2.8547,2.8876,0.0,0.0,1.5948,1.8299,1.8771,1.9127,2.0877,2.1332,2.166,2.2703,2.296,2.3235,2.4025,2.419,2.419,2.419,2.419,2.419,2.419,2.419,2.419,2.419,2.419,2.4814,0.0,2.6573,2.7251,2.8828,2.8975,2.9347,3.0118,3.0191,3.0925,3.2485,3.2577,3.2981,3.3752,3.3788,3.3807,3.3807,3.4568,3.4972,3.5045,3.667,3.7845,3.8634,3.8652,3.867,3.867,3.8658,3.8676,3.8707,3.8676,3.8676,3.8719,3.895,3.8561,3.7755,3.6706,3.6842,3.7379,3.6933,3.7246,3.7838,3.7838,3.7838,3.7838,3.7838,3.7838,3.7669,3.6941,3.6738,3.6738,3.6738,3.6163,3.5825,3.6586,3.6146,3.5622,3.5622,3.5622,3.5622,3.5622,3.5622,3.5622,3.5622,3.5588,3.5284,3.4556,3.3846,3.3406,3.3406,3.3406,3.3389,3.3372,3.3372,3.2773,3.1518,3.0813,2.9894,2.8584,2.7919,2.761,2.7595,2.761,2.7625,2.7625,2.8248,2.8562,2.8592,2.925,2.9549,1.6353,0.0,1.8316,1.9654,2.0787,2.1716,2.2319,2.2867,2.3362,2.3712,2.3804,2.3878,2.4153,2.419,2.419,2.419,2.419,2.419,2.419,2.4649,2.4795,2.4263,2.5144,0.0,0.0,0.0,0.0,2.8865,2.9494,2.9916,3.0191,3.1219,3.2045,3.2596,3.3128,3.3532,3.3807,3.3807,3.3807,3.3825,3.5202,3.6138,3.6688,3.779,3.8432,3.8707,3.8707,3.8707,3.8707,3.8707,3.8707,3.8707,3.8707,3.9038,3.9515,3.9593,3.9816,3.9815,3.8415,3.8318,3.8695,3.7792,3.7702,3.7905,3.7905,3.7905,3.7905,3.7905,3.7905,3.7838,3.7601,3.7533,3.7533,3.7533,3.733,3.7212,3.7466,3.733,3.7144,3.7144,3.7144,3.6975,3.6468,3.64,3.6214,3.569,3.5622,3.552,3.5267,3.503,3.4878,3.4878,3.4878,3.4675,3.4167,3.3778,3.3143,3.224,3.1166,3.037,2.9945,2.926,2.8906,2.8906,2.8906,2.8906,2.8906,2.9131,2.925,2.9265,2.9909,3.0193,1.7472,1.872,2.0005,2.1108,2.219,2.3088,2.3364,2.3823,2.4116,2.3823,2.3768,2.3768,2.3768,2.3768,2.3878,2.4153,2.4428,2.463,2.463,2.5309,2.564,2.5126,2.597,2.6722,0.0,0.0,0.0,2.8883,2.9751,3.0338,3.0613,3.188,3.2742,3.3036,3.3532,3.3807,3.3807,3.3807,3.41,3.4706,3.5789,3.6872,3.7936,3.8469,3.8707,3.8707,3.8707,3.8707,3.8707,3.8707,3.8707,3.8726,3.9019,3.9441,3.9955,4.0543,4.1075,4.1293,3.9562,3.9381,3.9711,3.867,3.8464,3.8684,3.8684,3.8684,3.8684,3.8684,3.8684,3.8633,3.8362,3.8294,3.8294,3.8294,3.8091,3.7973,3.8244,3.8091,3.7905,3.7905,3.7905,3.7753,3.7263,3.7178,3.7009,3.6518,3.6434,3.6231,3.569,3.5622,3.5622,3.5622,3.5622,3.5419,3.4928,3.4549,3.3997,3.3288,3.2289,3.146,3.1,3.0333,2.9872,2.9579,2.9579,2.9579,2.9579,2.9804,2.9909,2.9924,3.0567,3.0866,1.8941,1.9987,2.1016,2.2648,2.307,2.3272,2.4025,2.4171,2.3914,2.3162,2.2978,2.2942,0.0,0.0,2.3254,2.4006,2.4832,2.5403,2.5403,2.6135,2.6649,0.0,0.0,0.0,0.0,0.0,0.0,2.8994,0.0,3.0613,3.1403,3.2228,3.3018,3.377,3.3807,3.3807,3.3807,3.3844,3.4688,3.6303,3.634,3.7184,3.8707,3.8707,3.8707,3.8707,3.8707,3.8707,3.8707,3.8707,3.8726,3.8836,3.9588,3.9937,4.0212,4.1735,4.2323,4.2095,4.0277,4.0093,4.0479,3.9422,3.9562,4.007,4.007,4.007,4.007,4.007,4.007,3.9918,3.9225,3.9056,3.9056,3.9056,3.8514,3.821,3.8903,3.8514,3.8024,3.8024,3.799,3.7973,3.7973,3.7922,3.7905,3.7905,3.7905,3.7381,3.5926,3.574,3.574,3.574,3.574,3.574,3.574,3.569,3.5367,3.4738,3.4013,3.3032,3.1821,3.1078,3.0391,2.9778,2.9723,2.9738,2.9684,3.0268,3.0552,3.0567,3.1225,3.1497,1.9932,2.1272,2.2611,2.3639,2.3896,2.3951,2.4153,2.3749,2.3254,2.3052,2.252,2.2097,0.0,0.0,0.0,2.3272,2.4483,0.0,2.5403,2.6594,0.0,2.6667,0.0,2.8246,2.7842,2.8888,0.0,0.0,3.0632,3.1439,3.2265,3.3054,3.3587,3.3788,3.3807,3.3807,3.3807,3.4394,3.5238,3.6303,3.689,3.7716,3.8707,3.8707,3.8707,3.8707,3.8707,3.8707,3.8707,3.8707,3.9056,3.9606,3.9808,4.0616,4.1735,4.2158,4.2671,4.308,4.219,4.1698,4.1382,4.0626,4.0246,4.007,4.007,4.007,4.007,4.007,4.007,4.0037,3.9851,3.98,3.98,3.98,3.9665,3.958,3.9766,3.9648,3.9529,3.9529,3.9089,3.8717,3.8717,3.8261,3.7905,3.7905,3.7905,3.777,3.7381,3.733,3.733,3.733,3.733,3.733,3.733,3.6806,3.6422,3.6266,3.4578,3.3662,3.3811,3.2704,3.2021,3.182,3.182,3.1561,3.1046,3.1195,3.127,3.127,3.1392,3.1794,2.1382,2.2556,2.3639,2.408,2.419,2.4116,2.3749,2.3327,2.2777,2.2043,2.1547,0.0,2.1235,2.1914,0.0,0.0,0.0,0.0,2.5915,2.731,2.8172,0.0,2.8466,0.0,2.8851,2.9677,3.0485,0.0,3.1678,3.2118,3.2596,3.3366,3.3807,3.3807,3.3807,3.3972,3.4321,3.4752,3.5624,3.6817,3.7276,3.7918,3.8707,3.8707,3.8707,3.8707,0.0,3.8707,3.8726,3.9074,3.9478,3.9955,4.0671,4.1515,4.2341,4.269,4.3112,4.3444,4.3178,4.2675,4.2038,4.1178,4.0546,4.007,4.007,4.0237,4.0449,4.0449,4.0625,4.0861,4.0861,4.0625,4.0449,4.0449,4.0286,4.007,4.007,4.007,4.007,4.007,3.9749,3.9462,3.9462,3.914,3.887,3.887,3.887,3.887,3.887,3.8311,3.7905,3.7905,3.7905,3.7905,3.7905,3.7516,3.728,3.728,3.6123,3.5515,3.558,3.4859,3.4155,3.3549,3.3552,3.3039,3.1951,3.2284,3.2243,3.1973,3.2258,3.2587,2.2813,2.3584,2.419,2.419,2.419,2.3988,2.318,2.2923,2.2409,2.0814,0.0,2.0338,2.0338,2.1143,2.2024,2.274,0.0,2.6484,2.6594,2.7897,2.8865,2.8975,2.9085,2.9439,3.0136,3.0393,3.1109,3.2504,3.2706,3.2761,3.2761,3.3421,3.3807,3.3807,3.3899,3.4302,3.499,3.521,3.6064,3.7507,3.7606,3.801,3.8707,3.8707,3.8707,3.8707,0.0,0.0,3.8762,3.957,3.9955,4.0212,4.1717,4.2378,4.2543,4.3222,4.3497,4.3497,4.3497,4.3142,4.2537,4.149,4.075,4.0353,4.0353,4.0672,4.1041,4.1041,4.1402,4.181,4.181,4.1402,4.0995,4.0903,4.0528,4.0204,4.0138,4.007,4.007,4.007,4.007,4.007,4.007,4.007,4.007,4.007,4.007,4.007,4.007,3.8971,3.8193,3.8193,3.8193,3.8193,3.8193,3.8108,3.8058,3.8058,3.7843,3.75,3.697,3.6835,3.6233,3.5009,3.4857,3.4269,3.3014,3.3437,3.3367,3.2825,3.3397,3.3652,2.296,2.3584,2.419,2.419,2.419,2.3988,2.318,2.2483,0.0,0.0,1.9968,1.951,1.951,2.0758,2.1858,2.1987,2.4025,2.5841,2.6521,2.742,2.8246,0.0,2.9604,3.0063,3.0191,3.1403,0.0,0.0,0.0,3.3587,3.3587,3.3715,3.3807,3.3807,3.4468,3.4844,3.499,3.6376,3.7202,3.7526,3.8175,3.856,3.8707,3.8707,3.8707,3.8707,3.8707,0.0,3.8762,3.957,4.0286,4.1001,4.1937,4.2708,4.3296,4.3442,4.3497,4.3497,4.3497,4.3142,4.2673,4.244,4.1997,4.1508,4.1508,4.1578,4.1621,4.1621,4.1707,4.181,4.181,4.1707,4.1534,4.1041,4.0827,4.0655,4.0204,4.007,4.007,4.007,4.007,4.007,4.007,4.007,4.007,4.007,4.007,4.007,4.007,3.9868,3.9698,3.9698,3.9698,3.9698,3.9698,3.9157,3.8802,3.8802,3.7653,3.7203,3.7679,3.7137,3.6684,3.645,3.5846,3.5418,3.5256,3.4722,3.4411,3.4287,3.4411,3.4424,2.3511,2.3914,2.419,2.419,2.419,2.3878,2.2648,0.0,0.0,0.0,1.9565,1.9305,1.9305,2.0682,0.0,2.1803,2.3841,2.5676,2.6502,2.7291,2.8246,2.9494,2.9971,3.054,0.0,3.2155,0.0,0.0,0.0,3.3807,3.3807,3.3807,3.399,3.4412,3.4789,3.544,3.6285,3.7092,3.7698,3.812,3.8524,3.8707,3.8707,3.8707,3.8707,3.8707,3.8707,0.0,3.9386,4.0194,4.1001,4.1809,4.2598,4.3149,4.3497,4.3497,4.3497,4.3497,4.3497,4.3321,4.3142,4.3142,4.2541,4.181,4.181,4.2021,4.2262,4.2262,4.2462,4.2678,4.2678,4.2501,4.2121,4.149,4.092,4.0417,4.0171,4.007,4.007,4.007,4.007,4.007,4.007,4.007,4.007,4.007,4.007,4.007,4.007,4.007,4.007,4.007,4.007,4.007,4.007,3.9766,3.9546,3.9546,3.8925,3.8673,3.9039,3.8723,3.8321,3.7937,3.7584,3.7015,3.6303,3.6334,3.6111,3.5805,3.572,3.566,2.3988,2.419,2.419,2.419,2.419,2.3768,2.217,2.1803,0.0,0.0,1.9305,1.9305,1.9305,2.0519,2.1565,0.0,2.3548,2.5291,2.6447,2.7145,2.8191,0.0,3.0356,0.0,3.2467,3.2761,0.0,0.0,0.0,0.0,3.3807,3.3972,3.4357,3.4972,3.5367,3.6174,3.7477,3.7661,3.8065,3.8707,3.8707,3.8707,3.8707,3.8707,3.8707,3.8707,3.8707,0.0,0.0,4.0781,4.1589,4.2378,4.3185,4.3497,4.3497,4.3497,4.3497,4.3497,4.3497,4.3497,4.3497,4.3497,4.2885,4.2185,4.2185,4.2501,4.2864,4.2864,4.3178,4.3497,4.3497,4.3178,4.2732,4.2103,4.1213,4.0417,4.0286,4.0286,4.0254,4.0121,4.007,4.007,4.007,4.007,4.007,4.007,4.007,4.007,4.007,4.007,4.007,4.007,4.007,4.007,4.007,4.007,4.007,4.007,4.007,4.007,4.007,4.007,3.9817,3.9242,3.9032,3.8454,3.7535,3.7861,3.7786,3.7238,3.7155,3.6904,2.3988,2.419,2.419,2.419,2.419,2.3768,2.217,0.0,2.1325,1.9654,1.9305,1.9305,1.9305,2.0023,2.0886,2.1674,0.0,2.4025,2.6282,2.6667,2.7585,2.9916,0.0,0.0,3.2522,3.3256,0.0,0.0,0.0,0.0,3.3807,3.4504,3.4917,3.499,3.6486,3.7331,3.7507,3.8212,3.8634,3.8707,3.8707,3.8707,3.8707,3.8707,3.8707,3.8707,3.8707,0.0,0.0,4.0781,4.1589,4.2378,4.3185,4.3497,4.3497,4.3497,4.3497,4.3497,4.3497,4.3497,4.3497,4.3497,4.3444,4.3356,4.3356,4.3356,4.341,4.341,4.3444,4.3497,4.3497,4.3444,4.3286,4.2732,4.2121,4.149,4.0949,4.0827,4.0703,4.0204,4.007,4.007,4.007,4.007,4.007,4.007,4.007,4.007,4.007,4.007,4.007,4.007,4.007,4.007,4.007,4.007,4.007,4.007,4.007,4.007,4.007,4.007,4.0054,3.9986,3.9282,3.9196,3.9817,3.9143,3.8767,3.8701,3.8696,3.793,2.3841,2.419,2.419,2.419,2.419,2.3768,2.217,0.0,2.1325,1.9654,1.9305,1.9305,1.9305,1.9968,2.0794,0.0,2.2483,2.3676,2.5603,2.5878,2.6943,2.9861,3.0485,0.0,0.0,0.0,0.0,0.0,0.0,0.0,3.3807,3.4578,3.5477,3.6468,3.7147,3.7716,3.8212,3.8542,3.8707,3.8707,3.8707,3.8707,3.8707,3.8707,3.8707,3.8707,3.8707,0.0,0.0,4.0983,4.1864,4.3039,4.3369,4.3497,4.3497,4.3497,4.3497,4.3497,4.3497,4.3497,4.3497,4.3497,4.3497,4.3497,4.3497,4.3497,4.3497,4.3497,4.3497,4.3497,4.3497,4.325,4.2976,4.275,4.2244,4.1621,4.1041,4.0903,4.0733,4.0204,4.007,4.007,4.007,4.007,4.007,4.007,4.007,4.007,4.007,4.007,4.007,4.007,4.007,4.007,4.007,4.007,4.007,4.007,4.007,4.007,4.007,4.007,4.007,4.007,3.9782,3.9782,4.007,3.9782,3.961,3.961,3.9139,3.8342,2.3382,2.4025,2.419,2.419,2.4025,2.3492,0.0,2.1584,2.1015,1.9583,1.9305,1.9305,1.9305,1.9767,2.0519,0.0,2.2281,2.329,2.5146,2.5403,2.6431,0.0,0.0,3.0705,0.0,0.0,0.0,0.0,0.0,0.0,3.4523,3.5312,3.6174,3.711,3.7606,3.812,3.8689,3.8707,3.8707,3.8707,3.8707,3.8707,3.8707,3.8707,3.8707,3.8707,0.0,0.0,0.0,4.1368,4.2268,4.3497,4.3497,4.3497,4.3497,4.3497,4.3497,4.3497,4.3497,4.3497,4.3497,4.3497,4.3497,4.3497,4.3497,4.3497,4.3497,4.3497,4.3497,4.3497,4.3497,4.3214,4.2939,4.2939,4.2619,4.2085,4.1358,4.1178,4.0967,4.0254,4.007,4.007,4.007,4.007,4.007,4.007,4.007,4.007,4.007,4.007,4.007,4.007,4.007,4.007,4.007,4.007,4.007,4.007,4.007,4.007,4.007,4.007,4.007,4.007,4.007,4.007,4.007,4.007,4.007,4.007,3.9542,3.887,2.252,2.3602,2.419,2.419,2.3602,2.2813,2.1987,2.1125,2.0264,1.9473,1.9305,1.9305,1.9305,1.9323,1.9874,2.1527,2.1821,2.2648,2.5072,2.5403,2.6009,0.0,0.0,2.9659,0.0,0.0,0.0,0.0,0.0,0.0,3.6229,3.7037,3.711,3.634,3.7863,3.8689,3.8707,3.8707,3.8707,3.8707,3.8707,3.8707,3.8707,3.8707,3.8707,0.0,0.0,0.0,0.0,4.1974,4.2763,4.3497,4.3497,4.3497,4.3497,4.3497,4.3497,4.3497,4.3497,4.3497,4.3497,4.3497,4.3497,4.3497,4.3497,4.3497,4.3497,4.3497,4.3497,4.3497,4.3497,4.3497,4.3479,4.3479,4.3497,4.3178,4.2062,4.181,4.1464,4.0336,4.007,4.007,4.007,4.007,4.007,4.007,4.007,4.007,4.007,4.007,4.007,4.007,4.007,4.007,4.007,4.007,4.007,4.007,4.007,4.007,4.007,4.007,4.007,4.007,4.007,4.007,4.007,4.007,4.007,4.007,4.007,3.9662,2.1461,2.2228,2.2556,2.2556,2.2354,2.1951,2.1106,2.0686,2.0264,1.9473,1.9305,1.9305,1.9305,1.9305,1.9856,2.1527,2.1803,0.0,0.0,0.0,0.0,2.8374,3.0797,3.2625,0.0,0.0,0.0,0.0,0.0,0.0,3.5385,3.6211,3.7074,3.7918,3.8432,3.8707,3.8707,3.8707,3.8707,3.8707,3.8707,3.8707,3.8707,3.8707,0.0,0.0,0.0,0.0,0.0,4.1974,4.2763,4.3497,4.3497,4.3497,4.3497,4.3497,4.3497,4.3497,4.3497,4.3497,4.3497,4.3497,4.3497,4.3497,4.3497,4.3497,4.3497,4.3497,4.3497,4.3497,4.3497,4.3497,4.3497,4.3497,4.3497,4.3286,4.2559,4.208,4.1578,4.0797,4.0319,4.007,4.007,4.007,4.007,4.007,4.007,4.007,4.007,4.007,4.007,4.007,4.007,4.007,4.007,4.007,4.007,4.007,4.007,4.007,4.007,4.007,4.007,4.007,4.007,4.007,4.007,4.007,4.007,4.007,3.9558,3.9437,0.0,2.0914,2.1382,2.1729,2.1547,2.1161,2.0613,2.028,1.9882,1.9324,1.9261,1.9243,1.9064,1.9196,1.9714,2.0986,2.1549,0.0,0.0,0.0,0.0,2.8846,0.0,0.0,0.0,0.0,0.0,0.0,0.0,0.0,3.5596,3.637,3.7349,3.867,3.8707,3.8707,3.8707,3.8707,3.8707,3.8707,3.8707,3.8707,3.8707,3.8707,0.0,0.0,0.0,0.0,0.0,4.1974,4.2763,4.3497,4.3497,4.3497,4.3497,4.3497,4.3497,4.3497,4.3497,4.3497,4.3497,4.3497,4.3497,4.3497,4.3497,4.3497,4.3497,4.3497,4.3497,4.3497,4.3497,4.3497,4.3497,4.3497,4.3497,4.3375,4.2826,4.2382,4.1895,4.1041,4.0607,4.0421,4.0493,4.0257,4.0172,4.046,4.0257,4.007,4.007,4.0324,4.051,4.051,4.0747,4.0798,4.0527,4.024,4.007,4.007,4.007,4.007,4.007,4.007,4.007,4.007,4.007,4.007,4.007,4.007,4.007,4.007,3.961,3.961,0.0,1.951,2.0429,2.1253,2.0886,2.0319,2.0319,1.9803,0.0,1.9035,1.915,1.9166,1.875,1.9018,1.9522,2.0246,2.117,0.0,0.0,2.4576,0.0,0.0,3.1243,0.0,0.0,0.0,0.0,0.0,0.0,0.0,3.6677,3.7174,3.7849,3.8683,3.8707,3.8707,3.8707,3.8707,3.8707,3.8707,3.8707,3.8707,3.8707,3.8707,0.0,0.0,0.0,0.0,0.0,4.1974,4.2763,4.3497,4.3497,4.3497,4.3497,4.3497,4.3497,4.3497,4.3497,4.3497,4.3497,4.3497,4.3497,4.3497,4.3497,4.3497,4.3497,4.3497,4.3497,4.3497,4.3497,4.3497,4.3497,4.3497,4.3497,4.3356,4.2864,4.2786,4.2472,4.1338,4.1071,4.1129,4.1342,4.0747,4.0476,4.1187,4.0679,4.024,4.024,4.0849,4.1288,4.1288,4.188,4.2016,4.1339,4.0595,4.0138,4.007,4.007,4.007,4.007,4.007,4.007,4.007,4.007,4.007,4.007,4.007,4.007,4.007,4.007,4.007,1.5671,0.0,1.7807,1.799,1.8357,1.8665,0.0,1.8996,0.0,0.0,0.0,1.9146,1.9385,1.9237,1.9703,2.1653,0.0,0.0,2.3712,0.0,0.0,3.1299,0.0,0.0,0.0,0.0,0.0,0.0,0.0,3.5721,3.6945,3.6932,3.7551,3.8943,3.8803,3.8707,3.8707,3.8707,3.8707,3.8707,3.8707,3.8707,3.8707,3.8707,0.0,0.0,0.0,0.0,4.1167,4.1974,4.2763,4.3497,4.3497,4.3497,4.3497,4.3497,4.3497,4.3497,4.3497,4.3497,4.3497,4.3497,4.3497,4.3497,4.3497,4.3497,4.3497,4.3497,4.3497,4.3497,4.3497,4.3497,4.3497,4.3497,4.3497,4.3463,4.3339,4.3486,4.3538,4.3261,4.2969,4.2757,4.2817,4.2228,4.183,4.2016,4.188,4.1762,4.1762,4.1914,4.2033,4.2033,4.2185,4.2219,4.2049,4.1373,4.0696,4.0121,4.007,4.007,4.007,4.007,4.007,4.007,4.007,4.007,4.007,4.007,4.007,4.007,4.007,4.007,1.4379,1.5638,1.6866,1.7335,1.806,1.8647,1.8647,0.0,0.0,0.0,0.0,0.0,1.8833,0.0,0.0,0.0,2.1879,0.0,0.0,0.0,0.0,3.2724,0.0,0.0,0.0,0.0,0.0,0.0,0.0,3.5568,3.6671,3.6832,3.7405,3.8521,3.8776,3.8815,3.8707,3.8707,3.8707,3.8707,3.8707,3.8707,3.8707,3.8707,3.8707,0.0,0.0,0.0,4.1148,4.1589,4.2433,4.3497,4.3497,4.3497,4.3497,4.3497,4.3497,4.3497,4.3497,4.3497,4.3497,4.3497,4.3497,4.3497,4.3497,4.3497,4.3497,4.3497,4.3497,4.3497,4.3497,4.3497,4.3589,4.3956,4.4048,4.414,4.4507,4.473,4.474,4.4487,4.4023,4.3715,4.3791,4.2997,4.2405,4.276,4.2523,4.2286,4.2286,4.2591,4.2811,4.2811,4.3132,4.32,4.2844,4.2455,4.1762,4.0663,4.0595,4.0443,4.0087,4.007,4.007,4.007,4.007,4.007,4.007,4.007,4.007,4.007,4.007,4.007,1.4079,1.5452,1.6917,1.7577,1.8427,1.9106,1.9106,0.0,0.0,0.0,0.0,0.0,0.0,0.0,0.0,0.0,0.0,0.0,2.7923,3.0099,0.0,0.0,0.0,0.0,0.0,0.0,0.0,0.0,0.0,3.5501,3.6322,3.6881,3.7397,3.794,3.8768,3.9027,3.8707,3.8707,3.8707,3.8707,3.8707,3.8707,3.8707,3.8707,3.8707,0.0,0.0,0.0,4.113,4.124,4.2158,4.3497,4.3497,4.3497,4.3497,4.3497,4.3497,4.3497,4.3497,4.3497,4.3497,4.3497,4.3497,4.3497,4.3497,4.3497,4.3497,4.3497,4.3497,4.3516,4.3644,4.3681,4.3883,4.469,4.4892,4.5076,4.5755,4.5993,4.5956,4.5479,4.4982,4.4632,4.4684,4.3666,4.2988,4.3634,4.3085,4.2678,4.2785,4.3237,4.3589,4.3589,4.4181,4.4316,4.3656,4.3589,4.3014,4.1627,4.1441,4.1085,4.0443,4.0307,4.0257,4.0257,4.0138,4.007,4.007,4.007,4.0138,4.0257,4.0121,4.0206,1.5211,1.65,1.7225,1.6305,1.7197,1.828,0.0,0.0,0.0,0.0,0.0,0.0,0.0,0.0,0.0,0.0,0.0,0.0,0.0,0.0,0.0,0.0,0.0,0.0,0.0,0.0,0.0,0.0,0.0,0.0,3.6603,3.7141,3.7696,3.8225,3.9053,3.9249,3.8707,3.8707,3.8707,3.8707,3.8707,3.8707,3.8707,3.8707,3.8707,0.0,0.0,4.0249,4.1167,4.1827,4.2653,4.3497,4.3497,4.3497,4.3497,4.3497,4.3497,4.3497,4.3497,4.3497,4.3497,4.3497,4.3497,4.3497,4.3497,4.3497,4.3497,4.3497,4.3497,4.3644,4.4342,4.4525,4.4727,4.5516,4.5718,4.5755,4.5865,4.6452,4.6892,4.6798,4.6839,4.6721,4.6189,4.5503,4.5044,4.5165,4.4633,4.4402,4.4958,4.465,4.4401,4.4401,4.4502,4.4536,4.4418,4.4401,4.4028,4.3132,4.2489,4.2066,4.1948,4.1356,4.1035,4.1035,4.0409,4.007,4.007,4.007,4.0409,4.1018,4.0375,4.0747,1.4707,1.5944,1.6962,1.6986,1.8555,1.9987,0.0,0.0,0.0,0.0,0.0,0.0,0.0,0.0,0.0,0.0,0.0,0.0,0.0,0.0,0.0,0.0,0.0,0.0,0.0,0.0,0.0,0.0,0.0,0.0,0.0,0.0,3.7808,3.7867,3.9157,3.9552,3.8923,3.8923,3.8826,3.8707,3.8707,3.8707,3.8707,3.8707,3.8707,3.8744,0.0,4.0359,4.1167,4.1974,4.2763,4.3497,4.3497,4.3497,4.3497,4.3497,4.3497,4.3497,4.3497,4.3497,4.3497,4.3497,4.3497,4.3497,4.3497,4.3497,4.3589,4.403,4.4158,4.4232,4.4617,4.5021,4.5553,4.6361,4.6562,4.6673,4.7113,4.7498,4.7755,4.7755,4.7561,4.7299,4.6999,4.6383,4.5965,4.5965,4.5732,4.5563,4.5511,4.5545,4.5459,4.5142,4.5089,4.5089,4.5089,4.4759,4.4248,4.347,4.2709,4.2286,4.2286,4.1965,4.1779,4.1779,4.1068,4.0882,4.1271,4.0882,4.1068,4.1779,4.1441,4.1644,1.4734,1.5816,1.6976,0.0,0.0,0.0,0.0,0.0,0.0,0.0,0.0,0.0,0.0,0.0,0.0,0.0,0.0,0.0,0.0,0.0,0.0,0.0,0.0,0.0,0.0,0.0,0.0,0.0,0.0,0.0,0.0,0.0,3.7632,3.7489,3.8804,3.9378,3.9107,3.8894,3.8776,3.8707,3.8707,3.8707,3.8707,3.8707,3.8707,3.8762,3.9753,4.0524,4.1185,4.2176,4.2928,4.3497,4.3497,4.3497,4.3497,4.3497,4.3497,4.3497,4.3497,4.3497,4.3497,4.3497,4.3497,4.3497,4.3497,4.3626,4.3901,4.4544,4.4984,4.5278,4.5278,4.5718,4.6379,4.7205,4.7388,4.7572,4.8177,4.8306,4.8306,4.8306,4.7937,4.7572,4.7428,4.6955,4.6618,4.6618,4.6524,4.6288,4.5965,4.6192,4.624,4.5783,4.5681,4.5648,4.5494,4.4961,4.4333,4.3724,4.3149,4.2828,4.2828,4.2658,4.2557,4.2557,4.183,4.1728,4.2286,4.1728,4.1847,4.254,4.2371,4.2472,1.6569,1.7429,1.788,0.0,0.0,0.0,0.0,0.0,0.0,0.0,0.0,0.0,0.0,0.0,0.0,0.0,0.0,0.0,0.0,0.0,0.0,0.0,0.0,0.0,0.0,0.0,0.0,0.0,0.0,0.0,0.0,0.0,0.0,3.7489,3.7678,3.8205,3.9107,3.8353,3.822,3.8707,3.8707,3.8707,3.8707,3.8707,3.8707,3.8799,4.0341,4.1056,4.124,4.2763,4.3442,4.3497,4.3497,4.3497,4.3497,4.3497,4.3497,4.3497,4.3497,4.3497,4.3497,4.3497,4.3497,4.3497,4.3497,4.4011,4.4635,4.469,4.5792,4.691,4.691,4.6985,4.7241,4.8031,4.8214,4.8233,4.8306,4.8306,4.8306,4.8306,4.8267,4.8075,4.7488,4.7342,4.7342,4.7342,4.6801,4.6618,4.7194,4.6756,4.6383,4.6336,4.6336,4.6112,4.5545,4.4961,4.4553,4.4502,4.4451,4.4418,4.4418,4.3724,4.3335,4.3335,4.2591,4.2236,4.2286,4.2236,4.2608,4.3318,4.2625,4.3047,1.593,1.7062,1.8016,0.0,0.0,0.0,0.0,0.0,0.0,0.0,0.0,0.0,0.0,0.0,0.0,0.0,0.0,0.0,0.0,0.0,0.0,0.0,0.0,0.0,0.0,0.0,0.0,0.0,0.0,0.0,0.0,0.0,0.0,3.7003,3.7385,3.8023,3.8896,3.8246,3.8263,3.8933,3.8773,3.8707,3.8707,3.8707,3.8707,3.8799,4.0414,4.1111,4.124,4.2837,4.3497,4.3497,4.3497,4.3497,4.3497,4.3497,4.3497,4.3497,4.3497,4.3497,4.3497,4.3497,4.3497,4.3497,4.3497,4.4066,4.48,4.5314,4.625,4.7113,4.7113,4.748,4.7921,4.8233,4.8306,4.8306,4.8306,4.8306,4.8306,4.8306,4.8306,4.821,4.7995,4.7937,4.7937,4.7937,4.7738,4.7554,4.7428,4.7512,4.7428,4.7044,4.6664,4.6143,4.5545,4.4961,4.4587,4.4587,4.4587,4.4587,4.4587,4.4299,4.4147,4.4147,4.3386,4.3234,4.3707,4.3234,4.3386,4.413,4.3842,4.4028,1.5832,1.6968,1.8128,0.0,0.0,0.0,0.0,0.0,0.0,0.0,0.0,0.0,0.0,0.0,0.0,0.0,0.0,0.0,0.0,0.0,0.0,0.0,0.0,0.0,0.0,0.0,0.0,0.0,0.0,0.0,0.0,0.0,0.0,0.0,3.6769,3.7317,3.8385,3.7817,3.7925,3.8726,3.8704,3.8707,3.8707,3.8707,3.8707,3.8799,4.0414,4.1111,4.124,4.2837,4.3497,4.3497,4.3497,4.3497,4.3497,4.3497,4.3497,4.3497,4.3497,4.3497,4.3497,4.3497,4.3497,4.3497,4.3497,4.4232,4.5186,4.5755,4.6673,4.7498,4.7498,4.7902,4.8306,4.8306,4.8306,4.8306,4.8306,4.8306,4.8306,4.8306,4.8306,4.8306,4.8306,4.8306,4.8306,4.8306,4.8306,4.8172,4.7756,4.8035,4.8132,4.7715,4.6892,4.624,4.5833,4.5052,4.4587,4.4587,4.4587,4.4587,4.4587,4.4587,4.4587,4.4587,4.4062,4.4045,4.4587,4.4045,4.4062,4.4587,4.4587,4.4587,1.667,1.7477,0.0,0.0,0.0,0.0,0.0,0.0,0.0,0.0,0.0,0.0,0.0,0.0,0.0,0.0,0.0,0.0,0.0,0.0,0.0,0.0,0.0,0.0,0.0,0.0,0.0,0.0,0.0,0.0,0.0,0.0,0.0,0.0,3.5659,3.5886,3.747,3.6948,3.7117,3.791,3.8446,3.8707,3.8707,3.8707,3.8707,3.8799,4.0396,4.1111,4.124,4.2837,4.3497,4.3497,4.3497,4.3497,4.3497,4.3497,4.3497,4.3497,4.3497,4.3497,4.3497,4.3497,4.3497,4.3497,4.3497,4.4617,4.5902,4.5902,4.7058,4.8306,4.8306,4.8306,4.8306,4.8306,4.8306,4.8306,4.8306,4.8306,4.8306,4.8306,4.8306,4.8306,4.8306,4.8306,4.8306,4.8306,4.8306,4.8306,4.8306,4.8306,4.8306,4.8306,4.7176,4.6383,4.6383,4.5267,4.4587,4.4587,4.4587,4.4587,4.4587,4.4587,4.4587,4.4587,4.4587,4.4587,4.4587,4.4587,4.4587,4.4587,4.4587,4.4587,1.5839,1.7069,0.0,0.0,0.0,0.0,0.0,0.0,0.0,0.0,0.0,0.0,0.0,0.0,0.0,0.0,0.0,0.0,0.0,0.0,0.0,0.0,0.0,0.0,0.0,0.0,0.0,0.0,0.0,0.0,0.0,0.0,0.0,0.0,3.5372,3.56,3.6649,3.6686,3.7098,3.7925,3.8427,3.8707,3.8707,3.8707,3.8707,3.8762,3.9808,4.0579,4.124,4.2837,4.3497,4.3497,4.3497,4.3497,4.3497,4.3497,4.3497,4.3497,4.3497,4.3497,4.3497,4.3497,4.3497,4.3608,4.4176,4.5076,4.6012,4.6599,4.7517,4.8306,4.8306,4.8306,4.8306,4.8306,4.8306,4.8306,4.8306,4.8306,4.8306,4.8306,4.8306,4.8306,4.8306,4.8306,4.8306,4.8306,4.8306,4.8306,4.8306,4.8306,4.8132,4.7715,4.691,4.624,4.5783,4.5052,4.4587,4.4587,4.4587,4.4587,4.4587,4.4587,4.4587,4.4587,4.4587,4.4587,4.4587,4.4587,4.4587,4.4587,4.4587,4.4587,1.6353,0.0,0.0,0.0,0.0,0.0,0.0,0.0,0.0,0.0,0.0,0.0,0.0,0.0,0.0,0.0,0.0,0.0,0.0,0.0,0.0,0.0,0.0,0.0,0.0,0.0,0.0,0.0,0.0,0.0,0.0,0.0,0.0,0.0,3.5335,3.5503,3.5982,3.6241,3.6793,3.7598,3.8034,3.8395,3.8707,3.8707,3.8707,3.8762,3.9882,4.0836,4.168,4.2965,4.3497,4.3497,4.3497,4.3497,4.3497,4.3497,4.3497,4.3497,4.3497,4.3497,4.3497,4.3497,4.3497,4.3644,4.447,4.5259,4.6067,4.6893,4.77,4.8306,4.8306,4.8306,4.8306,4.8306,4.8306,4.8306,4.8306,4.8306,4.8306,4.8306,4.8306,4.8306,4.8306,4.8306,4.8306,4.8306,4.8306,4.8306,4.8306,4.8306,4.8075,4.747,4.6801,4.6143,4.5545,4.4961,4.4587,4.4587,4.4587,4.4587,4.4587,4.4587,4.4587,4.4587,4.4587,4.4587,4.4587,4.4587,4.4587,4.4587,4.4587,4.4587,0.0,0.0,0.0,0.0,0.0,0.0,0.0,0.0,0.0,0.0,0.0,0.0,0.0,0.0,0.0,0.0,0.0,0.0,0.0,0.0,0.0,0.0,0.0,0.0,0.0,0.0,0.0,0.0,0.0,0.0,0.0,0.0,0.0,3.5493,3.5493,3.5493,3.546,3.5761,3.6255,0.0,3.7313,3.7863,3.8597,3.867,3.8707,3.8799,4.0322,4.146,4.2249,4.3057,4.3424,4.3497,4.3497,4.3497,4.3497,4.3497,4.3497,4.3497,4.3497,4.3497,4.3497,4.3497,4.3497,4.3644,4.4544,4.5333,4.6085,4.6966,4.7755,4.8306,4.8306,4.8306,4.8306,4.8306,4.8306,4.8306,4.8306,4.8306,4.8306,4.8306,4.8306,4.8306,4.8306,4.8306,4.8306,4.8306,4.8379,4.8416,4.8416,4.8489,4.8294,4.7687,4.7033,4.6354,4.5754,4.5149,4.4829,4.4885,4.4761,4.4727,4.4766,4.466,4.4587,4.4587,4.4587,4.4587,4.4587,4.4587,4.4587,4.4587,4.4587,4.4587,0.0,0.0,0.0,0.0,0.0,0.0,0.0,0.0,0.0,0.0,0.0,0.0,0.0,0.0,0.0,0.0,0.0,0.0,0.0,0.0,0.0,0.0,0.0,0.0,0.0,0.0,0.0,0.0,0.0,0.0,0.0,0.0,0.0,3.5493,3.5493,3.5398,3.519,3.5646,3.5885,0.0,3.6971,3.7569,3.7771,3.8414,3.8707,3.8762,3.9735,4.0616,4.1423,4.2231,4.2928,4.3497,4.3497,4.3497,4.3497,4.3497,4.3497,4.3497,4.3497,4.3497,4.3497,4.3497,4.3497,4.3754,4.5204,4.5755,4.6195,4.7645,4.8177,4.8306,4.8306,4.8306,4.8306,4.8306,4.8306,4.8306,4.8306,4.8306,4.8306,4.8306,4.8306,4.8306,4.8306,4.8306,4.8306,4.8306,4.8875,4.9315,4.9315,4.9866,5.0012,4.9332,4.8704,4.8023,4.7385,4.6703,4.6567,4.7096,4.6062,4.5699,4.6253,4.5158,4.4587,4.4587,4.4587,4.4587,4.4587,4.4587,4.4587,4.4587,4.4587,4.4587,0.0,0.0,0.0,0.0,0.0,0.0,0.0,0.0,0.0,0.0,0.0,0.0,0.0,0.0,0.0,0.0,0.0,0.0,0.0,0.0,0.0,0.0,0.0,0.0,0.0,0.0,0.0,0.0,0.0,0.0,0.0,3.5493,3.5493,3.5493,3.5493,3.5432,3.5289,3.5306,3.5459,3.5698,3.6112,3.6707,3.7544,3.8322,3.8707,3.8744,3.9551,4.0359,4.1167,4.1974,4.2763,4.3497,4.3497,4.3497,4.3497,4.3497,4.3497,4.3497,4.3497,4.3497,4.3497,4.3497,4.3497,4.3791,4.5406,4.5902,4.6232,4.7847,4.8306,4.8306,4.8306,4.8306,4.8306,4.8306,4.8306,4.8306,4.8306,4.8306,4.8306,4.8306,4.8306,4.8306,4.8306,4.8655,4.8783,4.8361,4.915,4.9866,5.0141,5.0545,5.0735,5.0684,5.0361,4.965,4.8449,4.7979,4.7925,4.8329,4.7613,4.7089,4.6725,4.6025,4.5265,4.4643,4.4587,4.4587,4.4587,4.4587,4.4587,4.4587,4.4587,4.4587,0.0,0.0,0.0,0.0,0.0,0.0,0.0,0.0,0.0,0.0,0.0,0.0,0.0,0.0,0.0,0.0,0.0,0.0,0.0,0.0,0.0,0.0,0.0,0.0,0.0,0.0,0.0,0.0,0.0,0.0,3.5493,3.5493,3.5493,3.5493,3.5465,3.5446,3.5493,3.4907,3.4971,3.5692,3.521,3.5881,3.7514,3.8193,3.8579,3.8744,3.9405,4.0157,4.0965,4.1772,4.2561,4.3296,4.3442,4.3497,4.3497,4.3497,4.3497,4.3497,4.3497,4.3497,4.3497,4.3497,4.3497,4.3791,4.5406,4.5902,4.6232,4.7847,4.8306,4.8306,4.8306,4.8306,4.8306,4.8306,4.8306,4.8306,4.8306,4.8306,4.8306,4.8306,4.8416,4.8581,4.871,4.9242,4.9407,4.871,4.9481,5.0306,5.0747,5.1041,5.1389,5.183,5.1885,5.1231,4.9572,4.9341,4.9341,4.9439,4.9199,4.8579,4.7472,4.7091,4.6268,4.4963,4.4749,4.4587,4.4587,4.4587,4.4587,4.4587,4.4587,4.4587,0.0,0.0,0.0,0.0,0.0,0.0,0.0,0.0,0.0,0.0,0.0,0.0,0.0,0.0,0.0,0.0,0.0,0.0,0.0,0.0,0.0,0.0,0.0,0.0,0.0,0.0,0.0,0.0,0.0,0.0,3.5493,3.5493,3.5493,3.5493,3.5273,3.5254,3.5493,3.4678,3.4458,3.4864,3.4969,3.5881,3.7507,3.7606,3.8028,3.8707,3.8817,3.9313,4.012,4.0946,4.1735,4.2525,4.3222,4.3497,4.3497,4.3497,4.3497,4.3497,4.3497,4.3497,4.3497,4.3497,4.3497,4.3791,4.5406,4.5902,4.6232,4.7847,4.8306,4.8306,4.8306,4.8306,4.8306,4.8306,4.8306,4.8306,4.8306,4.8306,4.8306,4.8306,4.8912,4.9646,5.0343,5.0178,4.9903,4.9793,5.0306,5.0729,5.0802,5.2032,5.2913,5.2986,5.3004,5.2638,5.1759,5.1141,5.1022,5.1646,5.0517,5.004,5.0412,4.8659,4.7244,4.6446,4.5231,4.4587,4.4587,4.4587,4.4587,4.4587,4.4587,4.4587,0.0,0.0,0.0,0.0,0.0,0.0,0.0,0.0,0.0,0.0,0.0,0.0,0.0,0.0,0.0,0.0,0.0,0.0,0.0,0.0,0.0,0.0,0.0,0.0,0.0,0.0,0.0,0.0,0.0,3.4045,3.4045,3.4507,3.4776,3.4776,3.499,3.5223,3.5493,3.4637,3.4195,3.4184,3.475,3.5642,3.6835,3.7276,3.7936,3.8707,3.8707,3.9166,3.9955,4.0781,4.1589,4.2378,4.3185,4.3497,4.3497,4.3497,4.3497,4.3497,4.3497,4.3497,4.3497,4.3497,4.3497,4.3791,4.5406,4.5902,4.6232,4.7847,4.8306,4.8306,4.8306,4.8306,4.8306,4.8306,4.8306,4.8306,4.8306,4.8306,4.8434,4.893,4.9701,5.0288,5.0343,5.0655,5.049,4.9242,5.082,5.2142,5.2142,5.2766,5.3206,5.3206,5.3206,5.306,5.2769,5.2463,5.2399,5.2725,5.2137,5.1565,5.1031,4.9749,4.8505,4.7332,4.5913,4.4993,4.4587,4.4587,4.4587,4.4587,4.4587,4.4587,0.0,0.0,0.0,0.0,0.0,0.0,0.0,0.0,0.0,0.0,0.0,0.0,0.0,0.0,0.0,0.0,0.0,0.0,0.0,0.0,0.0,0.0,0.0,0.0,0.0,0.0,0.0,0.0,0.0,3.2891,3.2891,3.3526,3.3968,3.418,3.4486,3.4893,3.5383,3.4597,3.4068,3.3807,3.4412,3.5275,3.6321,3.6909,3.7734,3.8707,3.8707,3.9038,3.9662,4.0689,4.146,4.2103,4.3112,4.3497,4.3497,4.3497,4.3497,4.3497,4.3497,4.3497,4.3497,4.3497,4.3497,4.3791,4.5406,4.5902,4.6232,4.7847,4.8306,4.8306,4.8306,4.8306,4.8306,4.8306,4.8306,4.8361,4.8581,4.8636,4.893,4.9994,5.0692,5.1041,5.0857,5.1481,5.1463,4.9793,5.1646,5.3206,5.3206,5.3206,5.3206,5.3206,5.3206,5.3206,5.3206,5.3206,5.3206,5.3206,5.3206,5.2724,5.1619,5.0753,4.966,4.8381,4.6982,4.5805,4.4874,4.4671,4.4587,4.4587,4.4773,4.4874,0.0,0.0,0.0,0.0,0.0,0.0,0.0,0.0,0.0,0.0,0.0,0.0,0.0,0.0,0.0,0.0,0.0,0.0,0.0,0.0,0.0,0.0,0.0,0.0,0.0,0.0,0.0,0.0,0.0,3.2891,3.2891,3.2949,3.3353,3.416,3.3745,3.3999,3.5122,3.4513,3.4068,3.3807,3.3844,3.4724,3.6303,3.634,3.7221,3.8707,3.8707,3.8726,3.8891,4.0469,4.113,4.1332,4.2892,4.3497,4.3497,4.3497,4.3497,4.3497,4.3497,4.3497,4.3497,4.3497,4.3497,4.3791,4.5406,4.5902,4.6232,4.7847,4.8306,4.8306,4.8306,4.8306,4.8306,4.8306,4.8306,4.8526,4.9334,4.9517,4.9976,5.1555,5.1903,5.216,5.2913,5.3096,5.3096,5.2968,5.3096,5.3206,5.3206,5.3206,5.3206,5.3206,5.3206,5.3206,5.3206,5.3206,5.3206,5.3206,5.3206,5.3146,5.3091,5.1772,5.0679,4.99,4.8478,4.709,4.5652,4.4925,4.4587,4.4604,4.5314,4.5652,0.0,0.0,0.0,0.0,0.0,0.0,0.0,0.0,0.0,0.0,0.0,0.0,0.0,0.0,0.0,0.0,0.0,0.0,0.0,0.0,0.0,0.0,0.0,0.0,0.0,0.0,0.0,0.0,0.0,0.0,3.1295,3.1833,3.2186,3.2326,3.3032,3.3684,3.4242,3.4218,3.4068,3.3807,3.3807,3.4688,3.6303,3.6303,3.7184,3.8707,3.8707,3.8707,3.8836,4.0451,4.1111,4.1277,4.2873,4.3497,4.3497,4.3497,4.3497,4.3497,4.3497,4.3497,4.3497,4.3497,4.3846,4.447,4.5571,4.6269,4.6911,4.7994,4.8306,4.8306,4.8306,4.8306,4.8434,4.8948,4.9224,4.9701,5.0875,5.1132,5.1298,5.1885,5.2417,5.2858,5.317,5.3206,5.3206,5.3206,5.3206,5.3206,5.3206,5.3206,5.3206,5.3206,5.3206,5.3206,5.3206,5.3206,5.3206,5.3206,5.3206,5.3206,5.3206,5.2242,5.1419,5.0748,4.926,4.7854,4.6397,4.6126,4.5991,4.6007,4.6278,4.6413,1.2021,0.0,0.0,0.0,0.0,0.0,0.0,0.0,0.0,0.0,0.0,0.0,0.0,0.0,0.0,0.0,0.0,0.0,0.0,0.0,0.0,0.0,0.0,0.0,0.0,0.0,0.0,0.0,0.0,0.0,3.0398,3.0948,3.1218,3.1178,3.2524,3.3314,3.3403,3.3839,3.3986,3.3807,3.3807,3.4523,3.5881,3.6174,3.7019,3.8303,3.8579,3.8707,3.8836,4.0451,4.1111,4.1277,4.2873,4.3497,4.3497,4.3497,4.3497,4.3497,4.3497,4.3497,4.3497,4.3497,4.4048,4.4856,4.5663,4.6471,4.7297,4.8086,4.8306,4.8306,4.8306,4.8306,4.8508,4.9334,4.9903,5.0582,5.1738,5.1995,5.2068,5.2344,5.2839,5.3206,5.3206,5.3206,5.3206,5.3206,5.3206,5.3206,5.3206,5.3206,5.3206,5.3206,5.3206,5.3206,5.3206,5.3206,5.3206,5.3206,5.3206,5.3206,5.3206,5.249,5.1904,5.1444,5.026,4.9084,4.7875,4.7123,4.6786,4.6802,4.7056,4.7293,0.0,0.0,0.0,0.0,0.0,0.0,0.0,0.0,0.0,0.0,0.0,0.0,0.0,0.0,0.0,0.0,0.0,0.0,0.0,0.0,0.0,0.0,0.0,0.0,0.0,0.0,0.0,0.0,0.0,3.0398,3.0398,3.0398,3.0538,3.0884,3.2224,3.2808,3.2614,3.3366,3.377,3.3807,3.3807,3.4229,3.5027,3.5899,3.6725,3.7533,3.834,3.8707,3.8836,4.0414,4.1093,4.1277,4.2837,4.3461,4.3497,4.3497,4.3497,4.3497,4.3497,4.3497,4.3497,4.3497,4.4048,4.4856,4.5663,4.6471,4.7297,4.8086,4.8306,4.8306,4.8306,4.8306,4.8526,4.9407,5.0215,5.1041,5.1848,5.2032,5.227,5.3059,5.3206,5.3206,5.3206,5.3206,5.3206,5.3206,5.3206,5.3206,5.3206,5.3206,5.3206,5.3206,5.3206,5.3206,5.3206,5.3206,5.3206,5.3206,5.3206,5.3206,5.3206,5.249,5.2112,5.2112,5.1444,5.077,5.0016,4.7909,4.6853,4.687,4.7614,4.8342,1.204,0.0,0.0,0.0,0.0,0.0,0.0,0.0,0.0,0.0,0.0,0.0,0.0,0.0,0.0,0.0,0.0,0.0,0.0,0.0,0.0,0.0,0.0,0.0,0.0,0.0,0.0,0.0,3.0398,3.0398,3.0398,3.0085,3.0126,3.0671,3.0857,3.1501,3.2596,3.2834,3.322,3.3807,3.3807,3.4229,3.5027,3.5899,3.6725,3.7533,3.834,3.8707,3.8781,3.9808,4.0579,4.1203,4.2231,4.2983,4.3497,4.3497,4.3497,4.3497,4.3497,4.3497,4.3497,4.3497,4.4048,4.4856,4.5663,4.6471,4.7297,4.8086,4.8306,4.8306,4.8306,4.8306,4.8673,5.0123,5.0637,5.1187,5.2582,5.2876,5.2931,5.317,5.3206,5.3206,5.3206,5.3206,5.3206,5.3206,5.3206,5.3206,5.3206,5.3206,5.3206,5.3206,5.3206,5.3206,5.3206,5.3206,5.3206,5.3206,5.3206,5.3206,5.3206,5.2999,5.2662,5.2112,5.1904,5.1494,5.077,4.9656,4.8846,4.8392,4.8612,4.8815,0.0,0.0,0.0,0.0,0.0,0.0,0.0,1.9271,0.0,0.0,0.0,0.0,0.0,0.0,0.0,0.0,0.0,0.0,0.0,0.0,0.0,0.0,0.0,0.0,0.0,0.0,0.0,3.0398,3.0398,3.0355,3.0241,2.9896,2.9814,3.0102,3.0171,3.0815,3.21,3.243,3.2999,3.3788,3.391,3.4142,3.4541,3.5855,3.6666,3.7055,3.8193,3.8707,3.8744,3.9203,4.0084,4.1185,4.1992,4.2782,4.3497,4.3497,4.3497,4.3497,4.3497,4.3497,4.3497,4.3497,4.4048,4.4856,4.5663,4.6471,4.7297,4.8086,4.8306,4.8306,4.8306,4.8306,4.8636,4.9976,5.0563,5.1151,5.2417,5.2968,5.3206,5.3206,5.3206,5.3206,5.3206,5.3206,5.3206,5.3206,5.3206,5.3206,5.3206,5.3206,5.3206,5.3206,5.3206,5.3206,5.3206,5.3206,5.3206,5.3206,5.3206,5.3206,5.3206,5.3206,5.2999,5.2554,5.2554,5.2242,5.1494,5.0805,5.0241,4.9896,4.958,4.9563,0.0,0.0,0.0,0.0,0.0,0.0,1.9347,1.8926,1.8831,0.0,0.0,0.0,0.0,0.0,0.0,0.0,0.0,0.0,0.0,0.0,0.0,0.0,0.0,0.0,0.0,2.9713,3.0232,3.0232,3.0297,3.0241,2.9984,2.9782,2.957,2.9372,2.9816,3.0503,3.1384,3.2118,3.2926,3.3788,3.4043,3.4018,3.3844,3.5692,3.6416,3.6376,3.7918,3.8615,3.8707,3.8707,3.9662,4.1185,4.1901,4.2708,4.3497,4.3497,4.3497,4.3497,4.3497,4.3497,4.3497,4.3497,4.3975,4.4727,4.5626,4.6416,4.7168,4.8049,4.8306,4.8306,4.8306,4.8306,4.8526,4.937,5.0196,5.1022,5.183,5.2637,5.3206,5.3206,5.3206,5.3206,5.3206,5.3206,5.3206,5.3206,5.3206,5.3206,5.3206,5.3206,5.3206,5.3206,5.3206,5.3206,5.3206,5.3206,5.3206,5.3206,5.3206,5.3206,5.3206,5.3206,5.3206,5.3206,5.3206,5.2893,5.2224,5.1444,5.1086,5.1086,5.0462,5.0445,0.0,0.0,0.0,0.0,0.0,0.0,1.6793,1.689,1.7495,0.0,0.0,0.0,0.0,0.0,0.0,0.0,0.0,0.0,0.0,0.0,0.0,0.0,0.0,0.0,0.0,2.8626,2.9104,2.9104,2.9707,2.9969,2.9763,2.957,2.9332,2.9089,2.9187,2.9934,3.1384,3.1549,3.2357,3.3807,3.3868,3.3868,3.3825,3.4853,3.568,3.634,3.7312,3.8102,3.8707,3.8707,3.9662,4.113,4.1277,4.2213,4.3497,4.3497,4.3497,4.3497,4.3497,4.3497,4.3497,4.3497,4.3608,4.4011,4.5461,4.6012,4.6434,4.7902,4.8306,4.8306,4.8306,4.8306,4.8526,4.937,5.0196,5.1022,5.183,5.2637,5.3206,5.3206,5.3206,5.3206,5.3206,5.3206,5.3206,5.3206,5.3206,5.3206,5.3206,5.3206,5.3206,5.3206,5.3206,5.3206,5.3206,5.3206,5.3206,5.3206,5.3206,5.3206,5.3206,5.3206,5.3206,5.3206,5.3206,5.3103,5.2999,5.1728,5.1086,5.1086,5.0929,5.0981,0.0,0.0,0.0,1.7749,0.0,0.0,0.0,1.7197,1.7477,1.9528,0.0,0.0,0.0,0.0,0.0,0.0,0.0,0.0,0.0,0.0,0.0,0.0,0.0,0.0,0.0,2.7714,2.8335,2.8635,2.9402,2.9763,2.9551,2.9533,2.9375,2.9017,2.9134,2.9908,3.1384,3.1384,3.221,3.3788,3.3954,3.391,3.3825,3.4821,3.5625,3.634,3.7129,3.7955,3.8707,3.8707,3.9662,4.1111,4.1111,4.2084,4.3497,4.3497,4.3497,4.3497,4.3497,4.3497,4.3497,4.3497,4.3497,4.3791,4.5406,4.6452,4.7278,4.8067,4.8306,4.8306,4.8306,4.8306,4.8416,4.8838,4.9591,5.0417,5.1224,5.2362,5.3206,5.3206,5.3206,5.3206,5.3206,5.3206,5.3206,5.3206,5.3206,5.3206,5.3206,5.3206,5.3206,5.3206,5.3206,5.3206,5.3206,5.3206,5.3206,5.3206,5.3206,5.3206,5.3206,5.3206,5.3206,5.3206,5.3206,5.3206,5.3206,5.2463,5.2149,5.2149,5.1759,5.1825,0.0,0.0,0.0,0.0,0.0,1.8853,0.0,0.0,0.0,2.0372,0.0,0.0,0.0,0.0,0.0,0.0,0.0,0.0,0.0,0.0,0.0,0.0,0.0,0.0,0.0,2.6605,2.7352,2.8215,2.8812,2.9176,2.9212,2.9476,2.9494,2.916,2.931,3.0068,3.1464,3.1434,3.221,3.3788,3.4018,3.3993,3.3825,3.474,3.5584,3.634,3.6982,3.7808,3.8707,3.8707,3.9662,4.1111,4.1111,4.2084,4.3497,4.3497,4.3497,4.3497,4.3497,4.3497,4.3497,4.3497,4.3699,4.4195,4.5498,4.7021,4.8306,4.8306,4.8306,4.8306,4.8306,4.8306,4.8306,4.8306,4.8967,4.9811,5.0637,5.194,5.3023,5.3188,5.3206,5.3206,5.3206,5.3206,5.3206,5.3206,5.3206,5.3206,5.3206,5.3206,5.3206,5.3206,5.3206,5.3206,5.3206,5.3206,5.3206,5.3206,5.3206,5.3206,5.3206,5.3206,5.3206,5.3206,5.3206,5.3206,5.3206,5.3206,5.3206,5.3164,5.2599,5.2617,0.0,0.0,0.0,0.0,2.0593,0.0,0.0,0.0,1.872,1.766,0.0,0.0,0.0,0.0,0.0,0.0,0.0,0.0,0.0,0.0,0.0,0.0,0.0,0.0,0.0,0.0,2.5568,2.7308,2.73,2.7622,2.8546,2.912,2.9494,2.9625,2.9474,3.0174,3.1749,3.1513,3.221,3.3807,3.3842,3.3815,3.3807,3.3934,3.4853,3.6303,3.6395,3.7294,3.8707,3.8707,3.9662,4.1111,4.1111,4.2084,4.3497,4.3497,4.3497,4.3497,4.3497,4.3497,4.3497,4.3497,4.4452,4.5663,4.5847,4.7021,4.8306,4.8306,4.8306,4.8306,4.8306,4.8306,4.8306,4.8306,4.8967,4.9811,5.0637,5.1499,5.2344,5.3078,5.3206,5.3206,5.3206,5.3206,5.3206,5.3206,5.3206,5.3206,5.3206,5.3206,5.3206,5.3206,5.3206,5.3206,5.3206,5.3206,5.3206,5.3206,5.3206,5.3206,5.3206,5.3206,5.3206,5.3206,5.3206,5.3206,5.3206,5.3206,5.3206,5.3206,5.3103,5.3103,0.0,0.0,0.0,0.0,0.0,0.0,1.9481,0.0,1.8684,0.0,0.0,0.0,0.0,0.0,0.0,0.0,0.0,0.0,0.0,0.0,0.0,0.0,0.0,0.0,0.0,0.0,0.0,0.0,0.0,2.6693,2.8183,2.8651,2.9136,2.9677,2.9731,3.0415,3.1793,3.17,3.2348,3.3807,3.3807,3.3807,3.3825,3.4284,3.5165,3.6321,3.678,3.7643,3.8707,3.8707,3.9662,4.1111,4.1111,4.2084,4.3497,4.3497,4.3497,4.3497,4.3497,4.3497,4.3497,4.3497,4.4268,4.5296,4.5755,4.6709,4.7719,4.8177,4.8306,4.8306,4.8306,4.8306,4.8306,4.8306,4.8581,4.9205,5.0527,5.1077,5.1683,5.2968,5.3206,5.3206,5.3206,5.3206,5.3206,5.3206,5.3206,5.3206,5.3206,5.3206,5.3206,5.3206,5.3206,5.3206,5.3206,5.3206,5.3206,5.3206,5.3206,5.3206,5.3206,5.3206,5.3206,5.3206,5.3206,5.3206,5.3206,5.3206,5.3206,5.3206,5.3206,5.3206,2.3658,0.0,0.0,0.0,0.0,0.0,0.0,0.0,0.0,0.0,0.0,0.0,0.0,0.0,0.0,0.0,0.0,0.0,0.0,0.0,0.0,0.0,0.0,0.0,0.0,0.0,0.0,0.0,0.0,0.0,2.7661,2.8216,2.8896,2.9761,2.9877,3.0557,3.1864,3.1749,3.2445,3.3902,3.3842,3.3842,3.3921,3.466,3.5495,3.634,3.7129,3.7955,3.8707,3.8707,3.9662,4.1111,4.1111,4.2084,4.3497,4.3497,4.3497,4.3497,4.3497,4.3497,4.3497,4.3497,4.4048,4.4856,4.5663,4.6471,4.7297,4.8086,4.8306,4.8306,4.8306,4.8306,4.8306,4.8306,4.8306,4.8765,5.0435,5.0802,5.1279,5.2894,5.3206,5.3206,5.3206,5.3206,5.3206,5.3206,5.3206,5.3206,5.3206,5.3206,5.3206,5.3206,5.3206,5.3206,5.3206,5.3206,5.3206,5.3206,5.3206,5.3206,5.3206,5.3206,5.3206,5.3206,5.3206,5.3206,5.3206,5.3206,5.3206,5.3206,5.3206,5.3206,0.0,0.0,0.0,2.3031,0.0,0.0,0.0,0.0,2.0678,0.0,0.0,0.0,0.0,0.0,0.0,0.0,0.0,0.0,0.0,0.0,0.0,0.0,0.0,0.0,0.0,0.0,0.0,0.0,0.0,0.0,2.6804,2.7932,2.896,2.9946,2.9813,3.0488,3.2071,3.164,3.2348,3.4176,3.391,3.3954,3.4213,3.475,3.5495,3.634,3.7129,3.7955,3.8707,3.8707,3.9662,4.1111,4.1111,4.2084,4.3497,4.3497,4.3497,4.3497,4.3497,4.3497,4.3497,4.3497,4.4048,4.4856,4.5663,4.6471,4.7297,4.8086,4.8306,4.8306,4.8306,4.8306,4.8306,4.8306,4.8306,4.8765,5.0435,5.0802,5.1279,5.2894,5.3206,5.3206,5.3206,5.3206,5.3206,5.3206,5.3206,5.3206,5.3206,5.3206,5.3206,5.3206,5.3206,5.3206,5.3206,5.3206,5.3206,5.3206,5.3206,5.3206,5.3206,5.3206,5.3206,5.3206,5.3206,5.3206,5.3206,5.3206,5.3206,5.3206,5.3206,5.3206,0.0,0.0,2.5034,2.389,0.0,0.0,0.0,0.0,0.0,0.0,0.0,0.0,0.0,0.0,0.0,0.0,0.0,0.0,0.0,0.0,0.0,0.0,0.0,0.0,0.0,0.0,0.0,0.0,0.0,0.0,0.0,2.7037,2.7932,2.8976,2.9446,3.0415,3.1885,3.1749,3.2521,3.42,3.3928,3.3935,3.4232,3.5366,3.6028,3.6376,3.7716,3.845,3.8744,3.9276,4.0139,4.1167,4.1699,4.2543,4.3497,4.3497,4.3497,4.3497,4.3497,4.3497,4.3497,4.3497,4.3681,4.4158,4.548,4.6085,4.6581,4.7921,4.8306,4.8306,4.8306,4.8306,4.8306,4.8306,4.8306,4.8765,5.0435,5.0802,5.1279,5.2894,5.3206,5.3206,5.3206,5.3206,5.3206,5.3206,5.3206,5.3206,5.3206,5.3206,5.3206,5.3206,5.3206,5.3206,5.3206,5.3206,5.3206,5.3206,5.3206,5.3206,5.3206,5.3206,5.3206,5.3206,5.3206,5.3206,5.3206,5.3206,5.3206,5.3206,5.3206,5.3206,2.6217,2.6217,0.0,2.5197,2.4495,0.0,2.2274,0.0,0.0,0.0,0.0,0.0,0.0,0.0,0.0,0.0,0.0,0.0,0.0,1.6542,0.0,0.0,0.0,0.0,0.0,0.0,2.0569,2.2523,0.0,0.0,0.0,0.0,2.7501,2.8578,2.9547,3.0639,3.1907,3.2005,3.2846,3.4379,3.4005,3.3986,3.4413,3.5715,3.6303,3.6376,3.801,3.8707,3.8762,3.957,4.0377,4.1185,4.1992,4.2782,4.3497,4.3497,4.3497,4.3497,4.3497,4.3497,4.3497,4.3497,4.3497,4.3791,4.5406,4.5902,4.6232,4.7847,4.8306,4.8306,4.8306,4.8306,4.8306,4.8306,4.8306,4.8765,5.0435,5.0802,5.1279,5.2894,5.3206,5.3206,5.3206,5.3206,5.3206,5.3206,5.3206,5.3206,5.3206,5.3206,5.3206,5.3206,5.3206,5.3206,5.3206,5.3206,5.3206,5.3206,5.3206,5.3206,5.3206,5.3206,5.3206,5.3206,5.3206,5.3206,5.3206,5.3206,5.3206,5.3206,5.3206,5.3206]},{"header":{"parameterUnit":"m.s-1","parameterCategory":1,"la1":30.6,"la2":29.2853,"lo1":-89.7004,"lo2":-87.6739,"dy":0.0162,"dx":0.0183,"nx":112,"ny":82,"refTime":"2025-03-10T06:00:00:Z","depth":0,"parameterNumber":3,"parameterNumberName":"V-component_of_WINDS"},"data":[0.0,0.0,0.0,0.0,0.0,0.0,0.0,0.0,0.0,0.0,0.0,0.0,0.0,0.0,0.0,0.0,0.0,0.0,0.0,0.0,0.0,0.0,0.0,0.0,0.0,0.0,0.0,0.0,0.0,0.0,0.0,0.0,0.0,0.0,0.0,0.0,0.0,0.0,0.0,0.0,0.0,0.0,0.0,0.0,0.0,0.0,0.0,0.0,0.0,0.0,0.0,0.0,0.0,0.0,0.0,0.0,0.0,0.0,0.0,0.0,0.0,0.0,0.0,0.0,0.0,0.0,0.0,0.0,0.0,0.0,0.0,0.0,0.0,0.0,0.0,0.0,0.0,0.0,0.0,0.0,0.0,0.0,0.0,0.0,0.0,0.0,0.0,0.0,0.0,0.0,-1.3439,-1.4359,-1.5685,-1.6333,-1.5856,-1.5668,-1.45,-1.2002,0.0,0.0,0.0,0.0,0.0,0.0,0.0,0.0,0.0,0.0,0.0,0.0,0.0,0.0,0.0,0.0,0.0,0.0,0.0,0.0,0.0,0.0,0.0,0.0,0.0,0.0,0.0,0.0,0.0,0.0,0.0,0.0,0.0,0.0,0.0,0.0,0.0,0.0,0.0,0.0,0.0,0.0,0.0,0.0,0.0,0.0,0.0,0.0,0.0,0.0,0.0,0.0,0.0,0.0,0.0,0.0,0.0,0.0,0.0,0.0,0.0,0.0,0.0,0.0,0.0,0.0,0.0,0.0,0.0,0.0,0.0,0.0,0.0,0.0,0.0,0.0,0.0,0.0,0.0,0.0,0.0,0.0,0.0,0.0,0.0,0.0,0.0,0.0,0.0,0.0,0.0,0.0,0.0,0.0,0.0,0.0,0.0,0.0,0.0,0.0,0.0,0.0,0.0,0.0,-1.2677,-1.5197,-1.6074,-1.6484,-1.6409,-1.553,-1.4425,-1.3035,0.0,0.0,0.0,0.0,0.0,0.0,0.0,0.0,0.0,0.0,0.0,0.0,0.0,0.0,0.0,0.0,0.0,0.0,0.0,0.0,0.0,0.0,0.0,0.0,0.0,0.0,0.0,0.0,0.0,0.0,0.0,0.0,0.0,0.0,0.0,0.0,0.0,0.0,0.0,0.0,0.0,0.0,0.0,0.0,0.0,0.0,0.0,0.0,0.0,0.0,0.0,0.0,0.0,0.0,0.0,0.0,0.0,0.0,0.0,0.0,0.0,0.0,0.0,0.0,0.0,0.0,0.0,0.0,0.0,0.0,0.0,0.0,0.0,0.0,0.0,0.0,0.0,0.0,0.0,0.0,0.0,0.0,0.0,0.0,0.0,0.0,0.0,0.0,0.0,0.0,0.0,0.0,0.0,0.0,0.0,0.0,0.0,0.0,0.0,0.0,0.0,0.0,0.0,-1.3338,-1.4152,-1.5964,-1.6371,-1.6522,-1.6522,-1.5781,-1.4714,-1.3286,-1.162,0.0,0.0,0.0,0.0,0.0,0.0,0.0,0.0,0.0,0.0,0.0,0.0,0.0,0.0,0.0,0.0,0.0,0.0,0.0,0.0,0.0,0.0,0.0,0.0,0.0,0.0,0.0,0.0,0.0,0.0,0.0,0.0,0.0,0.0,0.0,0.0,0.0,0.0,0.0,0.0,0.0,0.0,0.0,0.0,0.0,0.0,0.0,0.0,0.0,0.0,0.0,0.0,0.0,0.0,0.0,0.0,0.0,0.0,0.0,0.0,0.0,0.0,0.0,0.0,0.0,0.0,0.0,0.0,0.0,0.0,0.0,0.0,0.0,0.0,0.0,0.0,0.0,0.0,0.0,0.0,0.0,0.0,0.0,0.0,0.0,0.0,0.0,0.0,0.0,0.0,0.0,0.0,0.0,0.0,0.0,0.0,0.0,0.0,0.0,0.0,0.0,0.0,-1.5175,-1.5726,-1.6456,-1.6522,-1.6522,-1.6522,-1.5781,-1.4714,-1.3286,-1.1382,0.0,0.0,0.0,0.0,0.0,0.0,0.0,0.0,0.0,0.0,0.0,0.0,0.0,0.0,0.0,0.0,0.0,0.0,0.0,0.0,0.0,0.0,0.0,0.0,0.0,0.0,0.0,0.0,0.0,0.0,0.0,0.0,0.0,0.0,0.0,0.0,0.0,0.0,0.0,0.0,0.0,0.0,0.0,0.0,0.0,0.0,0.0,0.0,0.0,0.0,0.0,0.0,0.0,0.0,0.0,0.0,0.0,0.0,0.0,0.0,0.0,0.0,0.0,0.0,0.0,0.0,0.0,0.0,0.0,0.0,0.0,0.0,0.0,0.0,0.0,0.0,0.0,0.0,0.0,0.0,0.0,0.0,0.0,0.0,0.0,0.0,0.0,0.0,0.0,0.0,0.0,0.0,0.0,0.0,0.0,0.0,0.0,0.0,0.0,0.0,0.0,0.0,-1.5039,-1.6268,-1.6489,-1.6522,-1.6522,-1.6522,-1.5104,-1.3934,-1.3235,-1.0684,0.0,0.0,0.0,0.0,0.0,0.0,0.0,0.0,0.0,0.0,0.0,0.0,0.0,0.0,0.0,0.0,0.0,0.0,0.0,0.0,0.0,0.0,0.0,0.0,0.0,0.0,0.0,0.0,0.0,0.0,0.0,0.0,0.0,0.0,0.0,0.0,0.0,0.0,0.0,0.0,0.0,0.0,0.0,0.0,0.0,0.0,0.0,0.0,0.0,0.0,0.0,0.0,0.0,0.0,0.0,0.0,0.0,0.0,0.0,0.0,0.0,0.0,0.0,0.0,0.0,0.0,0.0,0.0,0.0,0.0,0.0,0.0,0.0,0.0,0.0,0.0,0.0,0.0,0.0,0.0,0.0,0.0,0.0,0.0,0.0,0.0,0.0,0.0,0.0,0.0,0.0,0.0,0.0,0.0,0.0,0.0,0.0,0.0,0.0,0.0,0.0,0.0,-1.4937,-1.5917,0.0,-1.6522,-1.6522,-1.6522,-1.563,-1.4551,-1.3273,0.0,0.0,0.0,0.0,0.0,0.0,0.0,0.0,0.0,0.0,0.0,0.0,0.0,0.0,0.0,0.0,0.0,0.0,0.0,0.0,0.0,0.0,0.0,0.0,0.0,0.0,0.0,0.0,0.0,0.0,0.0,0.0,0.0,0.0,0.0,0.0,0.0,0.0,0.0,0.0,0.0,0.0,0.0,0.0,0.0,0.0,0.0,0.0,0.0,0.0,0.0,0.0,0.0,0.0,0.0,0.0,0.0,0.0,0.0,0.0,0.0,0.0,0.0,0.0,0.0,0.0,0.0,0.0,0.0,0.0,0.0,0.0,0.0,0.0,0.0,0.0,0.0,0.0,0.0,0.0,0.0,0.0,0.0,0.0,0.0,0.0,0.0,0.0,0.0,0.0,0.0,0.0,0.0,0.0,0.0,0.0,0.0,0.0,0.0,0.0,0.0,0.0,-1.3956,-1.5105,-1.5936,0.0,-1.6522,-1.6522,-1.6522,-1.5693,-1.4551,-1.3035,0.0,0.0,0.0,0.0,0.0,0.0,0.0,0.0,0.0,0.0,0.0,0.0,0.0,0.0,0.0,0.0,0.0,0.0,0.0,0.0,0.0,0.0,0.0,0.0,0.0,0.0,0.0,0.0,0.0,0.0,0.0,0.0,0.0,0.0,0.0,0.0,0.0,0.0,0.0,0.0,0.0,0.0,0.0,0.0,0.0,0.0,0.0,0.0,0.0,0.0,0.0,0.0,0.0,0.0,0.0,0.0,0.0,0.0,0.0,0.0,0.0,0.0,0.0,0.0,0.0,0.0,0.0,0.0,0.0,0.0,0.0,0.0,0.0,0.0,0.0,0.0,0.0,0.0,0.0,0.0,0.0,0.0,0.0,0.0,0.0,0.0,0.0,0.0,0.0,0.0,0.0,0.0,0.0,0.0,0.0,0.0,0.0,0.0,0.0,0.0,0.0,0.0,-1.4001,-1.5556,-1.6522,-1.6522,-1.6522,-1.6522,-1.6522,-1.5041,-1.3619,0.0,0.0,0.0,0.0,0.0,0.0,0.0,0.0,0.0,0.0,0.0,0.0,0.0,0.0,0.0,0.0,0.0,0.0,0.0,0.0,0.0,0.0,0.0,0.0,0.0,0.0,0.0,0.0,0.0,0.0,0.0,0.0,0.0,0.0,0.0,0.0,0.0,0.0,0.0,0.0,0.0,0.0,0.0,0.0,0.0,0.0,0.0,0.0,0.0,0.0,0.0,0.0,0.0,0.0,0.0,0.0,0.0,0.0,0.0,0.0,0.0,0.0,0.0,0.0,0.0,0.0,0.0,0.0,0.0,0.0,0.0,0.0,0.0,0.0,0.0,0.0,0.0,0.0,0.0,0.0,0.0,0.0,0.0,0.0,0.0,0.0,0.0,0.0,0.0,0.0,0.0,0.0,0.0,0.0,0.0,0.0,0.0,0.0,0.0,0.0,0.0,0.0,0.0,-1.369,-1.5402,-1.6522,-1.6522,-1.6522,-1.6522,-1.6522,-1.5354,-1.4198,-1.3035,0.0,0.0,0.0,0.0,0.0,0.0,0.0,0.0,0.0,0.0,0.0,0.0,0.0,0.0,0.0,0.0,0.0,0.0,0.0,0.0,0.0,0.0,0.0,0.0,0.0,0.0,0.0,0.0,0.0,0.0,0.0,0.0,0.0,0.0,0.0,0.0,0.0,0.0,0.0,0.0,0.0,0.0,0.0,0.0,0.0,0.0,0.0,0.0,0.0,0.0,0.0,0.0,0.0,0.0,0.0,0.0,0.0,0.0,0.0,0.0,0.0,0.0,0.0,0.0,0.0,0.0,0.0,0.0,0.0,0.0,0.0,0.0,0.0,0.0,0.0,0.0,0.0,0.0,0.0,0.0,0.0,0.0,0.0,0.0,0.0,0.0,0.0,0.0,0.0,0.0,0.0,0.0,0.0,0.0,0.0,0.0,0.0,0.0,0.0,0.0,0.0,0.0,-1.3526,-1.5337,-1.6522,-1.6522,-1.6522,-1.6522,-1.6522,-1.5706,-1.4551,-1.2973,0.0,0.0,0.0,0.0,0.0,0.0,0.0,0.0,0.0,0.0,0.0,0.0,0.0,0.0,0.0,0.0,0.0,0.0,0.0,0.0,0.0,0.0,0.0,0.0,0.0,0.0,0.0,0.0,0.0,0.0,0.0,0.0,0.0,0.0,0.0,0.0,0.0,0.0,0.0,0.0,0.0,0.0,0.0,0.0,0.0,0.0,0.0,0.0,0.0,0.0,0.0,0.0,0.0,0.0,0.0,0.0,0.0,0.0,0.0,0.0,0.0,0.0,0.0,0.0,0.0,0.0,0.0,0.0,0.0,0.0,0.0,0.0,0.0,0.0,0.0,0.0,0.0,0.0,0.0,0.0,0.0,0.0,0.0,0.0,0.0,0.0,0.0,0.0,0.0,0.0,0.0,0.0,0.0,0.0,0.0,0.0,0.0,0.0,0.0,0.0,0.0,0.0,-1.3537,-1.5362,-1.6522,-1.6522,-1.6522,-1.6522,-1.6522,-1.6019,-1.4802,-1.2693,0.0,0.0,0.0,0.0,0.0,0.0,0.0,0.0,0.0,0.0,0.0,0.0,0.0,0.0,0.0,0.0,0.0,0.0,0.0,0.0,0.0,0.0,0.0,0.0,0.0,0.0,0.0,0.0,0.0,0.0,0.0,0.0,0.0,0.0,0.0,0.0,0.0,0.0,0.0,0.0,0.0,0.0,0.0,0.0,0.0,0.0,0.0,0.0,0.0,0.0,0.0,0.0,0.0,0.0,0.0,0.0,0.0,0.0,0.0,0.0,-0.6804,0.0,0.0,0.0,0.0,0.0,0.0,0.0,0.0,0.0,0.0,0.0,0.0,0.0,0.0,0.0,0.0,0.0,0.0,0.0,0.0,0.0,0.0,0.0,0.0,0.0,0.0,0.0,0.0,0.0,0.0,0.0,0.0,0.0,0.0,0.0,0.0,0.0,0.0,0.0,0.0,0.0,-1.3813,-1.5457,-1.6522,-1.6522,-1.6522,-1.6522,-1.6522,-1.6019,-1.5128,-1.3821,-1.2285,0.0,0.0,0.0,0.0,0.0,0.0,0.0,0.0,0.0,0.0,0.0,0.0,0.0,0.0,0.0,0.0,0.0,0.0,0.0,0.0,0.0,0.0,0.0,0.0,0.0,0.0,0.0,0.0,0.0,0.0,0.0,0.0,0.0,0.0,0.0,0.0,0.0,0.0,0.0,0.0,0.0,0.0,0.0,0.0,0.0,0.0,0.0,0.0,0.0,0.0,0.0,0.0,0.0,0.0,0.0,0.0,0.0,0.0,0.0,0.0,-0.8039,0.0,0.0,0.0,0.0,0.0,0.0,0.0,0.0,0.0,0.0,0.0,0.0,0.0,0.0,0.0,0.0,0.0,0.0,0.0,0.0,0.0,0.0,0.0,0.0,0.0,0.0,0.0,0.0,0.0,0.0,0.0,0.0,0.0,0.0,0.0,0.0,0.0,0.0,0.0,0.0,-1.3909,-1.5492,-1.6522,-1.6522,-1.6522,-1.6522,-1.6522,-1.6258,-1.5618,-1.4551,-1.3144,0.0,0.0,0.0,0.0,0.0,0.0,0.0,0.0,0.0,0.0,0.0,0.0,0.0,0.0,0.0,0.0,0.0,0.0,0.0,0.0,0.0,0.0,0.0,0.0,0.0,0.0,0.0,0.0,0.0,0.0,0.0,0.0,0.0,0.0,0.0,0.0,0.0,0.0,0.0,0.0,0.0,0.0,0.0,0.0,0.0,0.0,0.0,0.0,0.0,0.0,0.0,0.0,0.0,-0.9511,-0.9814,-1.0538,-1.0215,-1.0429,-1.1062,-1.03,-0.9868,-0.9572,0.0,0.0,0.0,0.0,0.0,0.0,0.0,0.0,0.0,0.0,0.0,0.0,0.0,0.0,0.0,0.0,0.0,0.0,0.0,0.0,0.0,0.0,0.0,0.0,0.0,-1.1681,-1.1204,0.0,0.0,0.0,0.0,0.0,0.0,0.0,0.0,0.0,0.0,0.0,0.0,-1.4223,-1.5618,-1.6522,-1.6522,-1.6522,-1.6522,-1.6522,-1.6522,-1.6082,-1.5117,-1.4074,-1.3069,0.0,0.0,0.0,0.0,0.0,0.0,0.0,0.0,0.0,0.0,0.0,0.0,0.0,0.0,0.0,0.0,0.0,0.0,0.0,0.0,0.0,0.0,0.0,0.0,0.0,0.0,0.0,0.0,0.0,0.0,0.0,0.0,-0.5192,-0.5123,0.0,0.0,0.0,0.0,0.0,0.0,0.0,0.0,0.0,0.0,0.0,0.0,0.0,-0.893,-0.941,-1.0176,-1.0605,-1.0695,-1.1087,-1.1322,-1.1449,-1.1738,-1.1898,-1.2025,-1.1667,0.0,-0.9769,-0.8635,0.0,0.0,0.0,0.0,0.0,0.0,0.0,0.0,0.0,0.0,0.0,0.0,0.0,0.0,0.0,0.0,0.0,0.0,0.0,0.0,0.0,0.0,-1.38,-1.3789,-1.3711,-1.3564,0.0,-1.1424,-1.0288,-1.0952,0.0,0.0,0.0,0.0,0.0,0.0,0.0,0.0,-1.5279,-1.6082,-1.6522,-1.6522,-1.6522,-1.6522,-1.6522,-1.6522,-1.6258,-1.563,-1.5041,-1.4412,-1.3783,-1.2172,0.0,0.0,0.0,0.0,0.0,0.0,0.0,0.0,0.0,0.0,0.0,0.0,0.0,0.0,0.0,0.0,0.0,0.0,0.0,0.0,0.0,0.0,0.0,0.0,0.0,0.0,0.0,0.0,0.0,-0.5541,-0.5803,-0.5562,-0.589,-0.5993,0.0,0.0,0.0,0.0,0.0,0.0,0.0,0.0,0.0,-0.9581,-0.9918,-1.0283,-1.0713,-1.1338,-1.165,-1.166,-1.21,-1.2351,-1.2314,-1.2754,-1.2949,-1.292,-1.2646,-1.1937,-1.0896,-0.9477,-0.8598,-0.8199,0.0,0.0,0.0,0.0,-1.0557,-1.082,-1.1553,-1.1807,0.0,0.0,0.0,0.0,0.0,0.0,0.0,0.0,0.0,0.0,0.0,0.0,0.0,-1.4086,-1.4077,-1.4029,-1.3896,-1.3008,-1.2212,0.0,-1.1253,-1.0614,-1.0034,0.0,0.0,0.0,0.0,-1.4453,-1.5532,-1.669,-1.735,-1.7036,-1.6999,-1.6873,-1.6547,-1.6522,-1.6409,-1.617,-1.5643,-1.5229,-1.5029,-1.372,-1.2587,0.0,0.0,0.0,0.0,0.0,0.0,0.0,0.0,0.0,0.0,0.0,0.0,0.0,0.0,0.0,0.0,0.0,0.0,0.0,0.0,0.0,0.0,0.0,0.0,0.0,0.0,0.0,0.0,-0.6412,-0.6408,-0.5898,-0.6484,-0.6673,0.0,0.0,0.0,0.0,0.0,0.0,-0.8727,-0.9246,-0.9893,-1.0752,-1.1084,-1.1455,-1.1939,-1.2227,-1.2393,-1.2402,-1.2832,-1.3037,-1.3057,-1.3477,-1.3559,-1.3309,-1.295,-1.2355,-1.1479,-1.0335,-0.9517,-0.9051,-0.96,-0.9839,-1.0039,-1.1538,-1.2175,-1.2353,-1.333,-1.3662,-1.3564,-1.2871,0.0,-1.2383,-1.1406,0.0,0.0,0.0,0.0,-1.249,-1.3691,-1.3994,-1.4131,-1.4612,-1.4739,-1.4739,-1.4739,-1.4564,-1.4119,0.0,-1.264,-1.2164,-1.1189,0.0,0.0,0.0,0.0,-1.5112,-1.5648,-1.6989,-1.7793,-1.7384,-1.7485,-1.7363,-1.6785,-1.6735,-1.6672,-1.6522,-1.6132,-1.5906,-1.5906,-1.5016,-1.406,-1.3057,0.0,0.0,0.0,0.0,0.0,0.0,0.0,0.0,0.0,0.0,0.0,0.0,0.0,0.0,0.0,0.0,0.0,0.0,0.0,0.0,0.0,0.0,0.0,0.0,0.0,0.0,0.0,0.0,0.0,-0.6029,-0.731,0.0,0.0,0.0,0.0,-0.7913,-0.8078,-0.8648,-0.9751,-1.0463,-1.1221,-1.2064,-1.2102,-1.2373,-1.2812,-1.2832,-1.2842,-1.2852,-1.3271,-1.3477,-1.3486,-1.3916,-1.3664,-1.2887,-1.2227,-1.1511,-1.0785,-1.0831,-1.0176,-0.9302,-1.0661,-1.1278,-1.1548,-1.2912,-1.3662,-1.3961,-1.4029,-1.4048,-1.4038,-1.4,-1.3769,-1.3428,-1.3359,-1.335,0.0,0.0,-1.3691,-1.4209,-1.5088,-1.5312,-1.5537,-1.6396,-1.6602,-1.6602,-1.6602,-1.5937,-1.5249,0.0,-1.4144,-1.3571,-1.4084,0.0,-1.3647,-1.4129,-1.4763,-1.5392,-1.5931,-1.668,-1.7145,-1.7121,-1.7749,-1.794,-1.7388,-1.7338,-1.7099,-1.6559,-1.6497,-1.6471,-1.6471,-1.5919,-1.5341,-1.4802,-1.3144,0.0,0.0,0.0,0.0,0.0,0.0,0.0,0.0,0.0,0.0,0.0,0.0,0.0,0.0,0.0,0.0,0.0,0.0,0.0,0.0,0.0,0.0,0.0,0.0,0.0,0.0,0.0,0.0,-0.7936,-0.8253,0.0,-0.7956,-0.7862,-0.803,-0.8561,-0.9036,-0.9715,-1.0669,-1.1382,-1.2031,-1.2627,-1.2646,-1.2608,-1.2503,-1.303,-1.3164,-1.289,-1.3576,-1.3916,-1.3926,-1.4355,-1.4099,-1.3372,-1.3385,-1.2604,-1.1421,-1.1481,-1.0703,-0.969,-1.1107,-1.1705,-1.1948,-1.3714,-1.459,-1.499,-1.5273,-1.5566,-1.5762,-1.5469,-1.5078,-1.4727,-1.4727,-1.4727,-1.4795,-1.5078,-1.5264,-1.5508,-1.6103,-1.626,-1.6338,-1.666,-1.6665,-1.6665,-1.6665,-1.6484,-1.6233,-1.6158,-1.4897,-1.3871,-1.3841,-1.3901,-1.389,-1.3801,-1.4862,-1.571,-1.5934,-1.6799,-1.7456,-1.7591,-1.7869,-1.7836,-1.7405,-1.7388,-1.7137,-1.6559,-1.6522,-1.6522,-1.6522,-1.6333,-1.5969,-1.5417,-1.4475,-1.3006,0.0,0.0,0.0,0.0,0.0,0.0,0.0,0.0,0.0,0.0,0.0,0.0,0.0,0.0,0.0,0.0,0.0,0.0,0.0,0.0,0.0,0.0,0.0,0.0,0.0,0.0,-0.9064,-0.9004,-0.9157,-0.9171,-0.8931,-0.8635,-0.8589,-0.8966,-0.944,-1.0106,-1.1007,-1.1684,-1.2282,-1.2669,-1.2937,-1.2928,-1.2485,-1.3294,-1.3585,-1.3313,-1.4007,-1.4355,-1.4375,-1.4951,-1.4801,-1.4051,-1.4135,-1.3426,-1.2108,-1.1789,-1.1108,-1.0438,-1.1909,-1.2522,-1.2839,-1.473,-1.5615,-1.5898,-1.6191,-1.6484,-1.668,-1.6387,-1.6094,-1.5859,-1.5859,-1.5859,-1.5918,-1.6211,-1.6289,-1.6387,-1.6836,-1.6953,-1.6982,-1.7129,-1.7158,-1.7158,-1.7158,-1.7051,-1.6953,-1.6953,-1.5908,-1.4865,-1.4639,-1.4697,-1.4687,-1.4414,-1.5139,-1.5735,-1.5735,-1.6607,-1.7291,-1.7387,-1.767,-1.7655,-1.7255,-1.7262,-1.7069,-1.647,-1.6492,-1.6522,-1.6522,-1.6522,-1.6346,-1.5982,-1.5104,-1.3821,-1.214,0.0,0.0,0.0,0.0,0.0,0.0,0.0,0.0,0.0,0.0,0.0,0.0,0.0,0.0,0.0,0.0,0.0,0.0,0.0,0.0,0.0,0.0,0.0,-0.865,-0.9442,-0.9777,-0.9133,-0.9974,-1.0259,-0.9416,-0.8951,-0.8816,-0.918,-0.935,-0.9826,-1.0746,-1.1425,-1.1971,-1.2332,-1.3096,-1.3294,-1.294,-1.3711,-1.4107,-1.4126,-1.46,-1.4814,-1.4853,-1.5684,-1.5628,-1.4844,-1.4258,-1.3627,-1.2781,-1.1833,-1.143,-1.1539,-1.2985,-1.3776,-1.4287,-1.6019,-1.6694,-1.6714,-1.6714,-1.6714,-1.6714,-1.6714,-1.6714,-1.6714,-1.6714,-1.6714,-1.6714,-1.6714,-1.6714,-1.6865,-1.7295,-1.7402,-1.75,-1.791,-1.8008,-1.8008,-1.8008,-1.7686,-1.7402,-1.7402,-1.7061,-1.6758,-1.6675,-1.6367,-1.6145,-1.6145,-1.5723,0.0,-1.543,-1.6056,-1.6503,-1.6492,-1.7146,-1.7377,-1.6833,-1.6993,-1.6847,-1.6315,-1.6426,-1.6522,-1.6522,-1.6522,-1.6522,-1.6522,-1.4953,-1.3846,-1.3223,0.0,0.0,0.0,0.0,0.0,0.0,0.0,0.0,0.0,0.0,0.0,0.0,0.0,0.0,0.0,0.0,0.0,0.0,0.0,0.0,0.0,0.0,-0.9625,-0.9612,-1.0165,-1.0567,-1.0567,-1.0418,-1.0154,-0.9684,-0.9105,-0.8796,-0.8878,-0.9832,-1.0513,-1.0813,-1.1644,-1.2492,-1.3138,-1.3106,-1.3177,-1.3408,-1.4212,-1.4467,-1.4179,-1.4888,-1.541,-1.5723,-1.527,-1.4836,-1.4267,-1.3462,-1.2571,-1.1765,-1.1491,-1.155,-1.1857,-1.2631,-1.3415,-1.4247,-1.5644,-1.676,-1.7656,-1.7656,-1.7656,-1.7656,-1.7656,-1.7656,-1.7656,-1.7656,-1.7656,-1.7656,-1.7656,-1.7656,-1.7686,-1.7803,-1.7842,-1.7871,-1.7978,-1.8008,-1.8008,-1.8008,-1.792,-1.7842,-1.7842,-1.7734,-1.7461,-1.6836,-1.6631,-1.6553,-1.6553,-1.6445,0.0,-1.5928,-1.6059,-1.6285,-1.6467,-1.6652,-1.6784,-1.678,-1.6993,-1.6847,-1.6315,-1.6426,-1.6522,-1.6522,-1.6522,-1.6522,-1.6522,-1.5279,-1.4412,0.0,0.0,0.0,0.0,0.0,0.0,0.0,0.0,0.0,0.0,0.0,0.0,0.0,0.0,0.0,0.0,0.0,0.0,0.0,0.0,0.0,0.0,-0.9467,-0.9916,-1.0414,-1.0991,-1.1252,-1.0819,-1.0845,-1.059,-0.9843,-0.9465,-0.9113,-0.8804,-0.9633,-1.0271,-1.0585,-1.1247,-1.1889,-1.248,-1.2603,-1.2726,-1.2856,-1.3987,-1.4304,-1.3839,-1.4708,-1.5102,-1.5187,-1.4766,-1.4501,0.0,-1.3462,-1.2837,-1.2347,-1.1932,-1.2104,0.0,0.0,0.0,0.0,0.0,-1.7292,-1.8037,-1.8213,-1.8271,-1.8301,-1.8486,-1.8545,-1.8545,-1.8545,-1.8545,-1.8545,-1.8545,-1.8545,-1.8545,-1.8545,-1.8545,-1.8545,-1.8545,-1.8545,-1.8496,-1.8311,-1.8271,-1.8223,-1.8047,0.0,0.0,-1.7353,-1.7119,-1.7002,-1.7002,-1.6855,-1.6641,-1.6377,-1.6338,-1.6424,-1.6576,-1.6556,-1.654,-1.6511,-1.6955,0.0,0.0,0.0,-1.6773,-1.6522,-1.6522,0.0,0.0,0.0,0.0,0.0,0.0,0.0,0.0,-1.3672,-1.3437,0.0,0.0,0.0,0.0,0.0,0.0,0.0,0.0,0.0,0.0,0.0,0.0,0.0,0.0,0.0,0.0,-0.9577,-0.9793,-1.0804,-1.1583,-1.1564,-1.0302,-1.106,-1.1166,-0.9814,-0.9666,-0.948,-0.8904,-0.9146,-0.9632,-1.0312,0.0,0.0,0.0,0.0,-1.221,-1.195,-1.3519,-1.3961,-1.3418,-1.4407,-1.4571,-1.3965,-1.4334,-1.4498,-1.4356,-1.3825,-1.3528,-1.3455,-1.2659,-1.2973,-1.3977,-1.4587,-1.5027,-1.5501,-1.7297,-1.7948,0.0,0.0,0.0,0.0,-1.916,-1.9287,-1.9287,-1.9287,-1.9287,-1.9287,-1.9287,-1.9287,-1.9287,-1.9287,-1.9287,-1.9287,-1.9287,-1.9287,-1.918,-1.8799,-1.8711,-1.8584,-1.8164,-1.8076,-1.8066,-1.8018,-1.7705,-1.7451,-1.7451,-1.7129,0.0,-1.6807,-1.6807,-1.6787,-1.6738,0.0,0.0,-1.6172,-1.689,-1.7059,-1.6236,-1.7015,-1.725,-1.6722,-1.671,-1.671,-1.671,-1.7212,-1.7476,-1.7476,-1.7965,-1.8204,-1.8129,-1.4664,-1.4111,0.0,0.0,0.0,0.0,0.0,0.0,0.0,0.0,0.0,0.0,0.0,0.0,0.0,0.0,0.0,-0.8793,-0.9483,-0.9912,-0.964,-1.0434,-1.0764,-0.9972,-1.0527,-1.0466,-0.9113,-0.9008,-0.9004,-0.9138,-0.974,-1.0262,-1.0576,-1.0894,0.0,-1.2121,-1.2025,-1.2196,-1.2757,-1.4101,-1.4285,-1.3418,0.0,0.0,-1.4383,-1.4449,-1.429,-1.3792,-1.2924,-1.2592,-1.2592,-1.2372,-1.3528,-1.5438,-1.5437,-1.5626,-1.6171,-1.732,-1.7779,-1.7862,-1.8831,-1.916,-1.918,-1.9258,-1.9287,-1.9287,-1.9287,-1.9287,0.0,-1.9287,-1.9287,-1.9287,-1.9287,-1.9287,-1.9287,-1.9287,-1.9287,-1.9268,-1.918,-1.916,-1.9033,-1.8594,-1.8446,-1.8408,-1.8066,-1.7939,-1.7891,-1.7891,-1.7822,-1.7637,-1.7305,-1.7256,-1.7119,-1.6768,-1.6665,-1.6699,-1.6611,-1.6573,-1.6802,-1.7158,-1.7711,-1.799,-1.789,-1.7877,-1.7877,-1.7877,-1.799,-1.8053,-1.8053,-1.8154,-1.8204,-1.8191,-1.7438,-1.7313,0.0,0.0,0.0,0.0,0.0,0.0,0.0,0.0,0.0,0.0,0.0,-0.8115,-0.8155,0.0,-0.9038,-0.9305,-0.9565,-0.9627,-0.9502,-0.9957,-1.0064,-0.9361,-1.0466,-1.0669,-0.8956,-0.9556,-0.9821,-0.9225,-0.9847,-1.0249,-1.0404,-1.0707,-1.1059,-1.1487,-1.1423,-1.1581,-1.2026,-1.3188,-1.3386,-1.2699,-1.4662,-1.4807,-1.3413,-1.3909,-1.3724,-1.2952,-1.2519,-1.2385,-1.2607,-1.3783,-1.4789,-1.5557,-1.6008,-1.6464,-1.7009,-1.7543,-1.771,-1.7886,-1.9151,-1.96,-1.9639,-1.9853,-1.9922,-1.9922,-1.9922,-1.9922,-1.9922,-1.9922,-1.9922,-1.9922,-1.9922,-1.9922,-1.9922,-1.9922,-1.9922,-1.9863,-1.9648,-1.96,-1.9473,-1.9043,-1.8965,-1.8896,-1.8682,-1.8652,-1.8506,-1.8076,-1.8008,-1.7939,-1.7725,-1.7695,-1.7617,-1.7393,-1.7373,-1.7285,-1.708,-1.685,-1.7231,-1.8393,-1.8446,-1.8474,-1.8582,-1.8869,-1.8882,-1.8631,-1.9158,-1.9434,-1.9434,-1.971,-1.9849,-1.9849,-1.9849,-1.9547,0.0,0.0,0.0,0.0,0.0,0.0,0.0,0.0,-0.7762,-0.7789,-0.8121,-0.8504,-0.8773,-0.8915,-0.9164,-0.9763,-0.943,-0.9228,-0.9577,-0.9614,-0.9413,-0.8857,-1.0364,-1.0744,-0.9037,-1.0097,-1.0461,-0.9455,-0.9846,-1.014,-1.02,-1.0428,-1.0651,-1.0705,-1.0868,-1.1022,-1.1076,-1.2244,-1.2531,-1.1942,-1.3793,-1.383,-1.2305,-1.3309,-1.3257,-1.2392,-1.2452,-1.2612,-1.3006,-1.4896,-1.5506,-1.5385,-1.5991,-1.6637,-1.7319,-1.7547,-1.7623,-1.7828,-1.9459,-2.0039,-2.0098,-2.0449,-2.0566,-2.0566,-2.0566,-2.0566,-2.0566,-2.0566,-2.0566,-2.0566,-2.0566,-2.0566,-2.0566,-2.0566,-2.0566,-2.0469,-2.0117,-2.0039,-1.9912,-1.9492,-1.9404,-1.9385,-1.9297,-1.9287,-1.9053,-1.8359,-1.8184,-1.8135,-1.8135,-1.8057,-1.8008,-1.8008,-1.8008,-1.7842,-1.7422,-1.7336,-1.7857,-1.926,-1.9097,-1.9071,-1.9471,-1.9911,-1.9936,-1.951,-2.0376,-2.0882,-2.0882,-2.128,-2.1493,-2.1493,-2.1594,-2.1104,-0.5197,-0.5495,-0.6055,-0.6875,-0.7092,-0.7287,0.0,0.0,-0.7602,-0.7751,-0.8169,-0.8423,-0.8227,-0.8736,-0.9058,-0.865,-0.8738,-0.8869,-0.8903,-0.891,-0.891,-0.8811,-0.951,-0.9776,-0.922,-0.9329,-0.9622,-0.998,-1.008,-1.0234,-1.0557,-1.0604,-1.0681,-1.0935,-1.0975,-1.1116,-1.1376,-1.2629,-1.281,-1.1942,-1.4104,-1.4124,-1.2311,-1.3606,-1.3669,-1.2788,-1.2986,-1.3126,-1.318,-1.3709,-1.4479,-1.5248,-1.4655,-1.4982,-1.6075,-1.6976,-1.7379,-1.762,-1.975,-2.0498,-2.0498,-2.0547,-2.0566,-2.0566,-2.0566,-2.0566,-2.0566,-2.0566,-2.0566,-2.0566,-2.0566,-2.0566,-2.0566,-2.0566,-2.0566,-2.0557,-2.0498,-2.0498,-2.0361,-1.9932,-1.9844,-1.9727,-1.9346,-1.9287,-1.9258,-1.916,-1.8818,-1.8494,-1.8494,-1.8242,-1.8008,-1.8008,-1.8008,-1.7842,-1.7422,-1.7968,-1.8582,-1.9115,-1.968,-2.039,-2.1217,-2.1267,-2.1267,-2.1217,-2.1343,-2.1393,-2.1393,-2.1455,-2.1493,-2.1493,-2.1995,-2.1895,-0.583,-0.5975,-0.6241,0.0,-0.7254,-0.7595,-0.791,-0.8152,-0.8355,-0.8414,-0.8699,-0.8852,-0.8768,-0.8877,-0.8875,0.0,-0.8731,-0.8804,-0.8804,-0.8804,-0.8804,-0.8804,-0.9061,-0.9224,-0.9212,-0.9722,-1.0057,-1.0087,-1.0274,-1.0428,-1.0618,-1.0722,-1.0868,-1.0989,-1.1323,-1.1563,-1.1683,-1.2393,-1.2545,-1.2124,-1.3598,-1.3696,-1.264,-1.3729,-1.3751,-1.3033,-1.3333,-1.346,-1.3487,-1.4412,-1.4778,-1.4641,-1.4928,-1.4894,-1.4977,-1.669,-1.6927,-1.6756,-1.959,-2.0157,-1.9756,-2.0401,-2.0566,-2.0566,-2.0566,-2.0566,-2.0566,-2.0566,-2.0566,-2.0566,-2.0566,-2.0566,-2.0566,-2.0566,-2.0566,-2.0566,-2.0566,-2.0566,-2.0508,-2.0332,-2.0293,-2.0234,-2.0059,-2.0029,-2.0029,-2.0029,-1.9453,-1.9014,-1.9014,-1.8857,-1.875,-1.875,-1.875,-1.8584,-1.8144,-1.8822,-1.9532,-1.9946,-2.0714,-2.1438,-2.1913,-2.2284,-2.2297,-2.197,-2.2284,-2.2447,-2.2447,-2.2447,-2.2447,-2.246,-2.3025,-2.3163,-0.6136,0.0,0.0,-0.7021,-0.7595,-0.7984,-0.8053,-0.8481,-0.8818,-0.8784,-0.8864,-0.8976,-0.9062,-0.8916,-0.8804,-0.8804,-0.8804,-0.8804,-0.8804,-0.8804,-0.8804,-0.8804,-0.8804,-0.8951,-0.9325,-0.9995,-1.034,-1.0275,-1.0441,-1.0658,-1.0739,-1.0875,-1.1069,-1.1229,-1.1643,-1.1911,-1.1991,-1.2198,-1.2305,-1.2305,-1.311,-1.3198,-1.2829,-1.3676,-1.386,-1.346,-1.3674,-1.3768,-1.3781,-1.4802,-1.4817,-1.4166,-1.4977,-1.4817,-1.4341,-1.6223,-1.6433,-1.6101,-1.9107,-1.9752,-1.9359,-2.0428,-2.083,-2.0928,-2.0928,-2.0928,-2.0928,-2.0928,-2.0928,-2.0898,-2.0781,-2.0752,-2.0752,-2.0752,-2.0654,-2.0596,-2.0723,-2.0654,-2.0566,-2.0566,-2.0566,-2.0566,-2.0566,-2.0566,-2.0566,-2.0566,-2.0039,-1.959,-1.9473,-1.9365,-1.9287,-1.9287,-1.9287,-1.916,-1.8848,-1.9354,-2.0091,-2.0939,-2.1452,-2.2049,-2.2727,-2.3012,-2.2949,-2.2548,-2.2924,-2.3078,-2.3078,-2.3301,-2.3376,-2.3389,-2.3954,-2.423,0.0,0.0,-0.6565,-0.7626,-0.8162,-0.8516,-0.8648,-0.8673,-0.8641,-0.8432,-0.8414,-0.8514,-0.8744,-0.8804,-0.8804,-0.8804,-0.8804,-0.8804,-0.8804,-0.8804,-0.8804,-0.8804,-0.8804,-0.9031,0.0,-0.9737,-0.9986,-1.0564,-1.0618,-1.0681,-1.0962,-1.0989,-1.1256,-1.1824,-1.1857,-1.2004,-1.2285,-1.2298,-1.2305,-1.2305,-1.2667,-1.2815,-1.2842,-1.3347,-1.3774,-1.4062,-1.4068,-1.4075,-1.4075,-1.4166,-1.4173,-1.4088,-1.4173,-1.4173,-1.4284,-1.5638,-1.5973,-1.6026,-1.8301,-1.9281,-1.977,-2.079,-2.1504,-2.1846,-2.1846,-2.1846,-2.1846,-2.1846,-2.1846,-2.1748,-2.1328,-2.1211,-2.1211,-2.1211,-2.0879,-2.0684,-2.1123,-2.0869,-2.0566,-2.0566,-2.0566,-2.0566,-2.0566,-2.0566,-2.0566,-2.0566,-2.0547,-2.0371,-1.9951,-1.9541,-1.9287,-1.9287,-1.9287,-1.9277,-1.9268,-1.9268,-2.0083,-2.1865,-2.1476,-2.202,-2.3879,-2.3427,-2.3065,-2.3053,-2.3065,-2.3078,-2.3078,-2.3703,-2.3966,-2.3991,-2.4544,-2.4795,-0.5952,0.0,-0.6894,-0.7495,-0.8032,-0.8445,-0.8512,-0.8664,-0.8735,-0.8689,-0.8664,-0.8691,-0.8791,-0.8804,-0.8804,-0.8804,-0.8804,-0.8804,-0.8804,-0.8971,-0.9025,-0.8831,-0.9152,0.0,0.0,0.0,0.0,-1.0577,-1.0735,-1.0889,-1.0989,-1.1363,-1.1663,-1.1864,-1.2058,-1.2204,-1.2305,-1.2305,-1.2305,-1.2311,-1.2812,-1.3153,-1.3353,-1.3754,-1.3988,-1.4088,-1.4088,-1.4088,-1.4088,-1.4088,-1.4088,-1.4088,-1.4088,-1.4208,-1.4382,-1.4902,-1.5085,-1.5684,-1.8633,-1.9314,-1.9082,-2.1056,-2.1768,-2.1885,-2.1885,-2.1885,-2.1885,-2.1885,-2.1885,-2.1846,-2.1709,-2.167,-2.167,-2.167,-2.1553,-2.1484,-2.1631,-2.1553,-2.1445,-2.1445,-2.1445,-2.1348,-2.1055,-2.1016,-2.0908,-2.0605,-2.0566,-2.0508,-2.0361,-2.0225,-2.0137,-2.0137,-2.0137,-2.0019,-1.9727,-2.0196,-2.071,-2.1037,-2.2026,-2.2885,-2.3501,-2.4013,-2.4255,-2.4255,-2.4255,-2.4255,-2.4255,-2.4443,-2.4544,-2.4556,-2.5096,-2.5335,-0.6359,-0.6814,-0.7281,-0.7735,-0.8131,-0.8404,-0.8504,-0.8671,-0.8778,-0.8671,-0.8651,-0.8651,-0.8651,-0.8651,-0.8691,-0.8791,-0.8891,-0.8965,-0.8965,-0.9212,-0.9332,-0.9145,-0.9452,-0.9726,0.0,0.0,0.0,-1.0584,-1.0828,-1.1042,-1.1142,-1.1603,-1.1917,-1.2024,-1.2204,-1.2305,-1.2305,-1.2305,-1.2412,-1.2632,-1.3026,-1.342,-1.3808,-1.4001,-1.4088,-1.4088,-1.4088,-1.4088,-1.4088,-1.4088,-1.4088,-1.4095,-1.4202,-1.4355,-1.4543,-1.4756,-1.495,-1.5542,-1.8448,-1.9101,-1.9048,-2.1325,-2.2207,-2.2334,-2.2334,-2.2334,-2.2334,-2.2334,-2.2334,-2.2305,-2.2148,-2.2109,-2.2109,-2.2109,-2.1992,-2.1924,-2.208,-2.1992,-2.1885,-2.1885,-2.1885,-2.1797,-2.1514,-2.1465,-2.1367,-2.1084,-2.1035,-2.0918,-2.0605,-2.0566,-2.0566,-2.0566,-2.0566,-2.0449,-2.0166,-2.0657,-2.1038,-2.1105,-2.1985,-2.2857,-2.3573,-2.402,-2.4406,-2.482,-2.482,-2.482,-2.482,-2.5008,-2.5096,-2.5109,-2.5649,-2.59,-0.6894,-0.7275,-0.7701,-0.8299,-0.8397,-0.847,-0.8744,-0.8798,-0.8704,-0.843,-0.8363,-0.835,0.0,0.0,-0.8464,-0.8738,-0.9038,-0.9183,-0.9183,-0.9512,-0.9699,0.0,0.0,0.0,0.0,0.0,0.0,-1.0624,0.0,-1.1142,-1.143,-1.173,-1.2017,-1.2291,-1.2305,-1.2305,-1.2305,-1.2318,-1.2625,-1.3213,-1.3227,-1.3534,-1.4088,-1.4088,-1.4088,-1.4088,-1.4088,-1.4088,-1.4088,-1.4088,-1.4095,-1.4135,-1.4409,-1.4536,-1.4636,-1.519,-1.5404,-1.5739,-1.7722,-1.8696,-1.9525,-2.174,-2.2726,-2.3135,-2.3135,-2.3135,-2.3135,-2.3135,-2.3135,-2.3047,-2.2646,-2.2549,-2.2549,-2.2549,-2.2236,-2.206,-2.2461,-2.2236,-2.1953,-2.1953,-2.1934,-2.1924,-2.1924,-2.1894,-2.1885,-2.1885,-2.1885,-2.1582,-2.0742,-2.0635,-2.0635,-2.0635,-2.0635,-2.0635,-2.0635,-2.0605,-2.1041,-2.1918,-2.1565,-2.2176,-2.3979,-2.3632,-2.3851,-2.4766,-2.4831,-2.4843,-2.4908,-2.5398,-2.5636,-2.5649,-2.6201,-2.6546,-0.7255,-0.7742,-0.823,-0.8604,-0.8697,-0.8717,-0.8791,-0.8644,-0.8464,-0.839,-0.8196,-0.8043,0.0,0.0,0.0,-0.847,-0.8911,0.0,-0.9183,-0.9679,0.0,-0.9706,0.0,-1.0281,-1.0134,-1.0514,0.0,0.0,-1.1149,-1.1443,-1.1744,-1.2031,-1.2225,-1.2298,-1.2305,-1.2305,-1.2305,-1.2518,-1.2826,-1.3213,-1.3427,-1.3728,-1.4088,-1.4088,-1.4088,-1.4088,-1.4088,-1.4088,-1.4088,-1.4088,-1.4215,-1.4416,-1.4489,-1.4783,-1.519,-1.5344,-1.5531,-1.5893,-1.7368,-1.8565,-1.9627,-2.1148,-2.2309,-2.3135,-2.3135,-2.3135,-2.3135,-2.3135,-2.3135,-2.3115,-2.3008,-2.2978,-2.2978,-2.2978,-2.29,-2.2852,-2.2959,-2.2891,-2.2822,-2.2822,-2.2568,-2.2353,-2.2353,-2.209,-2.1885,-2.1885,-2.1885,-2.1807,-2.1582,-2.1553,-2.1553,-2.1553,-2.1553,-2.1553,-2.1553,-2.125,-2.1134,-2.1362,-2.2348,-2.2812,-2.2592,-2.387,-2.4682,-2.4972,-2.4972,-2.533,-2.605,-2.6176,-2.6239,-2.6239,-2.6458,-2.6678,-0.7782,-0.821,-0.8604,-0.8764,-0.8804,-0.8778,-0.8644,-0.849,-0.8346,-0.8078,-0.7842,0.0,-0.7729,-0.7976,0.0,0.0,0.0,0.0,-0.9432,-0.994,-1.0254,0.0,-1.0361,0.0,-1.0501,-1.0802,-1.1096,0.0,-1.153,-1.169,-1.1864,-1.2144,-1.2305,-1.2305,-1.2305,-1.2365,-1.2492,-1.2735,-1.2966,-1.34,-1.3567,-1.3801,-1.4088,-1.4088,-1.4088,-1.4088,0.0,-1.4088,-1.4095,-1.4222,-1.4369,-1.4543,-1.4803,-1.511,-1.5411,-1.5538,-1.5691,-1.592,-1.6574,-1.7677,-1.9047,-2.0755,-2.2129,-2.3135,-2.3135,-2.2765,-2.2306,-2.2306,-2.1943,-2.1498,-2.1498,-2.1943,-2.2306,-2.2306,-2.2677,-2.3135,-2.3135,-2.3135,-2.3135,-2.3135,-2.2949,-2.2783,-2.2783,-2.2598,-2.2441,-2.2441,-2.2441,-2.2441,-2.2441,-2.2119,-2.1885,-2.1885,-2.1885,-2.1885,-2.1885,-2.166,-2.1523,-2.1523,-2.2354,-2.2734,-2.2558,-2.3623,-2.4362,-2.4599,-2.5283,-2.5697,-2.5873,-2.6731,-2.7055,-2.6829,-2.7067,-2.7344,-0.8303,-0.8584,-0.8804,-0.8804,-0.8804,-0.8731,-0.8437,-0.8343,-0.8156,-0.7627,0.0,-0.7453,-0.7453,-0.7695,-0.8016,-0.8277,0.0,-0.9639,-0.9679,-1.0154,-1.0577,-1.0618,-1.0658,-1.0715,-1.0969,-1.1062,-1.1323,-1.183,-1.1904,-1.1924,-1.1924,-1.2164,-1.2305,-1.2305,-1.2338,-1.2485,-1.2822,-1.2903,-1.3126,-1.3559,-1.3687,-1.3834,-1.4088,-1.4088,-1.4088,-1.4088,0.0,0.0,-1.4108,-1.4402,-1.4543,-1.4636,-1.5184,-1.5424,-1.5484,-1.5732,-1.5832,-1.5832,-1.5832,-1.6669,-1.8056,-2.0124,-2.1667,-2.2599,-2.2599,-2.1854,-2.1025,-2.1025,-2.0305,-1.9497,-1.9497,-2.0305,-2.1114,-2.1293,-2.212,-2.2862,-2.3057,-2.3135,-2.3135,-2.3135,-2.3135,-2.3135,-2.3135,-2.3135,-2.3135,-2.3135,-2.3135,-2.3135,-2.3135,-2.25,-2.2051,-2.2051,-2.2051,-2.2051,-2.2051,-2.2002,-2.1973,-2.1973,-2.207,-2.2421,-2.3101,-2.3241,-2.353,-2.4061,-2.5558,-2.5824,-2.4991,-2.6956,-2.7628,-2.7179,-2.7653,-2.7988,-0.8357,-0.8584,-0.8804,-0.8804,-0.8804,-0.8731,-0.8437,-0.8183,0.0,0.0,-0.7268,-0.7101,-0.7101,-0.7555,-0.7902,-0.8003,-0.8744,-0.9406,-0.9653,-0.998,-1.0281,0.0,-1.0775,-1.0942,-1.0989,-1.143,0.0,0.0,0.0,-1.2225,-1.2225,-1.2271,-1.2305,-1.2305,-1.2545,-1.2768,-1.2822,-1.324,-1.354,-1.3566,-1.3895,-1.4035,-1.4088,-1.4088,-1.4088,-1.4088,-1.4088,0.0,-1.4108,-1.4402,-1.4663,-1.4923,-1.5264,-1.5545,-1.5758,-1.5812,-1.5832,-1.5832,-1.5832,-1.6669,-1.7785,-1.8234,-1.9139,-2.0133,-2.0133,-1.9943,-1.9852,-1.9852,-1.967,-1.9497,-1.9497,-1.967,-2.0034,-2.1025,-2.148,-2.1845,-2.2862,-2.3135,-2.3135,-2.3135,-2.3135,-2.3135,-2.3135,-2.3135,-2.3135,-2.3135,-2.3135,-2.3135,-2.3135,-2.3018,-2.292,-2.292,-2.292,-2.292,-2.292,-2.2607,-2.2402,-2.2402,-2.2848,-2.2798,-2.2195,-2.2869,-2.337,-2.3446,-2.4636,-2.5147,-2.4801,-2.6165,-2.6764,-2.6668,-2.6764,-2.7505,-0.8557,-0.8704,-0.8804,-0.8804,-0.8804,-0.8691,-0.8243,0.0,0.0,0.0,-0.7121,-0.6979,-0.6979,-0.7477,0.0,-0.7882,-0.8619,-0.9345,-0.9646,-0.9933,-1.0281,-1.0735,-1.0909,-1.1116,0.0,-1.1703,0.0,0.0,0.0,-1.2305,-1.2305,-1.2305,-1.2371,-1.2525,-1.2748,-1.2899,-1.3206,-1.35,-1.3721,-1.3874,-1.4021,-1.4088,-1.4088,-1.4088,-1.4088,-1.4088,-1.4088,0.0,-1.4335,-1.4629,-1.4923,-1.5217,-1.5504,-1.5705,-1.5832,-1.5832,-1.5832,-1.5832,-1.5832,-1.6197,-1.6669,-1.6669,-1.7948,-1.9497,-1.9497,-1.9039,-1.8596,-1.8596,-1.8133,-1.7569,-1.7569,-1.8041,-1.8864,-2.0124,-2.1302,-2.2403,-2.296,-2.3135,-2.3135,-2.3135,-2.3135,-2.3135,-2.3135,-2.3135,-2.3135,-2.3135,-2.3135,-2.3135,-2.3135,-2.3135,-2.3135,-2.3135,-2.3135,-2.3135,-2.3135,-2.2959,-2.2832,-2.2832,-2.3043,-2.3008,-2.2539,-2.2924,-2.314,-2.2907,-2.4175,-2.4616,-2.4029,-2.5678,-2.6357,-2.6014,-2.6917,-2.7735,-0.8731,-0.8804,-0.8804,-0.8804,-0.8804,-0.8651,-0.8014,-0.7882,0.0,0.0,-0.6979,-0.6979,-0.6979,-0.7468,-0.7849,0.0,-0.8512,-0.9205,-0.9626,-0.988,-1.0261,0.0,-1.1049,0.0,-1.1817,-1.1924,0.0,0.0,0.0,0.0,-1.2305,-1.2365,-1.2505,-1.2815,-1.2872,-1.3166,-1.3641,-1.3707,-1.3854,-1.4088,-1.4088,-1.4088,-1.4088,-1.4088,-1.4088,-1.4088,-1.4088,0.0,0.0,-1.4843,-1.5137,-1.5424,-1.5718,-1.5832,-1.5832,-1.5832,-1.5832,-1.5832,-1.5832,-1.5832,-1.5832,-1.5832,-1.7109,-1.8672,-1.8672,-1.8041,-1.7318,-1.7318,-1.6574,-1.5832,-1.5832,-1.6574,-1.7591,-1.8856,-2.0773,-2.2403,-2.2677,-2.2677,-2.2775,-2.3047,-2.3135,-2.3135,-2.3135,-2.3135,-2.3135,-2.3135,-2.3135,-2.3135,-2.3135,-2.3135,-2.3135,-2.3135,-2.3135,-2.3135,-2.3135,-2.3135,-2.3135,-2.3135,-2.3135,-2.3135,-2.3135,-2.3135,-2.2988,-2.2656,-2.4036,-2.4263,-2.3227,-2.5178,-2.5848,-2.5473,-2.6748,-2.7683,-0.8731,-0.8804,-0.8804,-0.8804,-0.8804,-0.8651,-0.8014,0.0,-0.7709,-0.7105,-0.6979,-0.6979,-0.6979,-0.7288,-0.7602,-0.7835,0.0,-0.8744,-0.9566,-0.9706,-1.004,-1.0889,0.0,0.0,-1.1837,-1.2104,0.0,0.0,0.0,0.0,-1.2305,-1.2559,-1.2795,-1.2822,-1.328,-1.3587,-1.3559,-1.3908,-1.4062,-1.4088,-1.4088,-1.4088,-1.4088,-1.4088,-1.4088,-1.4088,-1.4088,0.0,0.0,-1.4843,-1.5137,-1.5424,-1.5718,-1.5832,-1.5832,-1.5832,-1.5832,-1.5832,-1.5832,-1.5832,-1.5832,-1.5832,-1.592,-1.6103,-1.6103,-1.6103,-1.6015,-1.6015,-1.592,-1.5832,-1.5832,-1.592,-1.6292,-1.7591,-1.8864,-2.0124,-2.1203,-2.148,-2.1756,-2.2862,-2.3135,-2.3135,-2.3135,-2.3135,-2.3135,-2.3135,-2.3135,-2.3135,-2.3135,-2.3135,-2.3135,-2.3135,-2.3135,-2.3135,-2.3135,-2.3135,-2.3135,-2.3135,-2.3135,-2.3135,-2.3135,-2.3135,-2.3125,-2.3086,-2.419,-2.4255,-2.3104,-2.4341,-2.4935,-2.4893,-2.5009,-2.6191,-0.8677,-0.8804,-0.8804,-0.8804,-0.8804,-0.8651,-0.8014,0.0,-0.7709,-0.7105,-0.6979,-0.6979,-0.6979,-0.7268,-0.7569,0.0,-0.8183,-0.8617,-0.9319,-0.9419,-0.9806,-1.0868,-1.1096,0.0,0.0,0.0,0.0,0.0,0.0,0.0,-1.2305,-1.2585,-1.2913,-1.3273,-1.352,-1.3728,-1.3908,-1.4028,-1.4088,-1.4088,-1.4088,-1.4088,-1.4088,-1.4088,-1.4088,-1.4088,-1.4088,0.0,0.0,-1.4917,-1.5237,-1.5665,-1.5785,-1.5832,-1.5832,-1.5832,-1.5832,-1.5832,-1.5832,-1.5832,-1.5832,-1.5832,-1.5832,-1.5832,-1.5832,-1.5832,-1.5832,-1.5832,-1.5832,-1.5832,-1.5832,-1.6386,-1.7037,-1.7598,-1.8588,-1.9852,-2.1025,-2.1293,-2.1658,-2.2862,-2.3135,-2.3135,-2.3135,-2.3135,-2.3135,-2.3135,-2.3135,-2.3135,-2.3135,-2.3135,-2.3135,-2.3135,-2.3135,-2.3135,-2.3135,-2.3135,-2.3135,-2.3135,-2.3135,-2.3135,-2.3135,-2.3135,-2.3135,-2.3135,-2.3551,-2.3551,-2.3135,-2.3551,-2.38,-2.38,-2.4457,-2.5619,-0.8568,-0.8744,-0.8804,-0.8804,-0.8744,-0.855,0.0,-0.7856,-0.7649,-0.7128,-0.6979,-0.6979,-0.6979,-0.7194,-0.7468,0.0,-0.811,-0.8477,-0.909,-0.9183,-0.9555,0.0,0.0,-1.1176,0.0,0.0,0.0,0.0,0.0,0.0,-1.2565,-1.2852,-1.3166,-1.3507,-1.3687,-1.3874,-1.4082,-1.4088,-1.4088,-1.4088,-1.4088,-1.4088,-1.4088,-1.4088,-1.4088,-1.4088,0.0,0.0,0.0,-1.5057,-1.5384,-1.5832,-1.5832,-1.5832,-1.5832,-1.5832,-1.5832,-1.5832,-1.5832,-1.5832,-1.5832,-1.5832,-1.5832,-1.5832,-1.5832,-1.5832,-1.5832,-1.5832,-1.5832,-1.5832,-1.5832,-1.648,-1.7131,-1.7131,-1.7762,-1.8848,-2.0395,-2.0755,-2.1212,-2.2775,-2.3135,-2.3135,-2.3135,-2.3135,-2.3135,-2.3135,-2.3135,-2.3135,-2.3135,-2.3135,-2.3135,-2.3135,-2.3135,-2.3135,-2.3135,-2.3135,-2.3135,-2.3135,-2.3135,-2.3135,-2.3135,-2.3135,-2.3135,-2.3135,-2.3135,-2.3135,-2.3135,-2.3135,-2.3135,-2.3135,-2.3877,-2.4882,-0.8364,-0.8591,-0.8804,-0.8804,-0.8591,-0.8303,-0.8003,-0.7689,-0.7426,-0.7088,-0.6979,-0.6979,-0.6979,-0.6985,-0.7184,-0.7782,-0.7888,-0.8187,-0.9064,-0.9183,-0.9402,0.0,0.0,-1.0795,0.0,0.0,0.0,0.0,0.0,0.0,-1.3186,-1.348,-1.3507,-1.3227,-1.3781,-1.4082,-1.4088,-1.4088,-1.4088,-1.4088,-1.4088,-1.4088,-1.4088,-1.4088,-1.4088,0.0,0.0,0.0,0.0,-1.5277,-1.5565,-1.5832,-1.5832,-1.5832,-1.5832,-1.5832,-1.5832,-1.5832,-1.5832,-1.5832,-1.5832,-1.5832,-1.5832,-1.5832,-1.5832,-1.5832,-1.5832,-1.5832,-1.5832,-1.5832,-1.5832,-1.5832,-1.5825,-1.5825,-1.5832,-1.6466,-1.8948,-1.9497,-2.0223,-2.2589,-2.3135,-2.3135,-2.3135,-2.3135,-2.3135,-2.3135,-2.3135,-2.3135,-2.3135,-2.3135,-2.3135,-2.3135,-2.3135,-2.3135,-2.3135,-2.3135,-2.3135,-2.3135,-2.3135,-2.3135,-2.3135,-2.3135,-2.3135,-2.3135,-2.3135,-2.3135,-2.3135,-2.3135,-2.3135,-2.3135,-2.3135,-2.3714,-0.8454,-0.8421,-0.821,-0.821,-0.8136,-0.7989,-0.7682,-0.758,-0.7426,-0.7088,-0.6979,-0.6979,-0.6979,-0.6979,-0.7178,-0.7782,-0.7882,0.0,0.0,0.0,0.0,-1.0327,-1.1209,-1.1313,0.0,0.0,0.0,0.0,0.0,0.0,-1.2879,-1.318,-1.3494,-1.3801,-1.3988,-1.4088,-1.4088,-1.4088,-1.4088,-1.4088,-1.4088,-1.4088,-1.4088,-1.4088,0.0,0.0,0.0,0.0,0.0,-1.5277,-1.5565,-1.5832,-1.5832,-1.5832,-1.5832,-1.5832,-1.5832,-1.5832,-1.5832,-1.5832,-1.5832,-1.5832,-1.5832,-1.5832,-1.5832,-1.5832,-1.5832,-1.5832,-1.5832,-1.5832,-1.5832,-1.5832,-1.5832,-1.5832,-1.5832,-1.6292,-1.7956,-1.8956,-1.9943,-2.1578,-2.258,-2.3135,-2.3135,-2.3135,-2.3135,-2.3135,-2.3135,-2.3135,-2.3135,-2.3135,-2.3135,-2.3135,-2.3135,-2.3135,-2.3135,-2.3135,-2.3135,-2.3135,-2.3135,-2.3135,-2.3135,-2.3135,-2.3135,-2.3135,-2.3135,-2.3135,-2.3135,-2.3135,-2.3135,-2.3135,-2.3887,-2.4049,0.0,-0.8028,-0.7782,-0.7855,-0.7842,-0.7702,-0.7553,-0.7381,-0.7335,-0.7321,-0.7154,-0.7147,-0.7558,-0.7273,-0.7224,-0.7951,-0.795,0.0,0.0,0.0,0.0,-0.9932,0.0,0.0,0.0,0.0,0.0,0.0,0.0,0.0,-1.2344,-1.2969,-1.3594,-1.4075,-1.4088,-1.4088,-1.4088,-1.4088,-1.4088,-1.4088,-1.4088,-1.4088,-1.4088,-1.4088,0.0,0.0,0.0,0.0,0.0,-1.5277,-1.5565,-1.5832,-1.5832,-1.5832,-1.5832,-1.5832,-1.5832,-1.5832,-1.5832,-1.5832,-1.5832,-1.5832,-1.5832,-1.5832,-1.5832,-1.5832,-1.5832,-1.5832,-1.5832,-1.5832,-1.5832,-1.5832,-1.5832,-1.5832,-1.5832,-1.6109,-1.7412,-1.8319,-1.9314,-2.1025,-2.1933,-2.2637,-2.3261,-2.3242,-2.3193,-2.3359,-2.3242,-2.3135,-2.3135,-2.3281,-2.3389,-2.3389,-2.3525,-2.3555,-2.3398,-2.3232,-2.3135,-2.3135,-2.3135,-2.3135,-2.3135,-2.3135,-2.3135,-2.3135,-2.3135,-2.3135,-2.3135,-2.3135,-2.3135,-2.3135,-2.38,-2.38,0.0,-0.7489,-0.7486,-0.7736,-0.7602,-0.7446,-0.7446,-0.7208,0.0,-0.7787,-0.7447,-0.7405,-0.8545,-0.7829,-0.7348,-0.8231,-0.8126,0.0,0.0,-0.8884,0.0,0.0,-0.8664,0.0,0.0,0.0,0.0,0.0,0.0,0.0,-1.1564,-1.28,-1.3589,-1.3984,-1.4088,-1.4088,-1.4088,-1.4088,-1.4088,-1.4088,-1.4088,-1.4088,-1.4088,-1.4088,0.0,0.0,0.0,0.0,0.0,-1.5277,-1.5565,-1.5832,-1.5832,-1.5832,-1.5832,-1.5832,-1.5832,-1.5832,-1.5832,-1.5832,-1.5832,-1.5832,-1.5832,-1.5832,-1.5832,-1.5832,-1.5832,-1.5832,-1.5832,-1.5832,-1.5832,-1.5832,-1.5832,-1.5832,-1.5832,-1.6103,-1.7318,-1.7613,-1.8357,-2.061,-2.1266,-2.1869,-2.339,-2.3407,-2.3369,-2.3779,-2.3486,-2.3232,-2.3232,-2.3584,-2.3838,-2.3838,-2.418,-2.4258,-2.3867,-2.3437,-2.3174,-2.3135,-2.3135,-2.3135,-2.3135,-2.3135,-2.3135,-2.3135,-2.3135,-2.3135,-2.3135,-2.3135,-2.3135,-2.3135,-2.3135,-2.3135,-0.7059,0.0,-0.6525,-0.6592,-0.6727,-0.6794,0.0,-0.6914,0.0,0.0,0.0,-0.7979,-0.8988,-0.8364,-0.8011,-0.8969,0.0,0.0,-0.8631,0.0,0.0,-0.8607,0.0,0.0,0.0,0.0,0.0,0.0,0.0,-0.9072,-1.0246,-1.1468,-1.2292,-1.2747,-1.3646,-1.4088,-1.4088,-1.4088,-1.4088,-1.4088,-1.4088,-1.4088,-1.4088,-1.4088,0.0,0.0,0.0,0.0,-1.4983,-1.5277,-1.5565,-1.5832,-1.5832,-1.5832,-1.5832,-1.5832,-1.5832,-1.5832,-1.5832,-1.5832,-1.5832,-1.5832,-1.5832,-1.5832,-1.5832,-1.5832,-1.5832,-1.5832,-1.5832,-1.5832,-1.5832,-1.5832,-1.5832,-1.5832,-1.5832,-1.5927,-1.6204,-1.713,-1.8145,-1.8698,-2.061,-2.2258,-2.2647,-2.3528,-2.415,-2.4258,-2.418,-2.4111,-2.4111,-2.4199,-2.4268,-2.4268,-2.4355,-2.4375,-2.4277,-2.3887,-2.3496,-2.3164,-2.3135,-2.3135,-2.3135,-2.3135,-2.3135,-2.3135,-2.3135,-2.3135,-2.3135,-2.3135,-2.3135,-2.3135,-2.3135,-2.3135,-0.6782,-0.6598,-0.6474,-0.6395,-0.6573,-0.6787,-0.6787,0.0,0.0,0.0,0.0,0.0,-0.9544,0.0,0.0,0.0,-0.8618,0.0,0.0,0.0,0.0,-0.7932,0.0,0.0,0.0,0.0,0.0,0.0,0.0,-0.8212,-0.9058,-1.0215,-1.1258,-1.2146,-1.288,-1.3555,-1.4088,-1.4088,-1.4088,-1.4088,-1.4088,-1.4088,-1.4088,-1.4088,-1.4088,0.0,0.0,0.0,-1.4977,-1.5137,-1.5444,-1.5832,-1.5832,-1.5832,-1.5832,-1.5832,-1.5832,-1.5832,-1.5832,-1.5832,-1.5832,-1.5832,-1.5832,-1.5832,-1.5832,-1.5832,-1.5832,-1.5832,-1.5832,-1.5832,-1.5832,-1.5832,-1.5865,-1.5999,-1.6032,-1.6066,-1.6199,-1.6835,-1.7624,-1.82,-2.0062,-2.1796,-2.2554,-2.3589,-2.4482,-2.4687,-2.4551,-2.4414,-2.4414,-2.459,-2.4717,-2.4717,-2.4902,-2.4941,-2.4736,-2.4512,-2.4111,-2.3477,-2.3437,-2.335,-2.3144,-2.3135,-2.3135,-2.3135,-2.3135,-2.3135,-2.3135,-2.3135,-2.3135,-2.3135,-2.3135,-2.3135,-0.6867,-0.688,-0.6878,-0.6528,-0.6707,-0.6954,-0.6954,0.0,0.0,0.0,0.0,0.0,0.0,0.0,0.0,0.0,0.0,0.0,-0.867,-0.7644,0.0,0.0,0.0,0.0,0.0,0.0,0.0,0.0,0.0,-0.7708,-0.7886,-0.9025,-1.0371,-1.1781,-1.1945,-1.2681,-1.4088,-1.4088,-1.4088,-1.4088,-1.4088,-1.4088,-1.4088,-1.4088,-1.4088,0.0,0.0,0.0,-1.497,-1.501,-1.5344,-1.5832,-1.5832,-1.5832,-1.5832,-1.5832,-1.5832,-1.5832,-1.5832,-1.5832,-1.5832,-1.5832,-1.5832,-1.5832,-1.5832,-1.5832,-1.5832,-1.5832,-1.5832,-1.5838,-1.5885,-1.5899,-1.5972,-1.6266,-1.6339,-1.6406,-1.6653,-1.674,-1.7068,-1.8144,-1.9442,-2.0931,-2.2522,-2.3586,-2.4446,-2.4813,-2.475,-2.4516,-2.433,-2.4837,-2.5166,-2.5166,-2.5508,-2.5586,-2.5205,-2.5166,-2.4834,-2.4033,-2.3926,-2.3721,-2.335,-2.3271,-2.3242,-2.3242,-2.3174,-2.3135,-2.3135,-2.3135,-2.3174,-2.3242,-2.3164,-2.3213,-0.8003,-0.787,-0.7356,-0.6137,-0.6259,-0.6653,0.0,0.0,0.0,0.0,0.0,0.0,0.0,0.0,0.0,0.0,0.0,0.0,0.0,0.0,0.0,0.0,0.0,0.0,0.0,0.0,0.0,0.0,0.0,0.0,-0.6784,-0.7979,-0.9224,-1.0601,-1.083,-1.1906,-1.4088,-1.4088,-1.4088,-1.4088,-1.4088,-1.4088,-1.4088,-1.4088,-1.4088,0.0,0.0,-1.4649,-1.4983,-1.5224,-1.5524,-1.5832,-1.5832,-1.5832,-1.5832,-1.5832,-1.5832,-1.5832,-1.5832,-1.5832,-1.5832,-1.5832,-1.5832,-1.5832,-1.5832,-1.5832,-1.5832,-1.5832,-1.5832,-1.5885,-1.6139,-1.6206,-1.6279,-1.6567,-1.664,-1.6653,-1.6693,-1.6907,-1.7183,-1.7381,-1.8687,-2.0194,-2.1661,-2.2936,-2.3825,-2.3889,-2.4868,-2.5121,-2.3904,-2.4878,-2.5635,-2.5635,-2.5693,-2.5713,-2.5644,-2.5635,-2.542,-2.4902,-2.4531,-2.4287,-2.4219,-2.3877,-2.3691,-2.3691,-2.333,-2.3135,-2.3135,-2.3135,-2.333,-2.3682,-2.331,-2.3525,-0.7094,-0.7308,-0.7375,-0.6435,-0.6754,-0.7275,0.0,0.0,0.0,0.0,0.0,0.0,0.0,0.0,0.0,0.0,0.0,0.0,0.0,0.0,0.0,0.0,0.0,0.0,0.0,0.0,0.0,0.0,0.0,0.0,0.0,0.0,-0.8036,-0.9266,-0.9582,-1.0783,-1.3118,-1.3118,-1.3464,-1.4088,-1.4088,-1.4088,-1.4088,-1.4088,-1.4088,-1.4102,0.0,-1.4689,-1.4983,-1.5277,-1.5565,-1.5832,-1.5832,-1.5832,-1.5832,-1.5832,-1.5832,-1.5832,-1.5832,-1.5832,-1.5832,-1.5832,-1.5832,-1.5832,-1.5832,-1.5832,-1.5865,-1.6025,-1.6072,-1.6099,-1.6239,-1.6386,-1.658,-1.6874,-1.6947,-1.6987,-1.7148,-1.7288,-1.7382,-1.7382,-1.8615,-1.9834,-2.0436,-2.1752,-2.2667,-2.2667,-2.3176,-2.3592,-2.3692,-2.3583,-2.3791,-2.451,-2.4609,-2.4609,-2.4609,-2.5323,-2.5547,-2.5098,-2.4658,-2.4414,-2.4414,-2.4228,-2.4121,-2.4121,-2.3711,-2.3603,-2.3828,-2.3603,-2.3711,-2.4121,-2.3926,-2.4043,-0.6522,-0.6877,-0.7293,0.0,0.0,0.0,0.0,0.0,0.0,0.0,0.0,0.0,0.0,0.0,0.0,0.0,0.0,0.0,0.0,0.0,0.0,0.0,0.0,0.0,0.0,0.0,0.0,0.0,0.0,0.0,0.0,0.0,-0.723,-0.8397,-0.8603,-0.9909,-1.2237,-1.2263,-1.288,-1.4088,-1.4088,-1.4088,-1.4088,-1.4088,-1.4088,-1.4108,-1.4469,-1.475,-1.499,-1.5351,-1.5625,-1.5832,-1.5832,-1.5832,-1.5832,-1.5832,-1.5832,-1.5832,-1.5832,-1.5832,-1.5832,-1.5832,-1.5832,-1.5832,-1.5832,-1.5879,-1.5979,-1.6213,-1.6373,-1.648,-1.648,-1.664,-1.6881,-1.7181,-1.7248,-1.7315,-1.7535,-1.7582,-1.7582,-1.7582,-1.8401,-1.922,-1.9524,-2.0538,-2.1245,-2.1245,-2.1448,-2.1954,-2.2667,-2.2156,-2.2055,-2.3076,-2.3276,-2.3384,-2.3683,-2.4922,-2.5596,-2.5244,-2.4912,-2.4727,-2.4727,-2.4629,-2.457,-2.457,-2.415,-2.4092,-2.4414,-2.4092,-2.416,-2.456,-2.4463,-2.4521,-0.777,-0.7624,-0.7361,0.0,0.0,0.0,0.0,0.0,0.0,0.0,0.0,0.0,0.0,0.0,0.0,0.0,0.0,0.0,0.0,0.0,0.0,0.0,0.0,0.0,0.0,0.0,0.0,0.0,0.0,0.0,0.0,0.0,0.0,-0.8397,-0.8267,-0.9526,-1.2237,-1.2093,-1.2696,-1.4088,-1.4088,-1.4088,-1.4088,-1.4088,-1.4088,-1.4122,-1.4683,-1.4943,-1.501,-1.5565,-1.5812,-1.5832,-1.5832,-1.5832,-1.5832,-1.5832,-1.5832,-1.5832,-1.5832,-1.5832,-1.5832,-1.5832,-1.5832,-1.5832,-1.5832,-1.6019,-1.6246,-1.6266,-1.6667,-1.719,-1.719,-1.7101,-1.7194,-1.7482,-1.7549,-1.7555,-1.7582,-1.7582,-1.7582,-1.7582,-1.7687,-1.8094,-1.9428,-1.9731,-1.9731,-1.9731,-2.0837,-2.1245,-2.0033,-2.0939,-2.1752,-2.1853,-2.1853,-2.2366,-2.3583,-2.4922,-2.5723,-2.5693,-2.5664,-2.5644,-2.5644,-2.5244,-2.5019,-2.5019,-2.459,-2.4385,-2.4414,-2.4385,-2.46,-2.501,-2.4609,-2.4853,-0.6558,-0.6937,-0.7233,0.0,0.0,0.0,0.0,0.0,0.0,0.0,0.0,0.0,0.0,0.0,0.0,0.0,0.0,0.0,0.0,0.0,0.0,0.0,0.0,0.0,0.0,0.0,0.0,0.0,0.0,0.0,0.0,0.0,0.0,-0.7193,-0.7861,-0.8778,-1.0059,-1.1238,-1.2248,-1.3027,-1.373,-1.4088,-1.4088,-1.4088,-1.4088,-1.4122,-1.471,-1.4963,-1.501,-1.5591,-1.5832,-1.5832,-1.5832,-1.5832,-1.5832,-1.5832,-1.5832,-1.5832,-1.5832,-1.5832,-1.5832,-1.5832,-1.5832,-1.5832,-1.5832,-1.6039,-1.6306,-1.6493,-1.6834,-1.7148,-1.7148,-1.7281,-1.7442,-1.7555,-1.7582,-1.7582,-1.7582,-1.7582,-1.7582,-1.7582,-1.7582,-1.7786,-1.8304,-1.8401,-1.8401,-1.8401,-1.8805,-1.9213,-1.9524,-1.9317,-1.9524,-2.0333,-2.1143,-2.2257,-2.3583,-2.4922,-2.5742,-2.5742,-2.5742,-2.5742,-2.5742,-2.5576,-2.5488,-2.5488,-2.5049,-2.4961,-2.5234,-2.4961,-2.5049,-2.5478,-2.5312,-2.542,-0.5841,-0.6428,-0.7004,0.0,0.0,0.0,0.0,0.0,0.0,0.0,0.0,0.0,0.0,0.0,0.0,0.0,0.0,0.0,0.0,0.0,0.0,0.0,0.0,0.0,0.0,0.0,0.0,0.0,0.0,0.0,0.0,0.0,0.0,0.0,-0.7564,-0.8273,-0.8598,-1.0755,-1.1958,-1.221,-1.3516,-1.4088,-1.4088,-1.4088,-1.4088,-1.4122,-1.471,-1.4963,-1.501,-1.5591,-1.5832,-1.5832,-1.5832,-1.5832,-1.5832,-1.5832,-1.5832,-1.5832,-1.5832,-1.5832,-1.5832,-1.5832,-1.5832,-1.5832,-1.5832,-1.6099,-1.6446,-1.6653,-1.6987,-1.7288,-1.7288,-1.7435,-1.7582,-1.7582,-1.7582,-1.7582,-1.7582,-1.7582,-1.7582,-1.7582,-1.7582,-1.7582,-1.7582,-1.7582,-1.7582,-1.7582,-1.7582,-1.7891,-1.8812,-1.8199,-1.7996,-1.8916,-2.0633,-2.2055,-2.2976,-2.4716,-2.5742,-2.5742,-2.5742,-2.5742,-2.5742,-2.5742,-2.5742,-2.5742,-2.5439,-2.543,-2.5742,-2.543,-2.5439,-2.5742,-2.5742,-2.5742,-0.6109,-0.6404,0.0,0.0,0.0,0.0,0.0,0.0,0.0,0.0,0.0,0.0,0.0,0.0,0.0,0.0,0.0,0.0,0.0,0.0,0.0,0.0,0.0,0.0,0.0,0.0,0.0,0.0,0.0,0.0,0.0,0.0,0.0,0.0,-0.7336,-0.7956,-0.8393,-1.0595,-1.1792,-1.2135,-1.3426,-1.4088,-1.4088,-1.4088,-1.4088,-1.4122,-1.4703,-1.4963,-1.501,-1.5591,-1.5832,-1.5832,-1.5832,-1.5832,-1.5832,-1.5832,-1.5832,-1.5832,-1.5832,-1.5832,-1.5832,-1.5832,-1.5832,-1.5832,-1.5832,-1.6239,-1.6707,-1.6707,-1.7128,-1.7582,-1.7582,-1.7582,-1.7582,-1.7582,-1.7582,-1.7582,-1.7582,-1.7582,-1.7582,-1.7582,-1.7582,-1.7582,-1.7582,-1.7582,-1.7582,-1.7582,-1.7582,-1.7582,-1.7582,-1.7582,-1.7582,-1.7582,-2.0025,-2.1752,-2.1752,-2.4196,-2.5742,-2.5742,-2.5742,-2.5742,-2.5742,-2.5742,-2.5742,-2.5742,-2.5742,-2.5742,-2.5742,-2.5742,-2.5742,-2.5742,-2.5742,-2.5742,-0.5765,-0.6212,0.0,0.0,0.0,0.0,0.0,0.0,0.0,0.0,0.0,0.0,0.0,0.0,0.0,0.0,0.0,0.0,0.0,0.0,0.0,0.0,0.0,0.0,0.0,0.0,0.0,0.0,0.0,0.0,0.0,0.0,0.0,0.0,-0.7277,-0.7892,-0.8125,-1.0519,-1.1786,-1.1958,-1.3419,-1.4088,-1.4088,-1.4088,-1.4088,-1.4108,-1.4489,-1.477,-1.501,-1.5591,-1.5832,-1.5832,-1.5832,-1.5832,-1.5832,-1.5832,-1.5832,-1.5832,-1.5832,-1.5832,-1.5832,-1.5832,-1.5832,-1.5872,-1.6079,-1.6406,-1.6747,-1.6961,-1.7295,-1.7582,-1.7582,-1.7582,-1.7582,-1.7582,-1.7582,-1.7582,-1.7582,-1.7582,-1.7582,-1.7582,-1.7582,-1.7582,-1.7582,-1.7582,-1.7582,-1.7582,-1.7582,-1.7582,-1.7582,-1.7582,-1.7996,-1.8916,-2.0641,-2.2055,-2.3076,-2.4716,-2.5742,-2.5742,-2.5742,-2.5742,-2.5742,-2.5742,-2.5742,-2.5742,-2.5742,-2.5742,-2.5742,-2.5742,-2.5742,-2.5742,-2.5742,-2.5742,-0.5952,0.0,0.0,0.0,0.0,0.0,0.0,0.0,0.0,0.0,0.0,0.0,0.0,0.0,0.0,0.0,0.0,0.0,0.0,0.0,0.0,0.0,0.0,0.0,0.0,0.0,0.0,0.0,0.0,0.0,0.0,0.0,0.0,0.0,-0.6868,-0.7223,-0.7321,-0.9711,-1.0986,-1.1226,-1.3003,-1.3975,-1.4088,-1.4088,-1.4088,-1.4108,-1.4516,-1.4863,-1.517,-1.5638,-1.5832,-1.5832,-1.5832,-1.5832,-1.5832,-1.5832,-1.5832,-1.5832,-1.5832,-1.5832,-1.5832,-1.5832,-1.5832,-1.5885,-1.6186,-1.6473,-1.6767,-1.7068,-1.7361,-1.7582,-1.7582,-1.7582,-1.7582,-1.7582,-1.7582,-1.7582,-1.7582,-1.7582,-1.7582,-1.7582,-1.7582,-1.7582,-1.7582,-1.7582,-1.7582,-1.7582,-1.7582,-1.7582,-1.7582,-1.7582,-1.8094,-1.942,-2.0837,-2.2257,-2.3583,-2.4922,-2.5742,-2.5742,-2.5742,-2.5742,-2.5742,-2.5742,-2.5742,-2.5742,-2.5742,-2.5742,-2.5742,-2.5742,-2.5742,-2.5742,-2.5742,-2.5742,0.0,0.0,0.0,0.0,0.0,0.0,0.0,0.0,0.0,0.0,0.0,0.0,0.0,0.0,0.0,0.0,0.0,0.0,0.0,0.0,0.0,0.0,0.0,0.0,0.0,0.0,0.0,0.0,0.0,0.0,0.0,0.0,0.0,-0.6338,-0.6338,-0.6338,-0.6412,-0.8585,-0.9884,0.0,-1.2575,-1.3781,-1.4048,-1.4075,-1.4088,-1.4122,-1.4676,-1.509,-1.5378,-1.5671,-1.5805,-1.5832,-1.5832,-1.5832,-1.5832,-1.5832,-1.5832,-1.5832,-1.5832,-1.5832,-1.5832,-1.5832,-1.5832,-1.5885,-1.6213,-1.65,-1.6774,-1.7094,-1.7382,-1.7582,-1.7582,-1.7582,-1.7582,-1.7582,-1.7582,-1.7582,-1.7582,-1.7582,-1.7582,-1.7582,-1.7582,-1.7582,-1.7582,-1.7582,-1.7582,-1.7582,-1.7609,-1.7622,-1.7622,-1.7649,-1.8177,-1.9509,-2.0941,-2.2359,-2.3691,-2.5026,-2.5752,-2.5654,-2.5713,-2.5693,-2.5586,-2.5655,-2.5742,-2.5742,-2.5742,-2.5742,-2.5742,-2.5742,-2.5742,-2.5742,-2.5742,-2.5742,0.0,0.0,0.0,0.0,0.0,0.0,0.0,0.0,0.0,0.0,0.0,0.0,0.0,0.0,0.0,0.0,0.0,0.0,0.0,0.0,0.0,0.0,0.0,0.0,0.0,0.0,0.0,0.0,0.0,0.0,0.0,0.0,0.0,-0.6338,-0.6338,-0.6641,-0.748,-0.897,-1.0121,0.0,-1.273,-1.3674,-1.3748,-1.3981,-1.4088,-1.4108,-1.4462,-1.4783,-1.5077,-1.5371,-1.5625,-1.5832,-1.5832,-1.5832,-1.5832,-1.5832,-1.5832,-1.5832,-1.5832,-1.5832,-1.5832,-1.5832,-1.5832,-1.5925,-1.6453,-1.6653,-1.6814,-1.7341,-1.7535,-1.7582,-1.7582,-1.7582,-1.7582,-1.7582,-1.7582,-1.7582,-1.7582,-1.7582,-1.7582,-1.7582,-1.7582,-1.7582,-1.7582,-1.7582,-1.7582,-1.7582,-1.7789,-1.7949,-1.7949,-1.815,-1.8823,-2.0182,-2.1557,-2.3035,-2.4405,-2.5888,-2.6212,-2.5041,-2.5796,-2.5724,-2.4464,-2.529,-2.5742,-2.5742,-2.5742,-2.5742,-2.5742,-2.5742,-2.5742,-2.5742,-2.5742,-2.5742,0.0,0.0,0.0,0.0,0.0,0.0,0.0,0.0,0.0,0.0,0.0,0.0,0.0,0.0,0.0,0.0,0.0,0.0,0.0,0.0,0.0,0.0,0.0,0.0,0.0,0.0,0.0,0.0,0.0,0.0,0.0,-0.6338,-0.6338,-0.6338,-0.6338,-0.6567,-0.7099,-0.8721,-0.9834,-1.0489,-1.2346,-1.336,-1.3572,-1.3948,-1.4088,-1.4102,-1.4396,-1.4689,-1.4983,-1.5277,-1.5565,-1.5832,-1.5832,-1.5832,-1.5832,-1.5832,-1.5832,-1.5832,-1.5832,-1.5832,-1.5832,-1.5832,-1.5832,-1.5939,-1.6526,-1.6707,-1.6827,-1.7415,-1.7582,-1.7582,-1.7582,-1.7582,-1.7582,-1.7582,-1.7582,-1.7582,-1.7582,-1.7582,-1.7582,-1.7582,-1.7582,-1.7582,-1.7582,-1.7709,-1.7756,-1.7602,-1.7889,-1.815,-1.825,-1.8397,-1.8843,-1.9583,-2.0347,-2.1588,-2.35,-2.4446,-2.4551,-2.3702,-2.426,-2.4383,-2.4065,-2.4601,-2.522,-2.5645,-2.5742,-2.5742,-2.5742,-2.5742,-2.5742,-2.5742,-2.5742,-2.5742,0.0,0.0,0.0,0.0,0.0,0.0,0.0,0.0,0.0,0.0,0.0,0.0,0.0,0.0,0.0,0.0,0.0,0.0,0.0,0.0,0.0,0.0,0.0,0.0,0.0,0.0,0.0,0.0,0.0,0.0,-0.6338,-0.6338,-0.6338,-0.6338,-0.6493,-0.649,-0.6338,-0.8461,-0.9616,-0.9647,-1.1781,-1.306,-1.3654,-1.3901,-1.4041,-1.4102,-1.4342,-1.4616,-1.491,-1.5204,-1.5491,-1.5758,-1.5812,-1.5832,-1.5832,-1.5832,-1.5832,-1.5832,-1.5832,-1.5832,-1.5832,-1.5832,-1.5832,-1.5939,-1.6526,-1.6707,-1.6827,-1.7415,-1.7582,-1.7582,-1.7582,-1.7582,-1.7582,-1.7582,-1.7582,-1.7582,-1.7582,-1.7582,-1.7582,-1.7582,-1.7622,-1.7682,-1.7729,-1.7923,-1.7983,-1.7729,-1.8009,-1.831,-1.847,-1.8577,-1.8704,-1.8865,-1.8885,-1.9794,-2.2201,-2.2616,-2.2616,-2.2401,-2.2551,-2.2911,-2.354,-2.3994,-2.4601,-2.5439,-2.5576,-2.5742,-2.5742,-2.5742,-2.5742,-2.5742,-2.5742,-2.5742,0.0,0.0,0.0,0.0,0.0,0.0,0.0,0.0,0.0,0.0,0.0,0.0,0.0,0.0,0.0,0.0,0.0,0.0,0.0,0.0,0.0,0.0,0.0,0.0,0.0,0.0,0.0,0.0,0.0,0.0,-0.6338,-0.6338,-0.6338,-0.6338,-0.7176,-0.7173,-0.6338,-0.913,-1.0207,-0.9342,-1.1701,-1.306,-1.3559,-1.3687,-1.3841,-1.4088,-1.4128,-1.4309,-1.4603,-1.4903,-1.519,-1.5478,-1.5732,-1.5832,-1.5832,-1.5832,-1.5832,-1.5832,-1.5832,-1.5832,-1.5832,-1.5832,-1.5832,-1.5939,-1.6526,-1.6707,-1.6827,-1.7415,-1.7582,-1.7582,-1.7582,-1.7582,-1.7582,-1.7582,-1.7582,-1.7582,-1.7582,-1.7582,-1.7582,-1.7582,-1.7802,-1.807,-1.8323,-1.8263,-1.8163,-1.8123,-1.831,-1.8464,-1.849,-1.8938,-1.9259,-1.9285,-1.9292,-1.9943,-2.1572,-2.2903,-2.3118,-2.179,-2.2624,-2.2541,-2.1399,-2.347,-2.4593,-2.4307,-2.5201,-2.5742,-2.5742,-2.5742,-2.5742,-2.5742,-2.5742,-2.5742,0.0,0.0,0.0,0.0,0.0,0.0,0.0,0.0,0.0,0.0,0.0,0.0,0.0,0.0,0.0,0.0,0.0,0.0,0.0,0.0,0.0,0.0,0.0,0.0,0.0,0.0,0.0,0.0,0.0,-0.6003,-0.6003,-0.6084,-0.6132,-0.6132,-0.7198,-0.7326,-0.6338,-0.9281,-1.0864,-1.1025,-1.222,-1.2973,-1.3407,-1.3567,-1.3808,-1.4088,-1.4088,-1.4255,-1.4543,-1.4843,-1.5137,-1.5424,-1.5718,-1.5832,-1.5832,-1.5832,-1.5832,-1.5832,-1.5832,-1.5832,-1.5832,-1.5832,-1.5832,-1.5939,-1.6526,-1.6707,-1.6827,-1.7415,-1.7582,-1.7582,-1.7582,-1.7582,-1.7582,-1.7582,-1.7582,-1.7582,-1.7582,-1.7582,-1.7629,-1.7809,-1.809,-1.8303,-1.8323,-1.8437,-1.8377,-1.7923,-1.8497,-1.8978,-1.8978,-1.9205,-1.9366,-1.9366,-1.9366,-1.9707,-2.0256,-2.0931,-2.1038,-2.0371,-2.08,-2.0965,-2.0877,-2.2803,-2.4052,-2.4508,-2.5581,-2.5977,-2.5742,-2.5742,-2.5742,-2.5742,-2.5742,-2.5742,0.0,0.0,0.0,0.0,0.0,0.0,0.0,0.0,0.0,0.0,0.0,0.0,0.0,0.0,0.0,0.0,0.0,0.0,0.0,0.0,0.0,0.0,0.0,0.0,0.0,0.0,0.0,0.0,0.0,-0.58,-0.58,-0.5911,-0.5989,-0.6027,-0.7409,-0.7656,-0.6718,-0.9432,-1.1316,-1.2305,-1.2525,-1.2839,-1.322,-1.3434,-1.3734,-1.4088,-1.4088,-1.4208,-1.4436,-1.481,-1.509,-1.5324,-1.5691,-1.5832,-1.5832,-1.5832,-1.5832,-1.5832,-1.5832,-1.5832,-1.5832,-1.5832,-1.5832,-1.5939,-1.6526,-1.6707,-1.6827,-1.7415,-1.7582,-1.7582,-1.7582,-1.7582,-1.7582,-1.7582,-1.7582,-1.7602,-1.7682,-1.7702,-1.7809,-1.8196,-1.845,-1.8577,-1.851,-1.8738,-1.8731,-1.8123,-1.8798,-1.9366,-1.9366,-1.9366,-1.9366,-1.9366,-1.9366,-1.9366,-1.9366,-1.9366,-1.9366,-1.9366,-1.9366,-1.9713,-2.0463,-2.2332,-2.3686,-2.4386,-2.5909,-2.6445,-2.5908,-2.5791,-2.5742,-2.5742,-2.585,-2.5908,0.0,0.0,0.0,0.0,0.0,0.0,0.0,0.0,0.0,0.0,0.0,0.0,0.0,0.0,0.0,0.0,0.0,0.0,0.0,0.0,0.0,0.0,0.0,0.0,0.0,0.0,0.0,0.0,0.0,-0.58,-0.58,-0.581,-0.5881,-0.6023,-0.7946,-0.8635,-0.7706,-0.9734,-1.1316,-1.2305,-1.2318,-1.2639,-1.3213,-1.3227,-1.3547,-1.4088,-1.4088,-1.4095,-1.4155,-1.473,-1.497,-1.5044,-1.5611,-1.5832,-1.5832,-1.5832,-1.5832,-1.5832,-1.5832,-1.5832,-1.5832,-1.5832,-1.5832,-1.5939,-1.6526,-1.6707,-1.6827,-1.7415,-1.7582,-1.7582,-1.7582,-1.7582,-1.7582,-1.7582,-1.7582,-1.7662,-1.7956,-1.8023,-1.819,-1.8764,-1.8891,-1.8985,-1.9259,-1.9325,-1.9325,-1.9279,-1.9325,-1.9366,-1.9366,-1.9366,-1.9366,-1.9366,-1.9366,-1.9366,-1.9366,-1.9366,-1.9366,-1.9366,-1.9366,-1.9475,-1.9455,-2.2243,-2.3632,-2.3269,-2.6185,-2.7187,-2.6357,-2.5937,-2.5742,-2.5752,-2.6162,-2.6357,0.0,0.0,0.0,0.0,0.0,0.0,0.0,0.0,0.0,0.0,0.0,0.0,0.0,0.0,0.0,0.0,0.0,0.0,0.0,0.0,0.0,0.0,0.0,0.0,0.0,0.0,0.0,0.0,0.0,0.0,-0.5518,-0.5613,-0.5965,-0.6577,-0.8236,-0.9579,-1.0714,-1.0789,-1.1316,-1.2305,-1.2305,-1.2625,-1.3213,-1.3213,-1.3534,-1.4088,-1.4088,-1.4088,-1.4135,-1.4723,-1.4963,-1.5023,-1.5605,-1.5832,-1.5832,-1.5832,-1.5832,-1.5832,-1.5832,-1.5832,-1.5832,-1.5832,-1.5959,-1.6186,-1.6587,-1.684,-1.7074,-1.7468,-1.7582,-1.7582,-1.7582,-1.7582,-1.7629,-1.7816,-1.7916,-1.809,-1.8517,-1.8611,-1.8671,-1.8885,-1.9078,-1.9239,-1.9352,-1.9366,-1.9366,-1.9366,-1.9366,-1.9366,-1.9366,-1.9366,-1.9366,-1.9366,-1.9366,-1.9366,-1.9366,-1.9366,-1.9366,-1.9366,-1.9366,-1.9366,-1.9366,-2.1373,-2.2759,-2.3529,-2.5371,-2.639,-2.6787,-2.6631,-2.6553,-2.6562,-2.6719,-2.6797,-0.4375,0.0,0.0,0.0,0.0,0.0,0.0,0.0,0.0,0.0,0.0,0.0,0.0,0.0,0.0,0.0,0.0,0.0,0.0,0.0,0.0,0.0,0.0,0.0,0.0,0.0,0.0,0.0,0.0,0.0,-0.5428,-0.5457,-0.6139,-0.7342,-0.8791,-1.0344,-1.2158,-1.1569,-1.162,-1.2305,-1.2305,-1.2565,-1.306,-1.3166,-1.3474,-1.3941,-1.4041,-1.4088,-1.4135,-1.4723,-1.4963,-1.5023,-1.5605,-1.5832,-1.5832,-1.5832,-1.5832,-1.5832,-1.5832,-1.5832,-1.5832,-1.5832,-1.6032,-1.6326,-1.662,-1.6914,-1.7215,-1.7502,-1.7582,-1.7582,-1.7582,-1.7582,-1.7655,-1.7956,-1.8163,-1.841,-1.8831,-1.8925,-1.8951,-1.9052,-1.9232,-1.9366,-1.9366,-1.9366,-1.9366,-1.9366,-1.9366,-1.9366,-1.9366,-1.9366,-1.9366,-1.9366,-1.9366,-1.9366,-1.9366,-1.9366,-1.9366,-1.9366,-1.9366,-1.9366,-1.9366,-2.0809,-2.2032,-2.3039,-2.4242,-2.5415,-2.6674,-2.6933,-2.7012,-2.7021,-2.7168,-2.7305,0.0,0.0,0.0,0.0,0.0,0.0,0.0,0.0,0.0,0.0,0.0,0.0,0.0,0.0,0.0,0.0,0.0,0.0,0.0,0.0,0.0,0.0,0.0,0.0,0.0,0.0,0.0,0.0,0.0,-0.5428,-0.5428,-0.5428,-0.6352,-0.8348,-0.9698,-1.0898,-1.187,-1.2144,-1.2291,-1.2305,-1.2305,-1.2458,-1.2835,-1.3066,-1.3367,-1.3661,-1.3955,-1.4088,-1.4135,-1.471,-1.4957,-1.5023,-1.5591,-1.5818,-1.5832,-1.5832,-1.5832,-1.5832,-1.5832,-1.5832,-1.5832,-1.5832,-1.6032,-1.6326,-1.662,-1.6914,-1.7215,-1.7502,-1.7582,-1.7582,-1.7582,-1.7582,-1.7662,-1.7983,-1.8277,-1.8577,-1.8871,-1.8938,-1.9025,-1.9312,-1.9366,-1.9366,-1.9366,-1.9366,-1.9366,-1.9366,-1.9366,-1.9366,-1.9366,-1.9366,-1.9366,-1.9366,-1.9366,-1.9366,-1.9366,-1.9366,-1.9366,-1.9366,-1.9366,-1.9366,-1.9366,-2.0809,-2.1586,-2.1586,-2.3039,-2.4488,-2.6036,-2.6693,-2.7051,-2.706,-2.749,-2.791,-0.4382,0.0,0.0,0.0,0.0,0.0,0.0,0.0,0.0,0.0,0.0,0.0,0.0,0.0,0.0,0.0,0.0,0.0,0.0,0.0,0.0,0.0,0.0,0.0,0.0,0.0,0.0,0.0,-0.5428,-0.5428,-0.5428,-0.6601,-0.7931,-0.9304,-1.0325,-1.1155,-1.1864,-1.1951,-1.2091,-1.2305,-1.2305,-1.2458,-1.2835,-1.3066,-1.3367,-1.3661,-1.3955,-1.4088,-1.4115,-1.4489,-1.477,-1.4997,-1.5371,-1.5645,-1.5832,-1.5832,-1.5832,-1.5832,-1.5832,-1.5832,-1.5832,-1.5832,-1.6032,-1.6326,-1.662,-1.6914,-1.7215,-1.7502,-1.7582,-1.7582,-1.7582,-1.7582,-1.7716,-1.8243,-1.843,-1.8631,-1.9138,-1.9245,-1.9265,-1.9352,-1.9366,-1.9366,-1.9366,-1.9366,-1.9366,-1.9366,-1.9366,-1.9366,-1.9366,-1.9366,-1.9366,-1.9366,-1.9366,-1.9366,-1.9366,-1.9366,-1.9366,-1.9366,-1.9366,-1.9366,-1.9366,-1.9815,-2.0479,-2.1586,-2.2032,-2.2927,-2.4488,-2.5712,-2.6937,-2.7939,-2.8066,-2.8184,0.0,0.0,0.0,0.0,0.0,0.0,0.0,-0.7014,0.0,0.0,0.0,0.0,0.0,0.0,0.0,0.0,0.0,0.0,0.0,0.0,0.0,0.0,0.0,0.0,0.0,0.0,0.0,-0.5428,-0.5428,-0.5557,-0.5947,-0.7246,-0.8479,-0.9491,-1.0462,-1.1216,-1.1683,-1.1804,-1.2011,-1.2298,-1.1842,-1.2006,-1.2572,-1.2609,-1.2894,-1.3487,-1.3901,-1.4088,-1.4102,-1.4269,-1.4589,-1.499,-1.5284,-1.5571,-1.5832,-1.5832,-1.5832,-1.5832,-1.5832,-1.5832,-1.5832,-1.5832,-1.6032,-1.6326,-1.662,-1.6914,-1.7215,-1.7502,-1.7582,-1.7582,-1.7582,-1.7582,-1.7702,-1.819,-1.8404,-1.8617,-1.9078,-1.9279,-1.9366,-1.9366,-1.9366,-1.9366,-1.9366,-1.9366,-1.9366,-1.9366,-1.9366,-1.9366,-1.9366,-1.9366,-1.9366,-1.9366,-1.9366,-1.9366,-1.9366,-1.9366,-1.9366,-1.9366,-1.9366,-1.9366,-1.9366,-1.9366,-1.9815,-2.0702,-2.0702,-2.1373,-2.2927,-2.4369,-2.5599,-2.6391,-2.706,-2.7051,0.0,0.0,0.0,0.0,0.0,0.0,-0.709,-0.6935,-0.6854,0.0,0.0,0.0,0.0,0.0,0.0,0.0,0.0,0.0,0.0,0.0,0.0,0.0,0.0,0.0,0.0,-0.5373,-0.5467,-0.5467,-0.5547,-0.5947,-0.6785,-0.7702,-0.8549,-0.9402,-1.0412,-1.1102,-1.1423,-1.169,-1.1984,-1.2298,-1.1391,-1.1465,-1.2318,-1.1942,-1.2362,-1.324,-1.3801,-1.4055,-1.4088,-1.4088,-1.4436,-1.499,-1.5251,-1.5545,-1.5832,-1.5832,-1.5832,-1.5832,-1.5832,-1.5832,-1.5832,-1.5832,-1.6005,-1.6279,-1.6607,-1.6894,-1.7168,-1.7488,-1.7582,-1.7582,-1.7582,-1.7582,-1.7662,-1.7969,-1.827,-1.8571,-1.8865,-1.9158,-1.9366,-1.9366,-1.9366,-1.9366,-1.9366,-1.9366,-1.9366,-1.9366,-1.9366,-1.9366,-1.9366,-1.9366,-1.9366,-1.9366,-1.9366,-1.9366,-1.9366,-1.9366,-1.9366,-1.9366,-1.9366,-1.9366,-1.9366,-1.9366,-1.9366,-1.9366,-1.9366,-2.004,-2.1365,-2.3039,-2.3822,-2.3822,-2.516,-2.5151,0.0,0.0,0.0,0.0,0.0,0.0,-0.6112,-0.6189,-0.6411,0.0,0.0,0.0,0.0,0.0,0.0,0.0,0.0,0.0,0.0,0.0,0.0,0.0,0.0,0.0,0.0,-0.5954,-0.6054,-0.6054,-0.6314,-0.685,-0.7697,-0.8549,-0.946,-1.0301,-1.0551,-1.0895,-1.1423,-1.1483,-1.1777,-1.2305,-1.2077,-1.2077,-1.2311,-1.2513,-1.281,-1.3227,-1.3581,-1.3868,-1.4088,-1.4088,-1.4436,-1.497,-1.5023,-1.5364,-1.5832,-1.5832,-1.5832,-1.5832,-1.5832,-1.5832,-1.5832,-1.5832,-1.5872,-1.6019,-1.6547,-1.6747,-1.6901,-1.7435,-1.7582,-1.7582,-1.7582,-1.7582,-1.7662,-1.7969,-1.827,-1.8571,-1.8865,-1.9158,-1.9366,-1.9366,-1.9366,-1.9366,-1.9366,-1.9366,-1.9366,-1.9366,-1.9366,-1.9366,-1.9366,-1.9366,-1.9366,-1.9366,-1.9366,-1.9366,-1.9366,-1.9366,-1.9366,-1.9366,-1.9366,-1.9366,-1.9366,-1.9366,-1.9366,-1.9366,-1.9366,-1.9591,-1.9815,-2.2492,-2.3822,-2.3822,-2.4156,-2.4044,0.0,0.0,0.0,-0.5982,0.0,0.0,0.0,-0.6259,-0.6404,-0.7108,0.0,0.0,0.0,0.0,0.0,0.0,0.0,0.0,0.0,0.0,0.0,0.0,0.0,0.0,0.0,-0.6017,-0.6282,-0.6809,-0.7127,-0.7697,-0.8613,-0.8678,-0.9262,-1.0561,-1.0174,-1.0444,-1.1423,-1.1423,-1.1724,-1.2298,-1.1774,-1.1842,-1.2311,-1.2075,-1.2441,-1.3227,-1.3514,-1.3814,-1.4088,-1.4088,-1.4436,-1.4963,-1.4963,-1.5317,-1.5832,-1.5832,-1.5832,-1.5832,-1.5832,-1.5832,-1.5832,-1.5832,-1.5832,-1.5939,-1.6526,-1.6907,-1.7208,-1.7495,-1.7582,-1.7582,-1.7582,-1.7582,-1.7622,-1.7776,-1.805,-1.835,-1.8644,-1.9058,-1.9366,-1.9366,-1.9366,-1.9366,-1.9366,-1.9366,-1.9366,-1.9366,-1.9366,-1.9366,-1.9366,-1.9366,-1.9366,-1.9366,-1.9366,-1.9366,-1.9366,-1.9366,-1.9366,-1.9366,-1.9366,-1.9366,-1.9366,-1.9366,-1.9366,-1.9366,-1.9366,-1.9366,-1.9366,-2.0931,-2.1601,-2.1601,-2.2371,-2.2266,0.0,0.0,0.0,0.0,0.0,-0.6676,0.0,0.0,0.0,-0.7415,0.0,0.0,0.0,0.0,0.0,0.0,0.0,0.0,0.0,0.0,0.0,0.0,0.0,0.0,0.0,-0.6142,-0.663,-0.7363,-0.7855,-0.8366,-0.8931,-0.8522,-0.8807,-1.004,-0.9594,-0.9915,-1.1142,-1.1286,-1.1724,-1.2298,-1.1465,-1.1539,-1.2311,-1.1708,-1.2079,-1.3227,-1.346,-1.3761,-1.4088,-1.4088,-1.4436,-1.4963,-1.4963,-1.5317,-1.5832,-1.5832,-1.5832,-1.5832,-1.5832,-1.5832,-1.5832,-1.5832,-1.5905,-1.6086,-1.656,-1.7114,-1.7582,-1.7582,-1.7582,-1.7582,-1.7582,-1.7582,-1.7582,-1.7582,-1.7822,-1.813,-1.843,-1.8905,-1.9299,-1.9359,-1.9366,-1.9366,-1.9366,-1.9366,-1.9366,-1.9366,-1.9366,-1.9366,-1.9366,-1.9366,-1.9366,-1.9366,-1.9366,-1.9366,-1.9366,-1.9366,-1.9366,-1.9366,-1.9366,-1.9366,-1.9366,-1.9366,-1.9366,-1.9366,-1.9366,-1.9366,-1.9366,-1.9366,-1.9366,-1.9482,-2.0587,-2.0594,0.0,0.0,0.0,0.0,-0.6394,0.0,0.0,0.0,-0.6814,-0.6471,0.0,0.0,0.0,0.0,0.0,0.0,0.0,0.0,0.0,0.0,0.0,0.0,0.0,0.0,0.0,0.0,-0.7271,-0.7126,-0.7893,-0.8182,-0.7716,-0.8626,-0.8877,-0.8285,-0.8941,-0.9586,-1.0239,-1.1005,-1.1724,-1.2305,-1.215,-1.2224,-1.2305,-1.2183,-1.2513,-1.3213,-1.3247,-1.3574,-1.4088,-1.4088,-1.4436,-1.4963,-1.4963,-1.5317,-1.5832,-1.5832,-1.5832,-1.5832,-1.5832,-1.5832,-1.5832,-1.5832,-1.6179,-1.662,-1.6687,-1.7114,-1.7582,-1.7582,-1.7582,-1.7582,-1.7582,-1.7582,-1.7582,-1.7582,-1.7822,-1.813,-1.843,-1.8744,-1.9052,-1.9319,-1.9366,-1.9366,-1.9366,-1.9366,-1.9366,-1.9366,-1.9366,-1.9366,-1.9366,-1.9366,-1.9366,-1.9366,-1.9366,-1.9366,-1.9366,-1.9366,-1.9366,-1.9366,-1.9366,-1.9366,-1.9366,-1.9366,-1.9366,-1.9366,-1.9366,-1.9366,-1.9366,-1.9366,-1.9366,-1.9366,-1.9591,-1.9591,0.0,0.0,0.0,0.0,0.0,0.0,-0.6471,0.0,-0.68,0.0,0.0,0.0,0.0,0.0,0.0,0.0,0.0,0.0,0.0,0.0,0.0,0.0,0.0,0.0,0.0,0.0,0.0,0.0,0.0,-0.8673,-0.8281,-0.8283,-0.8149,-0.8021,-0.7897,-0.8506,-1.0101,-1.0453,-1.1217,-1.2305,-1.2305,-1.2305,-1.2311,-1.2478,-1.2799,-1.322,-1.3387,-1.3701,-1.4088,-1.4088,-1.4436,-1.4963,-1.4963,-1.5317,-1.5832,-1.5832,-1.5832,-1.5832,-1.5832,-1.5832,-1.5832,-1.5832,-1.6112,-1.6486,-1.6653,-1.7001,-1.7368,-1.7535,-1.7582,-1.7582,-1.7582,-1.7582,-1.7582,-1.7582,-1.7682,-1.7909,-1.839,-1.8591,-1.8811,-1.9279,-1.9366,-1.9366,-1.9366,-1.9366,-1.9366,-1.9366,-1.9366,-1.9366,-1.9366,-1.9366,-1.9366,-1.9366,-1.9366,-1.9366,-1.9366,-1.9366,-1.9366,-1.9366,-1.9366,-1.9366,-1.9366,-1.9366,-1.9366,-1.9366,-1.9366,-1.9366,-1.9366,-1.9366,-1.9366,-1.9366,-1.9366,-1.9366,-0.4172,0.0,0.0,0.0,0.0,0.0,0.0,0.0,0.0,0.0,0.0,0.0,0.0,0.0,0.0,0.0,0.0,0.0,0.0,0.0,0.0,0.0,0.0,0.0,0.0,0.0,0.0,0.0,0.0,0.0,-0.8722,-0.7958,-0.754,-0.7627,-0.7242,-0.7903,-0.9742,-1.0239,-1.0935,-1.1922,-1.215,-1.215,-1.1929,-1.253,-1.2919,-1.3227,-1.3514,-1.3814,-1.4088,-1.4088,-1.4436,-1.4963,-1.4963,-1.5317,-1.5832,-1.5832,-1.5832,-1.5832,-1.5832,-1.5832,-1.5832,-1.5832,-1.6032,-1.6326,-1.662,-1.6914,-1.7215,-1.7502,-1.7582,-1.7582,-1.7582,-1.7582,-1.7582,-1.7582,-1.7582,-1.7749,-1.8357,-1.849,-1.8664,-1.9252,-1.9366,-1.9366,-1.9366,-1.9366,-1.9366,-1.9366,-1.9366,-1.9366,-1.9366,-1.9366,-1.9366,-1.9366,-1.9366,-1.9366,-1.9366,-1.9366,-1.9366,-1.9366,-1.9366,-1.9366,-1.9366,-1.9366,-1.9366,-1.9366,-1.9366,-1.9366,-1.9366,-1.9366,-1.9366,-1.9366,-1.9366,-1.9366,0.0,0.0,0.0,-0.4843,0.0,0.0,0.0,0.0,-0.6769,0.0,0.0,0.0,0.0,0.0,0.0,0.0,0.0,0.0,0.0,0.0,0.0,0.0,0.0,0.0,0.0,0.0,0.0,0.0,0.0,0.0,-0.8387,-0.7812,-0.7288,-0.6776,-0.7502,-0.8241,-0.8819,-1.051,-1.1217,-1.0858,-1.1842,-1.1774,-1.087,-1.222,-1.2919,-1.3227,-1.3514,-1.3814,-1.4088,-1.4088,-1.4436,-1.4963,-1.4963,-1.5317,-1.5832,-1.5832,-1.5832,-1.5832,-1.5832,-1.5832,-1.5832,-1.5832,-1.6032,-1.6326,-1.662,-1.6914,-1.7215,-1.7502,-1.7582,-1.7582,-1.7582,-1.7582,-1.7582,-1.7582,-1.7582,-1.7749,-1.8357,-1.849,-1.8664,-1.9252,-1.9366,-1.9366,-1.9366,-1.9366,-1.9366,-1.9366,-1.9366,-1.9366,-1.9366,-1.9366,-1.9366,-1.9366,-1.9366,-1.9366,-1.9366,-1.9366,-1.9366,-1.9366,-1.9366,-1.9366,-1.9366,-1.9366,-1.9366,-1.9366,-1.9366,-1.9366,-1.9366,-1.9366,-1.9366,-1.9366,-1.9366,-1.9366,0.0,0.0,-0.447,-0.4428,0.0,0.0,0.0,0.0,0.0,0.0,0.0,0.0,0.0,0.0,0.0,0.0,0.0,0.0,0.0,0.0,0.0,0.0,0.0,0.0,0.0,0.0,0.0,0.0,0.0,0.0,0.0,-0.7817,-0.7812,-0.7225,-0.7752,-0.8506,-0.9672,-1.0239,-1.0645,-1.0783,-1.1848,-1.1768,-1.0875,-1.235,-1.3113,-1.324,-1.3728,-1.3995,-1.4102,-1.4295,-1.4609,-1.4983,-1.5177,-1.5484,-1.5832,-1.5832,-1.5832,-1.5832,-1.5832,-1.5832,-1.5832,-1.5832,-1.5899,-1.6072,-1.6553,-1.6774,-1.6954,-1.7442,-1.7582,-1.7582,-1.7582,-1.7582,-1.7582,-1.7582,-1.7582,-1.7749,-1.8357,-1.849,-1.8664,-1.9252,-1.9366,-1.9366,-1.9366,-1.9366,-1.9366,-1.9366,-1.9366,-1.9366,-1.9366,-1.9366,-1.9366,-1.9366,-1.9366,-1.9366,-1.9366,-1.9366,-1.9366,-1.9366,-1.9366,-1.9366,-1.9366,-1.9366,-1.9366,-1.9366,-1.9366,-1.9366,-1.9366,-1.9366,-1.9366,-1.9366,-1.9366,-1.9366,-0.4623,-0.4623,0.0,-0.4443,-0.4595,0.0,-0.5605,0.0,0.0,0.0,0.0,0.0,0.0,0.0,0.0,0.0,0.0,0.0,0.0,-0.2917,0.0,0.0,0.0,0.0,0.0,0.0,-0.5415,-0.6193,0.0,0.0,0.0,0.0,-0.7756,-0.7125,-0.8055,-0.893,-0.9603,-1.0399,-1.0593,-1.0265,-1.1626,-1.162,-1.0357,-1.2298,-1.3213,-1.324,-1.3834,-1.4088,-1.4108,-1.4402,-1.4696,-1.499,-1.5284,-1.5571,-1.5832,-1.5832,-1.5832,-1.5832,-1.5832,-1.5832,-1.5832,-1.5832,-1.5832,-1.5939,-1.6526,-1.6707,-1.6827,-1.7415,-1.7582,-1.7582,-1.7582,-1.7582,-1.7582,-1.7582,-1.7582,-1.7749,-1.8357,-1.849,-1.8664,-1.9252,-1.9366,-1.9366,-1.9366,-1.9366,-1.9366,-1.9366,-1.9366,-1.9366,-1.9366,-1.9366,-1.9366,-1.9366,-1.9366,-1.9366,-1.9366,-1.9366,-1.9366,-1.9366,-1.9366,-1.9366,-1.9366,-1.9366,-1.9366,-1.9366,-1.9366,-1.9366,-1.9366,-1.9366,-1.9366,-1.9366,-1.9366,-1.9366]}]]